[[{"header":{"parameterUnit":"m.s-1","parameterCategory":1,"la1":31.0,"la2":29.5877,"lo1":-88.7671,"lo2":-86.6584,"dy":0.0162,"dx":0.0185,"nx":115,"ny":88,"refTime":"2023-05-04T12:00:00:Z","depth":0,"parameterNumber":2,"parameterNumberName":"U-component_of_WINDS"},"data":[0.0,0.0,0.0,0.0,0.0,0.0,0.0,0.0,0.0,0.0,0.0,0.0,0.0,0.0,0.0,0.0,0.0,0.0,0.0,0.0,0.0,0.0,0.0,0.0,0.0,0.0,0.0,0.0,0.0,0.0,0.0,0.0,0.0,0.0,0.0,0.0,0.0,0.0,0.0,0.0,0.0,0.0,0.0,0.0,0.0,0.0,0.0,0.0,0.0,0.0,0.0,0.0,0.0,0.0,0.0,0.0,0.0,0.0,0.0,0.0,0.0,0.0,0.0,0.0,0.0,0.0,0.0,0.0,0.0,0.0,0.0,0.0,0.0,0.0,0.0,0.0,0.0,0.0,0.0,0.0,0.0,0.0,0.0,0.0,0.0,0.0,0.0,0.0,0.0,0.0,0.0,0.0,0.0,0.0,0.0,0.0,0.0,0.0,0.0,0.0,0.0,0.0,0.0,0.0,0.0,0.0,0.0,0.0,0.0,0.0,0.0,0.0,0.0,0.0,0.0,0.0,0.0,0.0,0.0,0.0,0.0,0.0,0.0,0.0,0.0,0.0,0.0,0.0,0.0,0.0,0.0,0.0,0.0,0.0,0.0,0.0,0.0,0.0,0.0,0.0,0.0,0.0,0.0,0.0,0.0,0.0,0.0,0.0,0.0,0.0,0.0,0.0,0.0,0.0,0.0,0.0,0.0,0.0,0.0,0.0,0.0,0.0,0.0,0.0,0.0,0.0,0.0,0.0,0.0,0.0,0.0,0.0,0.0,0.0,0.0,0.0,0.0,0.0,0.0,0.0,0.0,0.0,0.0,0.0,0.0,0.0,0.0,0.0,0.0,0.0,0.0,0.0,0.0,0.0,0.0,0.0,0.0,0.0,0.0,0.0,0.0,0.0,0.0,0.0,0.0,0.0,0.0,0.0,0.0,0.0,0.0,0.0,0.0,0.0,0.0,0.0,0.0,0.0,0.0,0.0,0.0,0.0,0.0,0.0,0.0,0.0,0.0,0.0,0.0,0.0,0.0,0.0,0.0,0.0,0.0,0.0,0.0,0.0,0.0,0.0,0.0,0.0,0.0,0.0,0.0,0.0,0.0,0.0,0.0,0.0,0.0,0.0,0.0,0.0,0.0,0.0,0.0,0.0,0.0,0.0,0.0,0.0,0.0,0.0,0.0,0.0,0.0,0.0,0.0,0.0,0.0,0.0,0.0,0.0,0.0,0.0,0.0,0.0,0.0,0.0,0.0,0.0,0.0,0.0,0.0,0.0,0.0,0.0,0.0,0.0,0.0,0.0,0.0,0.0,0.0,0.0,0.0,0.0,0.0,0.0,0.0,0.0,0.0,0.0,0.0,0.0,0.0,0.0,0.0,0.0,0.0,0.0,0.0,0.0,0.0,0.0,0.0,0.0,0.0,0.0,0.0,0.0,0.0,0.0,0.0,0.0,0.0,0.0,0.0,0.0,0.0,0.0,0.0,0.0,0.0,0.0,0.0,0.0,0.0,0.0,0.0,0.0,0.0,0.0,0.0,0.0,0.0,0.0,0.0,0.0,0.0,0.0,0.0,0.0,0.0,0.0,0.0,0.0,0.0,0.0,0.0,0.0,0.0,0.0,0.0,0.0,0.0,0.0,0.0,0.0,0.0,0.0,0.0,0.0,0.0,0.0,0.0,0.0,0.0,0.0,0.0,0.0,0.0,0.0,0.0,0.0,0.0,0.0,0.0,0.0,0.0,0.0,0.0,0.0,0.0,0.0,0.0,0.0,0.0,0.0,0.0,0.0,0.0,0.0,0.0,0.0,0.0,0.0,0.0,0.0,0.0,0.0,0.0,0.0,0.0,0.0,0.0,0.0,0.0,0.0,0.0,0.0,0.0,0.0,0.0,0.0,0.0,0.0,0.0,0.0,0.0,0.0,0.0,0.0,0.0,0.0,0.0,0.0,0.0,0.0,0.0,0.0,0.0,0.0,0.0,0.0,0.0,0.0,0.0,0.0,0.0,0.0,0.0,0.0,0.0,0.0,0.0,0.0,0.0,0.0,0.0,0.0,0.0,0.0,0.0,0.0,0.0,0.0,0.0,0.0,0.0,0.0,0.0,0.0,0.0,0.0,0.0,0.0,0.0,0.0,0.0,0.0,0.0,0.0,0.0,0.0,0.0,0.0,0.0,0.0,0.0,0.0,0.0,0.0,0.0,0.0,0.0,0.0,0.0,0.0,0.0,0.0,0.0,0.0,0.0,0.0,0.0,0.0,0.0,0.0,0.0,0.0,0.0,0.0,0.0,0.0,0.0,0.0,0.0,0.0,0.0,0.0,0.0,0.0,0.0,0.0,0.0,0.0,0.0,0.0,0.0,0.0,0.0,0.0,0.0,0.0,0.0,0.0,0.0,0.0,0.0,0.0,0.0,0.0,0.0,0.0,0.0,0.0,0.0,0.0,0.0,0.0,0.0,0.0,0.0,0.0,0.0,0.0,0.0,0.0,0.0,0.0,0.0,0.0,0.0,0.0,0.0,0.0,0.0,0.0,0.0,0.0,0.0,0.0,0.0,0.0,0.0,0.0,0.0,0.0,0.0,0.0,0.0,0.0,0.0,0.0,0.0,0.0,0.0,0.0,0.0,0.0,0.0,0.0,0.0,0.0,0.0,0.0,0.0,0.0,0.0,0.0,0.0,0.0,0.0,0.0,0.0,0.0,0.0,0.0,0.0,0.0,0.0,0.0,0.0,0.0,0.0,0.0,0.0,0.0,0.0,0.0,0.0,0.0,0.0,0.0,0.0,0.0,0.0,0.0,0.0,0.0,0.0,0.0,0.0,0.0,0.0,0.0,0.0,0.0,0.0,0.0,0.0,0.0,0.0,0.0,0.0,0.0,0.0,0.0,0.0,0.0,0.0,0.0,0.0,0.0,0.0,0.0,0.0,0.0,0.0,0.0,0.0,0.0,0.0,0.0,0.0,0.0,0.0,0.0,0.0,0.0,0.0,0.0,0.0,0.0,0.0,0.0,0.0,0.0,0.0,0.0,0.0,0.0,0.0,0.0,0.0,0.0,0.0,0.0,0.0,0.0,0.0,0.0,0.0,0.0,0.0,0.0,0.0,0.0,0.0,0.0,0.0,0.0,0.0,0.0,0.0,0.0,0.0,0.0,0.0,0.0,0.0,0.0,0.0,0.0,0.0,0.0,0.0,0.0,0.0,0.0,0.0,0.0,0.0,0.0,0.0,0.0,0.0,0.0,0.0,0.0,0.0,0.0,0.0,0.0,0.0,0.0,0.0,0.0,0.0,0.0,0.0,0.0,0.0,0.0,0.0,0.0,0.0,0.0,0.0,0.0,0.0,0.0,0.0,0.0,0.0,0.0,0.0,0.0,0.0,0.0,0.0,0.0,0.0,0.0,0.0,0.0,0.0,0.0,0.0,0.0,0.0,0.0,0.0,0.0,0.0,0.0,0.0,0.0,0.0,0.0,0.0,0.0,0.0,0.0,0.0,0.0,0.0,0.0,0.0,0.0,0.0,0.0,0.0,0.0,0.0,0.0,0.0,0.0,0.0,0.0,0.0,0.0,0.0,0.0,0.0,0.0,0.0,0.0,0.0,0.0,0.0,0.0,0.0,0.0,0.0,0.0,0.0,0.0,0.0,0.0,0.0,0.0,0.0,0.0,0.0,0.0,0.0,0.0,0.0,0.0,0.0,0.0,0.0,0.0,0.0,0.0,0.0,0.0,0.0,0.0,0.0,0.0,0.0,0.0,0.0,0.0,0.0,0.0,0.0,0.0,0.0,0.0,0.0,0.0,0.0,0.0,0.0,0.0,0.0,0.0,0.0,0.0,0.0,0.0,0.0,0.0,0.0,0.0,0.0,0.0,0.0,0.0,0.0,0.0,0.0,0.0,0.0,0.0,0.0,0.0,0.0,0.0,0.0,0.0,0.0,0.0,0.0,0.0,0.0,0.0,0.0,0.0,0.0,0.0,0.0,0.0,0.0,0.0,0.0,0.0,0.0,0.0,0.0,0.0,0.0,0.0,0.0,0.0,0.0,0.0,0.0,0.0,0.0,0.0,0.0,0.0,0.0,0.0,0.0,0.0,0.0,0.0,0.0,0.0,0.0,0.0,0.0,0.0,0.0,0.0,0.0,0.0,0.0,0.0,0.0,0.0,0.0,0.0,0.0,0.0,0.0,0.0,0.0,0.0,0.0,0.0,0.0,0.0,0.0,0.0,0.0,0.0,0.0,0.0,0.0,0.0,0.0,0.0,0.0,0.0,0.0,0.0,0.0,0.0,-2.202,0.0,0.0,0.0,0.0,0.0,0.0,0.0,0.0,0.0,0.0,0.0,0.0,0.0,0.0,0.0,0.0,0.0,0.0,0.0,0.0,0.0,0.0,0.0,0.0,0.0,0.0,0.0,0.0,0.0,0.0,0.0,0.0,0.0,0.0,0.0,0.0,0.0,0.0,0.0,0.0,0.0,0.0,0.0,0.0,0.0,0.0,0.0,0.0,0.0,0.0,0.0,0.0,0.0,0.0,0.0,0.0,0.0,0.0,0.0,0.0,0.0,0.0,0.0,0.0,0.0,0.0,0.0,0.0,0.0,0.0,0.0,0.0,0.0,0.0,0.0,0.0,0.0,0.0,0.0,0.0,0.0,0.0,0.0,0.0,0.0,0.0,0.0,0.0,0.0,0.0,0.0,0.0,0.0,0.0,0.0,0.0,0.0,0.0,0.0,0.0,0.0,0.0,0.0,0.0,0.0,0.0,0.0,0.0,0.0,0.0,-2.4014,-2.3907,-2.3738,-2.3403,-2.2854,0.0,0.0,0.0,0.0,0.0,0.0,0.0,0.0,0.0,0.0,0.0,0.0,0.0,0.0,0.0,0.0,0.0,0.0,0.0,0.0,0.0,0.0,0.0,0.0,0.0,0.0,0.0,0.0,0.0,0.0,0.0,0.0,0.0,0.0,0.0,0.0,0.0,0.0,0.0,0.0,0.0,0.0,0.0,0.0,0.0,0.0,0.0,0.0,0.0,0.0,0.0,0.0,0.0,0.0,0.0,0.0,0.0,0.0,0.0,0.0,0.0,0.0,0.0,0.0,0.0,0.0,0.0,0.0,0.0,0.0,0.0,0.0,0.0,0.0,0.0,0.0,0.0,0.0,0.0,0.0,0.0,0.0,0.0,0.0,0.0,0.0,0.0,0.0,0.0,0.0,0.0,0.0,0.0,0.0,0.0,0.0,0.0,0.0,0.0,0.0,0.0,0.0,0.0,0.0,0.0,0.0,0.0,0.0,0.0,0.0,0.0,0.0,-2.4907,-2.4418,-2.3601,0.0,0.0,0.0,0.0,0.0,0.0,0.0,0.0,0.0,0.0,0.0,0.0,0.0,0.0,0.0,0.0,0.0,0.0,0.0,0.0,0.0,0.0,0.0,0.0,0.0,0.0,0.0,0.0,0.0,0.0,0.0,0.0,0.0,0.0,0.0,0.0,0.0,0.0,0.0,0.0,0.0,0.0,0.0,0.0,0.0,0.0,0.0,0.0,0.0,0.0,0.0,0.0,0.0,0.0,0.0,0.0,0.0,0.0,0.0,0.0,0.0,0.0,0.0,0.0,0.0,0.0,0.0,0.0,0.0,0.0,0.0,0.0,0.0,0.0,0.0,0.0,0.0,0.0,0.0,0.0,0.0,0.0,0.0,0.0,0.0,0.0,0.0,0.0,0.0,0.0,0.0,0.0,0.0,0.0,0.0,0.0,0.0,0.0,0.0,0.0,0.0,0.0,0.0,0.0,0.0,0.0,0.0,0.0,0.0,0.0,-2.5243,-2.5181,-2.4993,0.0,-2.4118,0.0,0.0,0.0,0.0,0.0,0.0,0.0,0.0,0.0,0.0,0.0,0.0,0.0,0.0,0.0,0.0,0.0,0.0,0.0,0.0,0.0,0.0,0.0,0.0,0.0,0.0,0.0,0.0,0.0,0.0,0.0,0.0,0.0,0.0,0.0,0.0,0.0,0.0,0.0,0.0,0.0,0.0,0.0,0.0,0.0,0.0,0.0,0.0,0.0,0.0,0.0,0.0,0.0,0.0,0.0,0.0,0.0,0.0,0.0,0.0,0.0,0.0,0.0,0.0,0.0,0.0,0.0,0.0,0.0,0.0,0.0,0.0,0.0,0.0,0.0,0.0,0.0,0.0,0.0,0.0,0.0,0.0,0.0,0.0,0.0,0.0,0.0,0.0,0.0,0.0,0.0,0.0,0.0,0.0,0.0,0.0,0.0,0.0,0.0,0.0,0.0,0.0,0.0,0.0,0.0,0.0,0.0,0.0,0.0,0.0,-2.6013,-2.5914,-2.5639,-2.5074,0.0,0.0,0.0,0.0,0.0,0.0,0.0,0.0,0.0,0.0,0.0,0.0,0.0,0.0,0.0,0.0,0.0,0.0,0.0,0.0,0.0,0.0,0.0,0.0,0.0,0.0,0.0,0.0,0.0,0.0,0.0,0.0,0.0,0.0,0.0,0.0,0.0,0.0,0.0,0.0,0.0,0.0,0.0,0.0,0.0,0.0,0.0,0.0,0.0,0.0,0.0,0.0,0.0,0.0,0.0,0.0,0.0,0.0,0.0,0.0,0.0,0.0,0.0,0.0,0.0,0.0,0.0,0.0,0.0,0.0,0.0,0.0,0.0,0.0,0.0,0.0,0.0,0.0,0.0,0.0,0.0,0.0,0.0,0.0,0.0,0.0,0.0,0.0,0.0,0.0,0.0,0.0,0.0,0.0,0.0,0.0,0.0,0.0,0.0,0.0,0.0,0.0,0.0,0.0,0.0,0.0,0.0,0.0,0.0,0.0,-2.6332,-2.6622,-2.6645,-2.6148,-2.5417,-2.4494,0.0,0.0,0.0,0.0,0.0,0.0,0.0,0.0,0.0,0.0,0.0,0.0,0.0,0.0,0.0,0.0,0.0,0.0,0.0,0.0,0.0,0.0,0.0,0.0,0.0,0.0,0.0,0.0,0.0,0.0,0.0,0.0,0.0,0.0,0.0,0.0,0.0,0.0,0.0,0.0,0.0,0.0,0.0,0.0,0.0,0.0,0.0,0.0,0.0,0.0,0.0,0.0,0.0,0.0,0.0,0.0,0.0,0.0,0.0,0.0,0.0,0.0,0.0,0.0,0.0,0.0,0.0,0.0,0.0,0.0,0.0,0.0,0.0,0.0,0.0,0.0,0.0,0.0,0.0,0.0,0.0,0.0,0.0,0.0,0.0,0.0,0.0,0.0,0.0,0.0,0.0,0.0,0.0,0.0,0.0,0.0,0.0,0.0,0.0,0.0,0.0,0.0,0.0,0.0,0.0,0.0,0.0,0.0,-2.6687,-2.6659,-2.686,-2.7345,-2.6363,-2.5669,0.0,0.0,0.0,0.0,0.0,0.0,0.0,0.0,0.0,0.0,0.0,0.0,0.0,0.0,0.0,0.0,0.0,0.0,0.0,0.0,0.0,0.0,0.0,0.0,0.0,0.0,0.0,0.0,0.0,0.0,0.0,0.0,0.0,0.0,0.0,0.0,0.0,0.0,0.0,0.0,0.0,0.0,0.0,0.0,0.0,0.0,0.0,0.0,0.0,0.0,0.0,0.0,0.0,0.0,0.0,0.0,0.0,0.0,0.0,0.0,0.0,0.0,0.0,0.0,0.0,0.0,0.0,0.0,0.0,0.0,0.0,0.0,0.0,0.0,0.0,0.0,0.0,0.0,0.0,0.0,0.0,0.0,0.0,0.0,0.0,0.0,0.0,0.0,0.0,0.0,0.0,0.0,0.0,0.0,0.0,0.0,0.0,0.0,0.0,0.0,0.0,0.0,0.0,0.0,0.0,0.0,0.0,0.0,0.0,-2.6726,-2.7588,-2.8122,-2.8202,-2.7194,-2.6245,0.0,0.0,0.0,0.0,0.0,0.0,0.0,0.0,0.0,0.0,0.0,0.0,0.0,0.0,0.0,0.0,0.0,0.0,0.0,0.0,0.0,0.0,0.0,0.0,0.0,0.0,0.0,0.0,0.0,0.0,0.0,0.0,0.0,0.0,0.0,0.0,0.0,0.0,0.0,0.0,0.0,0.0,0.0,0.0,0.0,0.0,0.0,0.0,0.0,0.0,0.0,0.0,0.0,0.0,0.0,0.0,0.0,0.0,0.0,0.0,0.0,0.0,0.0,0.0,0.0,0.0,0.0,0.0,0.0,0.0,0.0,0.0,0.0,0.0,0.0,0.0,0.0,0.0,0.0,0.0,0.0,0.0,0.0,0.0,0.0,0.0,0.0,0.0,0.0,0.0,0.0,0.0,0.0,0.0,0.0,0.0,0.0,0.0,0.0,0.0,0.0,0.0,0.0,0.0,0.0,0.0,0.0,0.0,0.0,-2.7498,0.0,-2.926,-2.9049,-2.7786,-2.6683,0.0,0.0,0.0,0.0,0.0,0.0,0.0,0.0,0.0,0.0,0.0,0.0,0.0,0.0,0.0,0.0,0.0,0.0,0.0,0.0,0.0,0.0,0.0,0.0,0.0,0.0,0.0,0.0,0.0,0.0,0.0,0.0,0.0,0.0,0.0,0.0,0.0,0.0,0.0,0.0,0.0,0.0,0.0,0.0,0.0,0.0,0.0,0.0,0.0,0.0,0.0,0.0,0.0,0.0,0.0,0.0,0.0,0.0,0.0,0.0,0.0,0.0,0.0,0.0,0.0,0.0,0.0,0.0,0.0,0.0,0.0,0.0,0.0,0.0,0.0,0.0,0.0,0.0,0.0,0.0,0.0,0.0,0.0,0.0,0.0,0.0,0.0,0.0,0.0,0.0,0.0,0.0,0.0,0.0,0.0,0.0,0.0,0.0,0.0,0.0,0.0,0.0,0.0,0.0,0.0,0.0,0.0,0.0,-2.7611,-2.9126,-2.9851,-3.0118,-2.9886,-2.8149,-2.6982,0.0,0.0,0.0,0.0,0.0,0.0,0.0,0.0,0.0,0.0,0.0,0.0,0.0,0.0,0.0,0.0,0.0,0.0,0.0,0.0,0.0,0.0,0.0,0.0,0.0,0.0,0.0,0.0,0.0,0.0,0.0,0.0,0.0,0.0,0.0,0.0,0.0,0.0,0.0,0.0,0.0,0.0,0.0,0.0,0.0,0.0,0.0,0.0,0.0,0.0,0.0,0.0,0.0,0.0,0.0,0.0,0.0,0.0,0.0,0.0,0.0,0.0,0.0,0.0,0.0,0.0,0.0,0.0,0.0,0.0,0.0,0.0,0.0,0.0,0.0,0.0,0.0,0.0,0.0,0.0,0.0,0.0,0.0,0.0,0.0,0.0,0.0,0.0,0.0,0.0,0.0,0.0,0.0,0.0,0.0,0.0,0.0,0.0,0.0,0.0,0.0,0.0,0.0,0.0,0.0,0.0,0.0,0.0,0.0,-3.0092,-3.0753,-3.103,-3.0836,-2.9547,-2.8185,0.0,0.0,0.0,0.0,0.0,0.0,0.0,0.0,0.0,0.0,0.0,0.0,0.0,0.0,0.0,0.0,0.0,0.0,0.0,0.0,0.0,0.0,0.0,0.0,0.0,0.0,0.0,0.0,0.0,0.0,0.0,0.0,0.0,0.0,0.0,0.0,0.0,0.0,0.0,0.0,0.0,0.0,0.0,0.0,0.0,0.0,0.0,0.0,0.0,0.0,0.0,0.0,0.0,0.0,0.0,0.0,0.0,0.0,0.0,0.0,0.0,0.0,0.0,0.0,0.0,0.0,0.0,0.0,0.0,0.0,0.0,0.0,0.0,0.0,0.0,0.0,0.0,0.0,0.0,0.0,0.0,0.0,0.0,0.0,0.0,0.0,0.0,0.0,0.0,0.0,0.0,0.0,0.0,0.0,0.0,0.0,0.0,0.0,0.0,0.0,0.0,0.0,0.0,0.0,0.0,0.0,0.0,0.0,0.0,-3.1918,-3.2282,-3.2385,-3.2224,-3.0835,-2.9166,-2.728,0.0,0.0,0.0,0.0,0.0,0.0,0.0,0.0,0.0,0.0,0.0,0.0,0.0,0.0,0.0,0.0,0.0,0.0,0.0,0.0,0.0,0.0,0.0,0.0,0.0,0.0,0.0,0.0,0.0,0.0,0.0,0.0,0.0,0.0,0.0,0.0,0.0,0.0,0.0,0.0,0.0,0.0,0.0,0.0,0.0,0.0,0.0,0.0,0.0,0.0,0.0,0.0,0.0,0.0,0.0,0.0,0.0,0.0,0.0,0.0,0.0,0.0,0.0,0.0,0.0,0.0,0.0,0.0,0.0,0.0,0.0,0.0,0.0,0.0,0.0,0.0,0.0,0.0,0.0,0.0,0.0,0.0,0.0,0.0,0.0,0.0,0.0,0.0,0.0,0.0,0.0,0.0,0.0,0.0,0.0,0.0,0.0,0.0,0.0,0.0,0.0,0.0,0.0,0.0,0.0,0.0,0.0,0.0,-3.4428,-3.4404,-3.4228,-3.383,-3.2041,-3.0094,0.0,0.0,0.0,0.0,0.0,0.0,0.0,0.0,0.0,0.0,0.0,0.0,0.0,0.0,0.0,0.0,0.0,0.0,0.0,0.0,0.0,0.0,0.0,0.0,0.0,0.0,0.0,0.0,0.0,0.0,0.0,0.0,0.0,0.0,0.0,0.0,0.0,0.0,0.0,0.0,0.0,0.0,0.0,0.0,0.0,0.0,0.0,0.0,0.0,0.0,0.0,0.0,0.0,0.0,0.0,0.0,0.0,0.0,0.0,0.0,0.0,0.0,0.0,0.0,0.0,0.0,0.0,0.0,0.0,0.0,0.0,0.0,0.0,0.0,0.0,0.0,0.0,0.0,0.0,0.0,0.0,0.0,0.0,0.0,0.0,0.0,0.0,0.0,0.0,0.0,0.0,0.0,0.0,0.0,0.0,0.0,0.0,0.0,0.0,0.0,0.0,0.0,0.0,0.0,0.0,0.0,0.0,0.0,0.0,-3.6176,-3.7359,-3.6949,-3.4912,-3.3515,-3.1625,0.0,0.0,0.0,0.0,0.0,0.0,0.0,0.0,0.0,0.0,0.0,0.0,0.0,0.0,0.0,0.0,0.0,0.0,0.0,0.0,0.0,0.0,0.0,0.0,0.0,0.0,0.0,0.0,0.0,0.0,0.0,0.0,0.0,0.0,0.0,0.0,0.0,0.0,0.0,0.0,0.0,0.0,0.0,0.0,0.0,0.0,0.0,0.0,0.0,0.0,0.0,0.0,0.0,0.0,0.0,0.0,0.0,0.0,0.0,0.0,0.0,0.0,0.0,0.0,0.0,0.0,0.0,0.0,0.0,0.0,0.0,0.0,0.0,0.0,0.0,0.0,0.0,0.0,0.0,0.0,0.0,0.0,0.0,0.0,0.0,0.0,0.0,0.0,0.0,0.0,0.0,0.0,0.0,0.0,0.0,0.0,0.0,0.0,0.0,0.0,0.0,0.0,0.0,0.0,0.0,0.0,0.0,0.0,-3.5581,-3.6939,-3.882,-3.8846,-3.6886,-3.5363,-3.3283,0.0,0.0,0.0,0.0,0.0,0.0,0.0,0.0,0.0,0.0,0.0,0.0,0.0,0.0,0.0,0.0,0.0,0.0,0.0,0.0,0.0,0.0,0.0,0.0,0.0,0.0,0.0,0.0,0.0,0.0,0.0,0.0,0.0,0.0,0.0,0.0,0.0,0.0,0.0,0.0,0.0,0.0,0.0,0.0,0.0,0.0,0.0,0.0,0.0,0.0,0.0,0.0,0.0,0.0,0.0,0.0,0.0,0.0,0.0,0.0,0.0,0.0,0.0,0.0,0.0,0.0,0.0,0.0,0.0,0.0,0.0,0.0,0.0,0.0,0.0,0.0,0.0,0.0,0.0,0.0,0.0,0.0,0.0,0.0,0.0,0.0,0.0,0.0,0.0,0.0,0.0,0.0,0.0,0.0,0.0,0.0,0.0,0.0,0.0,0.0,0.0,0.0,0.0,0.0,0.0,0.0,0.0,0.0,-3.625,-3.7135,-3.9335,-4.0127,-3.9205,-3.7129,-3.4754,0.0,0.0,0.0,0.0,0.0,0.0,0.0,0.0,0.0,0.0,0.0,0.0,0.0,0.0,0.0,0.0,0.0,0.0,0.0,0.0,0.0,0.0,0.0,0.0,0.0,0.0,0.0,0.0,0.0,0.0,0.0,0.0,0.0,0.0,0.0,0.0,0.0,0.0,0.0,0.0,0.0,0.0,0.0,0.0,0.0,0.0,0.0,0.0,0.0,0.0,0.0,0.0,0.0,0.0,0.0,0.0,0.0,0.0,0.0,0.0,0.0,0.0,0.0,0.0,0.0,0.0,0.0,0.0,0.0,0.0,0.0,0.0,0.0,0.0,0.0,0.0,0.0,0.0,0.0,0.0,0.0,0.0,0.0,0.0,0.0,0.0,0.0,0.0,0.0,0.0,0.0,0.0,0.0,0.0,0.0,0.0,0.0,0.0,0.0,0.0,0.0,0.0,0.0,0.0,0.0,0.0,0.0,0.0,-3.7103,-3.7948,-3.9721,-4.0458,-4.0049,-3.7433,-3.503,0.0,0.0,0.0,0.0,0.0,0.0,0.0,0.0,0.0,0.0,0.0,0.0,0.0,0.0,0.0,0.0,0.0,0.0,0.0,0.0,0.0,0.0,0.0,0.0,0.0,0.0,0.0,0.0,0.0,0.0,0.0,0.0,0.0,0.0,0.0,0.0,0.0,0.0,0.0,0.0,0.0,0.0,0.0,0.0,0.0,0.0,0.0,0.0,-3.3926,0.0,0.0,0.0,0.0,0.0,0.0,0.0,0.0,0.0,0.0,0.0,0.0,0.0,0.0,0.0,0.0,0.0,0.0,0.0,0.0,0.0,0.0,0.0,0.0,0.0,0.0,0.0,0.0,0.0,0.0,0.0,0.0,0.0,0.0,0.0,0.0,0.0,0.0,0.0,0.0,0.0,0.0,0.0,0.0,0.0,0.0,0.0,0.0,0.0,0.0,0.0,0.0,0.0,0.0,0.0,0.0,0.0,0.0,0.0,-3.6793,-3.7655,-3.9212,-3.9776,-3.9152,-3.7528,-3.5761,0.0,0.0,0.0,0.0,0.0,0.0,0.0,0.0,0.0,0.0,0.0,0.0,0.0,0.0,0.0,0.0,0.0,0.0,0.0,0.0,0.0,0.0,0.0,0.0,0.0,0.0,0.0,0.0,0.0,0.0,0.0,0.0,0.0,0.0,0.0,0.0,0.0,0.0,0.0,0.0,0.0,0.0,0.0,0.0,0.0,0.0,0.0,0.0,0.0,0.0,0.0,0.0,0.0,0.0,0.0,0.0,0.0,0.0,0.0,0.0,0.0,0.0,0.0,0.0,0.0,0.0,0.0,0.0,0.0,0.0,0.0,0.0,0.0,0.0,0.0,0.0,0.0,0.0,0.0,0.0,0.0,0.0,0.0,0.0,0.0,0.0,0.0,0.0,0.0,0.0,0.0,0.0,0.0,0.0,0.0,0.0,0.0,0.0,0.0,0.0,0.0,0.0,0.0,0.0,0.0,0.0,0.0,-3.3964,-3.611,-3.7017,-3.8394,-3.874,-3.7943,-3.7487,-3.6345,-3.4378,0.0,0.0,0.0,0.0,0.0,0.0,0.0,0.0,0.0,0.0,0.0,0.0,0.0,0.0,0.0,0.0,0.0,0.0,0.0,0.0,0.0,0.0,0.0,0.0,0.0,0.0,0.0,0.0,0.0,0.0,0.0,0.0,0.0,0.0,0.0,0.0,0.0,0.0,-3.3967,-3.478,0.0,0.0,0.0,0.0,0.0,0.0,0.0,0.0,-3.426,0.0,0.0,0.0,0.0,0.0,0.0,0.0,0.0,0.0,0.0,0.0,0.0,0.0,0.0,0.0,0.0,0.0,0.0,0.0,0.0,0.0,0.0,0.0,0.0,0.0,0.0,0.0,0.0,0.0,0.0,0.0,0.0,0.0,0.0,0.0,0.0,0.0,0.0,0.0,0.0,0.0,0.0,0.0,0.0,0.0,0.0,0.0,0.0,0.0,0.0,0.0,0.0,0.0,0.0,0.0,0.0,-3.0618,-3.3968,-3.6135,-3.6983,-3.7975,-3.831,-3.7969,-3.7121,-3.5662,-3.3634,0.0,0.0,0.0,0.0,0.0,0.0,0.0,0.0,0.0,0.0,0.0,0.0,0.0,0.0,0.0,0.0,0.0,0.0,0.0,0.0,0.0,0.0,0.0,0.0,0.0,0.0,0.0,0.0,0.0,0.0,0.0,0.0,0.0,0.0,0.0,0.0,0.0,0.0,0.0,-3.5417,-3.536,0.0,0.0,0.0,0.0,0.0,0.0,0.0,0.0,-3.4265,0.0,0.0,0.0,0.0,0.0,0.0,0.0,0.0,0.0,0.0,0.0,0.0,0.0,0.0,0.0,0.0,0.0,0.0,0.0,0.0,0.0,0.0,0.0,0.0,0.0,0.0,0.0,0.0,0.0,0.0,0.0,0.0,0.0,0.0,0.0,0.0,0.0,0.0,0.0,0.0,0.0,0.0,0.0,0.0,0.0,0.0,0.0,0.0,0.0,0.0,0.0,0.0,0.0,0.0,0.0,-3.1331,-3.3761,-3.5447,-3.6304,-3.7132,-3.7292,-3.6734,-3.6523,-3.5306,0.0,0.0,0.0,0.0,0.0,0.0,0.0,0.0,0.0,0.0,0.0,0.0,0.0,0.0,0.0,0.0,0.0,0.0,0.0,0.0,0.0,0.0,0.0,0.0,0.0,0.0,0.0,0.0,0.0,0.0,0.0,0.0,0.0,0.0,0.0,0.0,0.0,0.0,0.0,0.0,-3.5894,-3.6093,-3.7317,0.0,0.0,0.0,0.0,0.0,0.0,-3.4383,-3.3979,0.0,0.0,0.0,0.0,0.0,0.0,0.0,0.0,0.0,0.0,0.0,0.0,0.0,0.0,0.0,0.0,0.0,0.0,0.0,0.0,0.0,0.0,0.0,0.0,0.0,0.0,0.0,0.0,0.0,0.0,0.0,0.0,0.0,0.0,0.0,0.0,0.0,0.0,0.0,0.0,0.0,0.0,0.0,0.0,0.0,0.0,0.0,0.0,0.0,0.0,0.0,0.0,0.0,0.0,0.0,-3.1881,-3.3558,-3.4831,-3.5674,-3.6311,-3.6277,-3.5547,-3.5776,-3.478,0.0,0.0,0.0,0.0,0.0,0.0,0.0,0.0,0.0,0.0,0.0,0.0,0.0,0.0,0.0,0.0,0.0,0.0,0.0,0.0,0.0,0.0,0.0,0.0,0.0,0.0,0.0,0.0,0.0,0.0,0.0,0.0,0.0,0.0,0.0,0.0,0.0,0.0,0.0,0.0,0.0,-3.6946,-3.8377,-3.7297,0.0,0.0,0.0,0.0,-3.4699,-3.4592,0.0,0.0,0.0,0.0,0.0,0.0,0.0,0.0,0.0,0.0,0.0,0.0,0.0,0.0,0.0,0.0,0.0,0.0,0.0,0.0,0.0,0.0,0.0,0.0,0.0,0.0,0.0,0.0,0.0,0.0,0.0,0.0,0.0,0.0,0.0,0.0,0.0,0.0,0.0,0.0,0.0,0.0,0.0,0.0,0.0,0.0,0.0,0.0,0.0,0.0,0.0,0.0,0.0,0.0,0.0,0.0,-3.1878,-3.3606,-3.4865,-3.5654,-3.5739,-3.5664,-3.549,-3.4712,-3.3696,0.0,0.0,0.0,0.0,0.0,0.0,0.0,0.0,0.0,0.0,0.0,0.0,0.0,0.0,0.0,0.0,0.0,0.0,0.0,0.0,0.0,0.0,0.0,0.0,0.0,0.0,0.0,0.0,0.0,0.0,0.0,0.0,0.0,0.0,0.0,0.0,0.0,0.0,0.0,0.0,0.0,-3.7505,-3.8395,-3.769,-3.6994,0.0,0.0,-3.6465,-3.6335,-3.6273,0.0,0.0,0.0,0.0,0.0,0.0,0.0,0.0,0.0,0.0,0.0,0.0,0.0,0.0,0.0,0.0,0.0,0.0,0.0,0.0,0.0,0.0,0.0,0.0,0.0,0.0,0.0,0.0,0.0,0.0,0.0,0.0,0.0,0.0,0.0,0.0,0.0,0.0,0.0,0.0,0.0,0.0,0.0,0.0,0.0,0.0,0.0,0.0,0.0,0.0,0.0,0.0,0.0,0.0,0.0,-2.9913,-3.2536,-3.334,-3.4347,-3.5649,-3.5626,-3.5575,-3.556,-3.4594,-3.3544,0.0,0.0,0.0,0.0,0.0,0.0,0.0,0.0,0.0,0.0,0.0,0.0,0.0,0.0,0.0,0.0,0.0,0.0,0.0,0.0,0.0,0.0,0.0,0.0,0.0,0.0,0.0,0.0,0.0,0.0,0.0,0.0,0.0,0.0,0.0,0.0,0.0,0.0,0.0,0.0,0.0,0.0,-3.8918,-3.8281,0.0,0.0,0.0,-3.6509,-3.5935,0.0,0.0,0.0,0.0,0.0,0.0,0.0,0.0,0.0,0.0,0.0,0.0,0.0,0.0,0.0,0.0,0.0,0.0,0.0,0.0,0.0,0.0,0.0,0.0,0.0,0.0,0.0,0.0,0.0,0.0,0.0,0.0,0.0,0.0,0.0,0.0,0.0,0.0,0.0,0.0,0.0,0.0,0.0,0.0,0.0,0.0,0.0,0.0,0.0,0.0,0.0,0.0,0.0,0.0,0.0,0.0,0.0,-3.3093,-3.3335,-3.4167,-3.5625,-3.5648,-3.5622,-3.5598,-3.441,0.0,0.0,0.0,0.0,0.0,0.0,0.0,0.0,0.0,0.0,0.0,0.0,0.0,0.0,0.0,0.0,0.0,0.0,0.0,0.0,0.0,0.0,0.0,0.0,0.0,0.0,0.0,-3.1244,0.0,0.0,0.0,0.0,0.0,0.0,0.0,0.0,0.0,0.0,0.0,0.0,0.0,0.0,-3.8527,-3.9257,-3.8832,-3.8389,0.0,0.0,-3.6555,-3.5747,-3.5605,-3.4826,0.0,0.0,0.0,0.0,0.0,0.0,0.0,0.0,0.0,0.0,0.0,0.0,0.0,0.0,0.0,0.0,0.0,0.0,0.0,0.0,0.0,0.0,0.0,0.0,0.0,0.0,0.0,0.0,0.0,0.0,0.0,0.0,0.0,0.0,0.0,0.0,0.0,0.0,0.0,0.0,0.0,0.0,0.0,0.0,0.0,0.0,0.0,0.0,0.0,0.0,0.0,0.0,0.0,0.0,0.0,-3.3025,-3.3891,-3.4752,-3.5664,-3.5645,-3.5617,-3.5578,-3.3833,-3.2807,0.0,0.0,0.0,0.0,0.0,0.0,0.0,0.0,0.0,0.0,0.0,0.0,0.0,0.0,0.0,0.0,0.0,0.0,0.0,0.0,0.0,0.0,0.0,0.0,0.0,0.0,0.0,0.0,0.0,0.0,0.0,0.0,0.0,0.0,0.0,0.0,0.0,0.0,0.0,0.0,0.0,-3.8383,-3.9112,-3.9132,-3.9027,0.0,0.0,-3.7302,-3.6615,-3.6444,-3.5319,-3.2097,0.0,0.0,0.0,0.0,0.0,0.0,0.0,0.0,0.0,0.0,0.0,0.0,0.0,0.0,0.0,0.0,0.0,0.0,0.0,0.0,0.0,0.0,0.0,0.0,0.0,0.0,0.0,0.0,0.0,0.0,0.0,0.0,0.0,0.0,0.0,0.0,0.0,0.0,0.0,0.0,0.0,0.0,0.0,0.0,0.0,0.0,0.0,0.0,0.0,0.0,0.0,0.0,0.0,-3.0022,-3.304,-3.3421,-3.4283,-3.5644,-3.5623,-3.5622,-3.5589,-3.3808,-3.2793,0.0,0.0,0.0,0.0,0.0,0.0,0.0,0.0,0.0,0.0,0.0,0.0,0.0,0.0,0.0,0.0,0.0,0.0,0.0,0.0,0.0,0.0,0.0,0.0,0.0,0.0,0.0,0.0,-3.2531,-3.3046,-3.3351,0.0,0.0,0.0,0.0,0.0,0.0,0.0,0.0,0.0,0.0,-3.8258,-3.898,-3.9045,0.0,0.0,-3.8589,-3.79,-3.6671,-3.6454,-3.5491,-3.2625,-3.1936,0.0,0.0,0.0,0.0,0.0,0.0,0.0,0.0,0.0,0.0,0.0,0.0,0.0,0.0,0.0,0.0,0.0,0.0,0.0,0.0,0.0,0.0,0.0,0.0,0.0,0.0,0.0,0.0,0.0,0.0,0.0,0.0,0.0,0.0,0.0,0.0,0.0,0.0,0.0,0.0,0.0,0.0,0.0,0.0,0.0,0.0,0.0,0.0,0.0,0.0,0.0,0.0,-2.9679,-3.3055,-3.3107,-3.3935,-3.5679,-3.5646,-3.5618,-3.5574,-3.4127,-3.3141,0.0,0.0,0.0,0.0,0.0,0.0,0.0,0.0,0.0,0.0,0.0,0.0,0.0,0.0,0.0,0.0,0.0,0.0,0.0,0.0,0.0,0.0,0.0,0.0,0.0,0.0,0.0,0.0,-3.2796,-3.3125,-3.306,0.0,0.0,0.0,0.0,0.0,0.0,0.0,0.0,0.0,0.0,-3.7849,-3.8845,-3.8576,-3.8278,-3.8475,-3.8236,-3.7581,-3.627,-3.6049,-3.5271,-3.2939,0.0,0.0,0.0,0.0,0.0,0.0,0.0,0.0,0.0,0.0,0.0,0.0,0.0,0.0,0.0,0.0,0.0,0.0,0.0,0.0,0.0,0.0,0.0,0.0,0.0,0.0,0.0,0.0,0.0,0.0,0.0,0.0,0.0,0.0,0.0,0.0,0.0,0.0,0.0,0.0,0.0,0.0,0.0,0.0,0.0,0.0,0.0,0.0,0.0,0.0,0.0,0.0,0.0,-2.9637,-3.304,-3.3112,-3.3949,-3.5645,-3.5634,-3.5646,-3.5665,-3.4759,-3.3832,-3.2865,0.0,0.0,0.0,0.0,0.0,0.0,0.0,0.0,0.0,0.0,0.0,0.0,0.0,0.0,0.0,0.0,0.0,0.0,0.0,0.0,0.0,0.0,0.0,0.0,0.0,0.0,-3.3779,-3.2426,-3.1482,0.0,0.0,0.0,0.0,0.0,0.0,0.0,0.0,0.0,0.0,-3.6065,-3.7147,-3.8756,-3.7548,-3.6822,-3.7554,-3.693,-3.6111,-3.5358,-3.5243,-3.4595,0.0,0.0,0.0,0.0,0.0,0.0,0.0,0.0,0.0,0.0,0.0,0.0,0.0,0.0,0.0,0.0,0.0,0.0,0.0,0.0,0.0,0.0,0.0,0.0,0.0,0.0,0.0,0.0,-2.8248,0.0,0.0,0.0,0.0,0.0,0.0,0.0,0.0,0.0,0.0,0.0,-2.732,-2.7342,0.0,0.0,0.0,0.0,0.0,0.0,0.0,0.0,0.0,0.0,0.0,0.0,-2.9728,-3.299,-3.3165,-3.4003,-3.5708,-3.5703,-3.5672,-3.5678,-3.427,-3.2769,-3.1212,0.0,0.0,0.0,0.0,0.0,0.0,0.0,0.0,0.0,0.0,0.0,0.0,0.0,0.0,0.0,0.0,0.0,0.0,0.0,0.0,0.0,0.0,0.0,0.0,0.0,-3.3913,0.0,0.0,0.0,0.0,0.0,0.0,0.0,0.0,0.0,0.0,0.0,-3.3821,-3.5736,-3.6247,-3.7012,-3.8645,-3.7915,-3.7282,0.0,0.0,0.0,0.0,0.0,0.0,0.0,0.0,0.0,0.0,0.0,0.0,0.0,0.0,-2.9268,-2.8566,-2.8485,-2.8622,-2.8922,0.0,0.0,0.0,0.0,0.0,0.0,0.0,0.0,0.0,0.0,0.0,0.0,0.0,0.0,0.0,0.0,-2.8119,0.0,0.0,0.0,0.0,0.0,0.0,0.0,0.0,-2.732,-2.762,-2.8165,-2.8209,-2.8193,0.0,-2.8244,-2.7693,0.0,0.0,0.0,0.0,0.0,0.0,0.0,0.0,-2.992,-3.2643,-3.3061,-3.388,-3.5275,-3.5306,-3.5282,-3.5223,-3.3552,-3.2213,-3.1305,-3.0094,-2.9404,0.0,0.0,0.0,0.0,0.0,0.0,0.0,0.0,0.0,0.0,0.0,0.0,0.0,0.0,0.0,0.0,0.0,0.0,0.0,0.0,0.0,0.0,0.0,-3.3559,0.0,0.0,0.0,0.0,0.0,0.0,0.0,0.0,0.0,-3.1384,-3.291,-3.454,-3.6125,-3.6389,-3.6877,-3.8217,0.0,0.0,0.0,0.0,0.0,0.0,0.0,-3.4536,-3.3131,-3.2876,-3.2507,-3.1546,-3.125,-3.1034,-3.063,0.0,0.0,-2.9466,-2.943,-2.9567,-2.9834,-2.9951,-2.9909,-2.9447,-2.9231,-2.9122,0.0,0.0,0.0,0.0,0.0,0.0,0.0,0.0,-3.1139,-3.031,0.0,-2.9459,0.0,0.0,0.0,0.0,0.0,0.0,0.0,0.0,-2.8129,-2.8168,-2.822,-2.8293,-2.8284,-2.8269,-2.8324,-2.8347,-2.8377,-2.8375,0.0,0.0,0.0,0.0,0.0,0.0,-3.018,-3.1946,-3.2783,-3.3637,-3.4469,-3.4508,-3.4466,-3.4318,-3.2706,-3.2211,-3.2921,-3.1314,-3.039,-3.0385,-3.0171,0.0,0.0,0.0,0.0,0.0,0.0,0.0,0.0,0.0,0.0,0.0,0.0,0.0,0.0,0.0,0.0,0.0,0.0,0.0,0.0,-3.3555,0.0,0.0,0.0,0.0,0.0,0.0,0.0,0.0,0.0,0.0,-3.1458,-3.4156,-3.6258,-3.6329,0.0,0.0,0.0,0.0,-3.4218,-3.4945,-3.4986,-3.4692,-3.3935,-3.4435,-3.4665,-3.3822,0.0,0.0,-3.2307,-3.2093,-3.1721,-3.0773,-3.0597,-3.0406,-3.0238,-3.0684,-3.1042,-3.0872,-3.1285,-3.1449,-3.0636,-3.0194,-2.9998,-3.673,0.0,0.0,0.0,0.0,-3.2563,-3.1858,-3.1963,-3.1117,-3.0603,-3.0318,-2.9697,0.0,0.0,0.0,0.0,0.0,0.0,-2.8217,-2.8997,-2.9032,-2.9343,-2.9952,-2.9972,-3.0019,-3.0051,-3.0047,-3.0055,-3.009,-3.0117,-2.9525,-2.8275,0.0,0.0,0.0,0.0,-3.0575,-3.2764,-3.3145,-3.3662,-3.447,-3.4492,-3.4171,-3.3481,-3.244,-3.199,-3.2242,-3.1096,-3.0472,-3.0472,-3.0386,0.0,0.0,0.0,0.0,0.0,0.0,0.0,0.0,0.0,0.0,0.0,0.0,0.0,0.0,0.0,0.0,0.0,0.0,0.0,-3.3582,-3.3321,-3.2646,0.0,0.0,0.0,0.0,0.0,0.0,0.0,0.0,0.0,-3.2271,-3.3568,-3.4724,0.0,0.0,-3.5725,-3.6552,-3.5523,-3.4743,-3.4968,0.0,0.0,0.0,-3.399,-3.405,-3.3817,-3.3671,-3.3476,-3.3085,-3.2883,-3.2706,-3.2376,-3.2222,-3.2048,-3.1901,-3.1488,-3.1339,-3.155,-3.1773,-3.1715,-3.1297,-3.1105,-3.1003,-3.6376,-3.5836,-3.5004,-3.464,-3.4433,-3.2775,-3.2045,-3.1932,-3.1086,-3.068,-3.0638,-3.0086,-2.9656,-2.9319,-2.8477,0.0,0.0,0.0,-2.9087,-2.9894,-2.9906,-3.0178,-3.0694,-3.0701,-3.0724,-3.0756,-3.0786,-3.0796,-3.08,-3.0834,-3.0332,-2.9311,0.0,0.0,-2.9983,-3.0005,-3.0742,-3.2214,-3.261,-3.3186,-3.3996,-3.3992,-3.354,-3.2632,-3.1827,-3.1536,-3.1861,-3.1021,-3.0548,-3.058,-3.0521,-3.0446,0.0,0.0,0.0,0.0,0.0,0.0,0.0,0.0,0.0,0.0,0.0,-2.7145,-2.8435,0.0,0.0,0.0,-3.2115,-3.2722,-3.2381,-3.2264,0.0,0.0,0.0,0.0,0.0,0.0,0.0,-3.1775,-3.2263,-3.2685,-3.3023,-3.3513,-3.41,-3.4894,-3.5004,-3.5206,-3.5716,0.0,-3.4527,-3.4527,-3.4119,-3.3807,-3.3807,-3.3807,-3.3793,-3.3726,-3.3684,-3.3591,-3.3422,-3.3274,-3.315,-3.3073,-3.2932,-3.2771,-3.2607,-3.2085,-3.1757,-3.1968,-3.1984,-3.1912,-3.1687,-3.1585,-3.1482,-3.5943,-3.582,-3.5031,-3.4664,-3.4419,-3.2788,-3.2041,-3.191,-3.1068,-3.0649,-3.0586,-3.0525,-3.0085,-2.937,-2.8624,0.0,0.0,-2.9489,-2.9935,-3.069,-3.0711,-3.0692,-3.0694,-3.0694,-3.0711,-3.0703,-3.0759,-3.0786,-3.0798,-3.08,-3.0795,-3.0801,-3.0794,-3.0789,-3.0789,-3.0784,-3.0784,-3.0818,-3.1611,-3.2399,-3.3184,-3.3064,-3.2679,-3.2015,-3.1087,-3.1068,-3.1918,-3.1107,-3.0641,-3.0704,-3.0649,-3.0576,-3.0486,0.0,0.0,0.0,0.0,0.0,0.0,0.0,0.0,0.0,0.0,0.0,0.0,0.0,0.0,0.0,-3.1647,0.0,-3.1166,-3.1052,0.0,0.0,0.0,-3.106,-3.173,-3.1735,-3.1985,-3.2729,0.0,0.0,0.0,0.0,-3.4096,-3.4835,-3.4912,-3.4912,-3.4899,-3.427,-3.3807,-3.3862,-3.3825,-3.3807,-3.3807,-3.382,-3.3793,-3.3671,-3.3689,-3.3629,-3.3466,-3.3352,-3.3232,-3.3075,-3.2948,-3.2836,-3.2591,-3.2506,-3.2457,-3.2319,-3.2196,-3.2073,-3.189,-3.1677,-3.1589,-3.6787,-3.6645,-3.5838,-3.5131,-3.4439,-3.3371,-3.2518,-3.1781,-3.0917,-3.0525,-3.0441,-3.0491,-3.0419,-3.0288,-3.0081,-3.0125,-3.0323,-3.0382,-3.0517,-3.069,-3.0706,-3.071,-3.0694,-3.0694,-3.0711,-3.07,-3.0759,-3.0801,-3.0786,-3.0789,-3.0785,-3.0795,-3.08,-3.0796,-3.0785,-3.0786,-3.1118,-3.1779,-3.1927,-3.209,-3.2266,-3.1641,-3.1796,-3.2858,-3.1444,-3.1393,-3.2854,-3.1479,-3.0694,-3.0701,-3.069,-3.0653,-3.0574,-2.979,0.0,0.0,0.0,0.0,0.0,0.0,0.0,0.0,0.0,-2.8138,-2.9501,0.0,-3.0143,0.0,-3.1439,-3.2487,-3.287,-3.286,0.0,0.0,-3.1859,-3.1963,-3.268,-3.2723,-3.2968,-3.3673,-3.3721,-3.3725,-3.3928,-3.3965,-3.3989,-3.4126,-3.4127,-3.4082,-3.4082,-3.3935,-3.3807,-3.3807,-3.3807,-3.3807,-3.382,-3.3881,-3.3908,-3.3847,-3.3788,-3.3726,-3.3577,-3.3426,-3.3295,-3.3216,-3.3044,-3.29,-3.282,-3.264,-3.2666,-3.2897,-3.2547,-3.2037,-3.1872,-3.1783,-3.1711,-3.643,-3.6343,-3.5902,-3.4982,-3.3847,-3.3358,-3.2624,-3.169,-3.0868,-3.0436,-3.0358,-3.0392,-3.0433,-3.0455,-3.053,-3.0586,-3.0615,-3.0645,-3.0645,-3.0665,-3.0645,-3.0668,-3.0699,-3.0706,-3.0711,-3.0703,-3.0731,-3.0767,-3.0793,-3.0798,-3.0794,-3.0786,-3.0795,-3.0801,-3.0793,-3.0794,-3.1044,-3.15,-3.1852,-3.1824,-3.1493,-3.1348,-3.1544,-3.2041,-3.1193,-3.1145,-3.2101,-3.1216,-3.0698,-3.0731,-3.073,-3.0685,-3.0644,-3.0226,-2.9579,0.0,0.0,0.0,0.0,0.0,0.0,0.0,0.0,0.0,0.0,0.0,-3.0078,0.0,-3.158,0.0,-3.2871,-3.2928,-3.286,-3.2683,-3.2633,-3.2919,-3.3669,-3.3657,-3.3773,-3.4141,-3.4111,-3.4067,-3.4049,-3.4011,-3.3985,-3.3947,-3.3908,-3.3855,-3.382,-3.3807,-3.3807,-3.3807,-3.3807,-3.382,-3.3829,-3.3934,-3.3967,-3.3926,-3.3887,-3.3839,-3.3633,-3.3521,-3.3409,-3.331,-3.3137,-3.2961,-3.2916,-3.2755,-3.2801,-3.3177,-3.3001,-3.259,-3.2325,-3.2009,-3.1727,-3.5651,-3.5581,-3.5469,-3.458,-3.3225,-3.2996,-3.2396,-3.1496,-3.0769,-3.0417,-3.031,-3.031,-3.0316,-3.0334,-3.0449,-3.053,-3.0602,-3.0601,-3.0604,-3.0606,-3.0489,-3.054,-3.07,-3.0582,-3.0591,-3.07,-3.07,-3.0734,-3.0799,-3.0786,-3.0785,-3.0798,-3.0791,-3.0798,-3.0801,-3.0795,-3.0752,-3.0648,-3.1421,-3.1435,-3.0669,-3.1435,-3.1537,-3.0895,-3.0779,-3.0766,-3.0878,-3.0766,-3.0733,-3.0803,-3.0731,-3.0703,-3.0703,-3.0698,-3.0325,0.0,-2.9443,0.0,0.0,0.0,0.0,0.0,0.0,0.0,0.0,-3.0754,-3.0647,-3.1371,-3.208,-3.2496,-3.2543,-3.2552,-3.2824,-3.3496,-3.3579,-3.3821,-3.4453,-3.4443,-3.4386,-3.4328,-3.4209,-3.4136,-3.4148,-3.4105,-3.4049,-3.4036,-3.4005,-3.3972,-3.3873,-3.3834,-3.382,-3.3807,-3.382,-3.3847,-3.3895,-3.3972,-3.3979,-3.3947,-3.3952,-3.3923,-3.3703,-3.3621,-3.3546,-3.3355,-3.3211,-3.3088,-3.293,-3.287,-3.2952,-3.3436,-3.33,-3.3095,-3.3045,-3.2602,-3.2018,-3.5662,-3.5532,-3.4838,-3.4324,-3.3883,-3.2479,-3.1409,-3.0633,-3.0432,-3.0317,-3.031,-3.0348,-3.0389,-3.0458,-3.0479,-3.0545,-3.061,-3.0612,-3.061,-3.0586,-2.9927,-3.0021,-3.0622,-2.9989,-3.001,-3.0678,-3.0694,-3.0731,-3.0789,-3.0793,-3.079,-3.0785,-3.0799,-3.079,-3.0798,0.0,0.0,0.0,-3.0587,-3.0619,-2.9805,-3.058,-3.1273,-3.1727,-3.1123,0.0,-3.1688,-3.1073,-3.0725,-3.0784,-3.0731,0.0,0.0,0.0,0.0,0.0,0.0,0.0,0.0,0.0,0.0,0.0,-3.0902,-3.133,-3.1481,-3.1907,-3.2511,-3.3213,-3.3432,-3.3759,-3.431,-3.4395,-3.4432,-3.4504,-3.4471,-3.4515,-3.4655,-3.455,-3.4473,-3.4461,-3.4386,-3.434,-3.4328,-3.4328,-3.4281,-3.4166,-3.4142,-3.4111,-3.4004,-3.3921,-3.3855,-3.3815,-3.386,-3.3895,-3.3954,-3.4036,-3.4099,-3.4124,-3.4049,-3.3978,-3.386,-3.3744,-3.3623,-3.3462,-3.3367,-3.3196,-3.3052,-3.2916,-3.2909,-3.3611,-3.3136,-3.2915,-3.3756,-3.3793,-3.3626,-3.5572,0.0,-3.5079,-3.4385,0.0,-3.2576,-3.1475,-3.0305,-3.0292,-3.0273,-3.0248,-3.0286,-3.0343,-3.0377,-3.0018,-2.9877,-2.9887,-2.9491,-2.9315,-2.9283,-2.8923,-2.8974,-2.9389,-2.8965,-2.899,-2.9402,-2.944,-2.9713,-3.0124,-2.9715,-2.973,-3.0154,-3.0186,-3.0216,-3.0205,-3.0623,-3.0622,-3.0141,-3.0568,-3.0574,-3.0178,-3.0567,-3.1011,-3.1387,0.0,0.0,0.0,0.0,0.0,0.0,0.0,0.0,0.0,0.0,0.0,-3.013,-3.0492,-3.0513,-3.0111,-3.0423,-3.0642,-3.0672,-3.1758,-3.2386,-3.2206,-3.3329,-3.3991,-3.3925,-3.4219,-3.4598,-3.4936,-3.4946,-3.4888,-3.482,-3.4769,-3.4747,-3.4747,-3.4687,-3.4634,-3.4602,-3.4539,-3.4484,-3.4461,-3.4427,-3.4363,-3.4305,-3.4269,-3.4233,-3.4148,-3.3992,-3.3868,-3.382,-3.3873,-3.3939,-3.3967,-3.4061,-3.4124,-3.4173,-3.4148,-3.4049,-3.3921,-3.3852,-3.3748,-3.3559,-3.3129,-3.2726,-3.2601,-3.2166,-3.1954,-3.2498,-3.2301,-3.2428,-3.353,-3.3695,-3.3544,-3.5469,-3.5441,-3.5306,-3.4351,-3.2864,-3.2642,-3.1649,-3.0207,0.0,0.0,0.0,-3.0061,-3.003,-3.0017,-2.9294,-2.8988,-2.8927,-2.8313,-2.7987,-2.7995,-2.7915,-2.7962,-2.8082,-2.7926,-2.7935,-2.8107,-2.8164,-2.8574,-2.9243,-2.8697,-2.8712,-2.9271,-2.9635,-2.9761,-2.9673,-3.0408,-3.0741,-3.0611,-3.0725,-3.0722,-3.0592,-3.0709,-3.0799,-3.0789,-3.0791,-3.0795,-3.0786,-3.0788,-3.0794,-3.0786,-3.0794,-3.0794,-3.0784,-3.0798,-3.0791,-3.0784,-3.075,-3.0731,-3.0713,-3.0727,-3.0769,-3.0901,-3.2119,-3.3023,-3.3319,-3.4628,-3.5091,-3.4308,-3.4797,-3.5132,-3.5101,-3.5001,-3.4898,-3.4822,-3.482,-3.4827,-3.4819,-3.4798,-3.4768,-3.4727,-3.4655,-3.4583,-3.4539,-3.4514,-3.4431,-3.442,-3.4416,-3.434,-3.43,-3.4099,-3.3921,-3.3873,-3.3926,-3.3959,-3.4011,-3.4086,-3.4117,-3.4185,-3.4197,-3.4136,-3.3972,-3.3905,-3.383,-3.3661,-3.2942,-3.2484,-3.2144,-3.1603,-3.1073,-3.1372,-3.1467,-3.1769,-3.2803,-3.3001,-3.295,-3.5364,-3.5285,-3.4582,-3.3738,-3.2766,-3.1941,-3.1052,-3.0218,-3.0207,-3.0219,-3.0161,-2.9455,-2.9193,-2.9223,-2.8442,-2.8115,-2.8154,-2.8048,-2.7989,0.0,-2.7299,-2.7381,-2.8043,-2.7329,-2.7385,-2.8067,-2.8155,-2.8257,-2.8449,-2.9002,-2.902,-2.8642,-2.9887,-3.0271,-2.9715,-3.0465,-3.0508,-2.9821,-3.047,-3.043,-2.9708,-3.0408,-3.0791,-3.0801,-3.0793,-3.08,-3.0798,-3.0792,-3.0798,-3.0796,-3.0798,-3.0798,-3.0798,-3.0803,-3.0799,-3.0802,-3.0786,-3.0784,-3.0791,-3.0799,-3.1062,-3.1658,-3.1957,-3.2938,-3.5019,-3.538,-3.5405,-3.5206,-3.522,-3.5223,-3.5119,-3.5073,-3.5,-3.4964,-3.4898,-3.4878,-3.486,-3.484,-3.478,-3.4732,-3.4718,-3.4687,-3.4676,-3.4666,-3.4634,-3.4583,-3.4583,-3.4569,-3.4358,-3.4173,-3.4043,-3.3998,-3.4036,-3.4074,-3.4105,-3.4148,-3.4197,-3.4216,-3.4209,-3.4173,-3.4023,-3.393,-3.3852,-3.3707,-3.3286,-3.2897,-3.2248,-3.2058,-3.1402,-3.0941,-3.1035,-3.1504,-3.1705,-3.2018,-3.2703,-3.5326,-3.525,-3.486,-3.396,-3.2699,-3.1322,-3.0534,-3.0157,-3.0145,-3.0159,-3.0154,-2.9805,-2.9443,-2.8988,-2.8211,-2.7642,-2.7276,-2.6807,-2.6612,-2.6617,-2.6266,-2.6289,-2.6633,-2.6294,-2.6353,-2.6695,-2.6773,-2.7285,-2.8137,-2.814,-2.8351,-2.8891,-2.9725,-3.0146,-3.0274,-3.0653,-3.0659,-3.0273,-3.0616,-3.0614,-3.0246,-3.0589,-3.0795,-3.0801,-3.0802,-3.079,-3.079,-3.0785,-3.0791,-3.0788,-3.0789,-3.0791,-3.0786,-3.0791,-3.0789,-3.0801,-3.0799,-3.0794,-3.0802,-3.0789,-3.1117,-3.1877,-3.1918,-3.2561,-3.4147,-3.4243,-3.4364,-3.4757,-3.4744,-3.488,-3.5239,-3.4848,-3.4716,-3.5079,-3.4666,-3.4328,-3.4357,-3.469,-3.4718,-3.4349,-3.4556,-3.4801,-3.4801,-3.4781,-3.4732,-3.4711,-3.4749,-3.4658,-3.4476,-3.4413,-3.4286,-3.4092,-3.4086,-3.413,-3.4161,-3.4245,-3.4311,-3.4305,-3.4305,-3.4245,-3.4099,-3.3833,-3.3426,-3.3176,-3.2515,-3.166,-3.1117,-3.0554,-3.004,-2.9705,-2.9625,-2.9875,-3.0189,-3.1006,-3.202,-3.5231,-3.5203,-3.5166,-3.4219,-3.2629,-3.0911,-3.015,-3.0082,-3.0094,-3.0128,-3.0164,-2.9999,-2.9563,-2.8932,-2.8163,-2.7399,-2.666,-2.5983,-2.5715,-2.5774,-2.5778,-2.5898,-2.6064,-2.5941,-2.5845,-2.5819,-2.5857,-2.6604,-2.7731,-2.7605,-2.8266,-2.9632,-2.9583,-2.9847,-3.0521,-3.0722,-3.0731,-3.0543,-3.072,-3.0822,-3.0788,-3.0799,-3.0788,-3.0798,-3.0796,-3.0785,-3.0783,-3.0795,-3.0799,-3.0795,-3.0799,-3.0799,-3.0795,-3.0794,-3.0794,-3.0792,-3.0786,-3.0798,-3.0786,-3.0798,-3.1055,-3.1638,-3.1657,-3.1903,-3.2538,-3.2571,-3.297,-3.3837,-3.4165,-3.4443,-3.4743,-3.4683,-3.4491,-3.4657,-3.444,-3.4173,-3.3968,-3.4533,-3.4783,-3.4205,-3.4405,-3.4661,-3.4841,-3.4699,-3.4529,-3.4519,-3.4566,-3.4469,-3.4187,-3.4141,-3.4022,-3.402,-3.4079,-3.4239,-3.4257,-3.4316,-3.43,-3.4199,-3.4106,-3.388,-3.3613,-3.3057,-3.2739,-3.2459,-3.1538,-3.0711,-3.0198,-2.96,-2.9054,-2.8781,-2.8671,-2.8662,-2.9272,-3.0041,-3.1049,-3.4992,-3.4936,-3.4992,-3.4094,-3.2503,-3.0822,-3.0098,-3.0094,-3.0091,-3.0083,-3.0053,-2.9339,-2.9051,-2.8887,-2.8176,-2.7415,-2.6674,-2.6587,-2.658,-2.6608,-2.6649,-2.709,-2.7652,-2.705,-2.6683,-2.6667,-2.6737,-2.6896,-2.7242,-2.8559,-2.9727,-3.049,-2.9897,-2.9596,-2.9822,-3.0512,-3.0518,-2.9762,-3.0488,-3.0857,-3.0809,-3.0788,-3.0801,-3.0789,-3.0795,-3.0796,-3.0792,-3.0798,-3.08,-3.08,-3.08,-3.08,-3.08,-3.08,-3.0798,-3.0794,-3.0792,-3.0788,-3.0798,-3.0796,-3.0802,-3.0808,-3.0845,-3.0892,-3.0998,-3.092,-3.1516,-3.2868,-3.3822,-3.3858,-3.3346,-3.4308,-3.4441,-3.3419,-3.4137,-3.4824,-3.4102,-3.4645,-3.5063,-3.5003,-3.4172,-3.41,-3.4603,-3.4214,-3.3825,-3.3854,-3.3864,-3.361,-3.2949,-3.2892,-3.3089,-3.3425,-3.3963,-3.4375,-3.4397,-3.4374,-3.408,-3.3527,-3.3329,-3.3053,-3.2531,-3.2147,-3.1874,-3.173,-3.1439,-3.0821,-3.0296,-2.9936,-2.9564,-2.882,-2.8585,-2.8609,-2.9045,-2.939,-2.996,-3.4927,-3.4908,-3.4879,-3.3932,-3.2312,-3.0728,-3.0014,-2.9991,-3.0022,-3.0038,-3.0,-2.9692,-2.9325,-2.8944,-2.8626,-2.8067,-2.7344,-2.7373,-2.7407,-2.7426,-2.7488,-2.7706,-2.7969,-2.7725,-2.732,-2.6905,-2.7375,-2.7668,-2.7971,-2.9383,-3.0416,-3.0728,-3.0421,-3.0273,-3.0349,-3.0647,-3.0656,-3.0317,-3.0654,-3.0857,-3.0859,-3.0815,-3.0786,-3.0799,-3.0799,-3.0801,-3.0784,-3.0786,-3.0827,-3.0869,-3.085,-3.085,-3.087,-3.0866,-3.0864,-3.0862,-3.0816,-3.0791,-3.0788,-3.0801,-3.0794,-3.0761,-3.0714,-3.0709,-3.0707,-3.063,-3.0918,-3.155,-3.2357,-3.2817,-3.2976,-3.3188,-3.3145,-3.2897,-3.3049,-3.2957,-3.2589,-3.3635,-3.4083,-3.3164,-3.3465,-3.3707,-3.3623,-3.3301,-3.3058,-3.3044,-3.3044,-3.2847,-3.2437,-3.2806,-3.3233,-3.3459,-3.3786,-3.4091,-3.4333,-3.4056,-3.3671,-3.3294,-3.2852,-3.2334,-3.1968,-3.1413,-3.1117,-3.101,-3.0646,-3.0226,-2.9646,-2.9494,-2.9265,-2.8792,-2.8562,-2.8492,-2.855,-2.8919,-2.9449,-3.484,-3.4726,-3.43,-3.327,-3.1901,-3.0541,-2.9951,-2.9926,-2.9948,-2.9972,-2.9972,-2.998,-2.9711,-2.927,-2.9268,-2.8855,-2.8171,-2.8195,-2.8219,-2.8245,-2.8308,-2.8367,-2.8363,-2.8408,-2.7849,-2.708,-2.7738,-2.8304,-2.8685,-2.9958,-3.0734,-3.0791,-3.0791,-3.0801,-3.08,-3.0784,-3.0796,-3.0792,-3.0798,-3.0827,-3.0877,-3.0859,-3.0834,-3.0828,-3.0827,-3.0828,-3.0811,-3.0831,-3.0853,-3.0894,-3.0914,-3.0914,-3.0914,-3.0911,-3.0909,-3.0907,-3.0841,-3.0792,-3.0789,-3.0785,-3.0801,-3.0792,-3.0752,-3.0735,-3.072,-3.0669,-3.0638,-3.0711,-3.1161,-3.1777,-3.2192,-3.225,-3.2262,-3.2297,-3.1965,-3.1904,-3.1757,-3.2845,-3.3184,-3.2147,-3.2679,-3.3051,-3.2558,-3.2508,-3.2659,-3.2613,-3.2412,-3.2224,-3.211,-3.2395,-3.2669,-3.2892,-3.2893,-3.326,-3.3997,-3.3561,-3.3118,-3.2589,-3.2044,-3.1618,-3.1358,-3.0684,-3.0325,-3.0145,-2.9593,-2.9343,-2.9318,-2.9136,-2.8977,-2.8779,-2.8574,-2.8367,-2.8257,-2.8642,-2.8831,-3.4676,-3.4371,-3.2973,-3.1968,-3.1176,-3.028,-2.9934,-2.9956,-2.9932,-2.9916,-2.9924,-2.9964,-2.9969,-2.9908,-2.9939,-2.9606,-2.894,-2.8982,-2.9037,-2.9054,-2.9177,-2.924,-2.9248,-2.9227,-2.8408,-2.718,-2.7938,-2.8683,-2.9449,-3.0272,-3.0751,-3.0786,-3.0794,-3.0786,-3.08,-3.079,-3.0801,-3.0791,-3.0796,-3.0846,-3.0894,-3.0877,-3.0879,-3.0877,-3.0897,-3.0896,-3.0895,-3.0894,-3.0894,-3.0895,-3.0914,-3.0914,-3.0914,-3.0914,-3.0912,-3.0908,-3.0823,-3.0795,-3.0783,-3.0788,-3.0785,-3.0788,-3.0802,-3.0795,-3.0784,-3.0712,-3.0695,-3.0704,-3.0715,-3.0817,-3.1009,-3.1947,-3.2116,-3.1115,-3.2058,-3.2306,-3.1802,-3.2359,-3.2884,-3.2558,-3.2107,-3.1872,-3.1663,-3.2241,-3.2508,-3.2365,-3.1916,-3.1405,-3.1235,-3.0761,-3.0886,-3.1299,-3.1494,-3.1695,-3.3031,-3.2784,-3.1955,-3.1513,-3.1219,-3.0683,-3.0055,-2.9557,-2.9506,-2.9452,-2.9392,-2.928,-2.9163,-2.9051,-2.8947,-2.8773,-2.8625,-2.8419,-2.8246,-2.8209,-2.8332,-3.4304,-3.3719,-3.2603,-3.1713,-3.0951,-3.013,-2.9798,-2.9813,-2.9866,-2.9901,-2.991,-2.9924,-2.994,-2.994,-2.9953,-2.9867,-2.9679,-2.9767,-2.98,-2.9813,-2.9948,-3.0039,-3.0066,-3.0066,-2.9504,-2.8698,-2.9334,-2.9926,-3.0222,-3.0584,-3.0713,-3.0731,-3.0784,-3.0796,-3.0789,-3.0793,-3.0802,-3.0792,-3.0796,-3.0809,-3.0846,-3.0828,-3.0854,-3.0898,-3.0918,-3.0918,-3.0917,-3.0917,-3.0917,-3.0917,-3.0918,-3.0917,-3.0917,-3.0916,-3.0914,-3.0909,-3.0866,-3.0842,-3.081,-3.0791,-3.0791,-3.0785,-3.0796,-3.079,-3.0782,-3.074,-3.0706,-3.0698,-3.0672,-3.0633,-3.0681,-3.1177,-3.1246,-3.0801,-3.1032,-3.1369,-3.1174,-3.1594,-3.1891,-3.1462,-3.1322,-3.1522,-3.1482,-3.1747,-3.1901,-3.1768,-3.1112,-3.0655,-3.0565,-3.0587,-3.0864,-3.1088,-3.1178,-3.1322,-3.1731,-3.1676,-3.1185,-3.0874,-3.0526,-3.0121,-2.9558,-2.948,-2.9446,-2.9427,-2.9368,-2.9334,-2.9229,-2.9108,-2.8964,-2.8822,-2.8644,-2.8497,-2.834,-2.8277,-2.8209,-3.4111,-3.3314,-3.2461,-3.1664,-3.0866,-3.0048,-2.9717,-2.9754,-2.9851,-2.9904,-2.9912,-2.991,-2.9899,-2.9907,-2.9907,-2.994,-3.0038,-3.0099,-3.0168,-3.0194,-3.0299,-3.0256,-3.004,-3.0055,-2.9656,-2.9107,-2.9838,-3.0277,-3.0314,-3.0581,-3.0698,-3.0713,-3.0751,-3.0784,-3.0794,-3.0796,-3.0789,-3.0782,-3.0788,-3.082,-3.0841,-3.0823,-3.0868,-3.0896,-3.0917,-3.0918,-3.0918,-3.0918,-3.0918,-3.0918,-3.0918,-3.0918,-3.0918,-3.0917,-3.0914,-3.0911,-3.0908,-3.0865,-3.0817,-3.0795,-3.0794,-3.0792,-3.0788,-3.0783,-3.0801,-3.0778,-3.0714,-3.0706,-3.0707,-3.0688,-3.0637,-3.0643,-3.0592,-3.055,-3.0525,-3.054,-3.054,-3.097,-3.0933,-3.0642,-3.0797,-3.1039,-3.1094,-3.1066,-3.1183,-3.1337,-3.0662,-3.0167,-3.0467,-3.0595,-3.0864,-3.0795,-3.0722,-3.0686,-3.0841,-3.0714,-3.0622,-3.0359,-3.0226,-2.9756,-2.9521,-2.946,-2.9419,-2.9392,-2.939,-2.9357,-2.9302,-2.9163,-2.901,-2.887,-2.87,-2.8536,-2.8437,-2.8331,-2.8277,-3.406,-3.3333,-3.248,-3.1749,-3.1036,-3.0189,-2.9783,-2.9893,-2.987,-2.9887,-2.9876,-2.9904,-2.9893,-2.9899,-2.9901,-2.991,-2.994,-3.0057,-3.0113,-3.0106,-3.0241,-2.9896,-2.9289,-2.9418,-2.912,-2.8443,-2.9086,-2.9509,-2.9648,-3.0334,-3.0704,-3.0695,-3.0716,-3.0734,-3.0786,-3.0796,-3.0793,-3.079,-3.0794,-3.0828,-3.0886,-3.0886,-3.0889,-3.0894,-3.0914,-3.0916,-3.0918,-3.0918,-3.0918,-3.0918,-3.0918,-3.0918,-3.0917,-3.0916,-3.0914,-3.0913,-3.0911,-3.0866,-3.0803,-3.08,-3.0798,-3.0795,-3.0792,-3.0792,-3.0789,-3.0794,-3.0774,-3.0733,-3.07,-3.0701,-3.0672,-3.0645,-3.0617,-3.0604,-3.0591,-3.0591,-3.0582,-3.055,-3.0455,-3.039,-3.0522,-3.0343,-3.0284,-3.0505,-3.0796,-3.1115,-3.0673,-3.0289,-3.0695,-3.0508,-3.0078,-3.0018,-3.0305,-3.0579,-3.0215,-2.9861,-2.9885,-2.9869,-2.9833,-2.9626,-2.9578,-2.952,-2.9441,-2.9412,-2.9409,-2.9386,-2.9312,-2.9186,-2.9067,-2.8917,-2.8761,-2.8625,-2.8523,-2.8432,-2.834,-3.4005,-3.3337,-3.3026,-3.2468,-3.1692,-3.0866,-3.0556,-3.0527,-3.0045,-2.978,-2.9825,-2.9825,-2.9815,-2.9832,-2.9868,-2.9912,-2.991,-2.9999,-3.0038,-3.0053,-3.013,-3.0054,-2.9864,-2.9902,-2.9875,-2.9796,-3.0044,-3.0233,-3.0273,-3.0556,-3.0694,-3.0704,-3.0707,-3.0731,-3.0784,-3.0789,-3.0799,-3.0793,-3.0802,-3.0796,-3.083,-3.0836,-3.0843,-3.0889,-3.091,-3.0913,-3.0916,-3.0916,-3.0916,-3.0916,-3.0916,-3.0917,-3.0918,-3.0918,-3.0917,-3.0916,-3.0914,-3.0891,-3.0866,-3.0823,-3.08,-3.0799,-3.0798,-3.0796,-3.0792,-3.0803,-3.079,-3.0761,-3.0755,-3.0742,-3.072,-3.0701,-3.0668,-3.0608,-3.0608,-3.0613,-3.0604,-3.0582,-3.0525,-3.0537,-3.0906,-3.1199,-3.1149,-3.109,-3.1054,-3.1176,-3.0619,-3.0296,-3.0335,-3.0258,-2.9991,-2.9924,-3.0311,-3.0595,-3.0383,-3.0368,-3.0541,-3.0413,-3.0208,-3.0189,-3.0039,-2.9923,-2.978,-2.9516,-2.9494,-2.9386,-2.9312,-2.9207,-2.9119,-2.901,-2.887,-2.8761,-2.8662,-2.8531,-2.8414,-3.4106,-3.3694,-3.3384,-3.3005,-3.242,-3.137,-3.0893,-3.0838,-3.0057,-2.9717,-2.9763,-2.9782,-2.9771,-2.9789,-2.9842,-2.9887,-2.9912,-2.9932,-2.9956,-2.998,-3.0045,-3.013,-3.018,-3.0247,-3.0142,-3.0128,-3.0385,-3.058,-3.0606,-3.0668,-3.0694,-3.0697,-3.0698,-3.0719,-3.0756,-3.0784,-3.0791,-3.0789,-3.0798,-3.079,-3.0803,-3.0791,-3.0817,-3.0864,-3.0846,-3.0888,-3.0911,-3.0912,-3.0913,-3.0915,-3.0916,-3.0917,-3.0917,-3.0918,-3.0917,-3.0916,-3.0915,-3.0914,-3.0912,-3.0848,-3.0844,-3.0844,-3.0821,-3.0799,-3.0795,-3.0789,-3.0785,-3.0801,-3.08,-3.0796,-3.0747,-3.0751,-3.0698,-3.0653,-3.0641,-3.0629,-3.0613,-3.0608,-3.0586,-3.0612,-3.09,-3.1174,-3.1174,-3.1136,-3.1071,-3.0882,-3.0496,-3.0109,-3.0098,-3.0046,-2.998,-2.9986,-3.0205,-3.0444,-3.0635,-3.0875,-3.1228,-3.1072,-3.0829,-3.0932,-3.095,-3.0897,-3.0777,-3.0085,-2.9849,-2.9465,-2.9336,-2.9251,-2.9163,-2.9055,-2.8987,-2.8846,-2.8706,-2.8569,-2.8453,-3.4328,-3.4292,-3.3534,-3.3212,-3.3005,-3.1526,-3.0844,-3.0772,-3.0048,-2.9699,-2.9699,-2.9699,-2.9726,-2.978,-2.9808,-2.9834,-2.9885,-2.9899,-2.9897,-2.9956,-3.0042,-3.0101,-3.0154,-3.0246,-3.004,-2.9683,-3.0182,-3.0515,-3.0589,-3.0657,-3.0687,-3.068,-3.0697,-3.0701,-3.0719,-3.0756,-3.0794,-3.0793,-3.08,-3.0792,-3.0788,-3.0792,-3.0795,-3.082,-3.0821,-3.0844,-3.0887,-3.0909,-3.0912,-3.0916,-3.0918,-3.0918,-3.0918,-3.0917,-3.0917,-3.0917,-3.0916,-3.0916,-3.0916,-3.0892,-3.0889,-3.0906,-3.0844,-3.08,-3.0799,-3.0795,-3.0792,-3.0792,-3.0796,-3.0741,-3.0681,-3.0765,-3.0698,-3.0601,-3.0618,-3.0649,-3.061,-3.061,-3.0597,-3.0548,-3.052,-3.0506,-3.056,-3.0518,-3.0432,-3.033,-3.0237,-3.0171,-3.0101,-3.0049,-3.0003,-3.0102,-3.0276,-3.0563,-3.0839,-3.1297,-3.1622,-3.1646,-3.1356,-3.1261,-3.1157,-3.1048,-3.0926,-3.0327,-2.9934,-2.9587,-2.9378,-2.9283,-2.924,-2.9167,-2.9067,-2.8917,-2.8767,-2.8657,-2.8518,-3.4257,-3.4242,-3.3459,-3.3198,-3.305,-3.1517,-3.0835,-3.0799,-3.0049,-2.9692,-2.9692,-2.9692,-2.9719,-2.9726,-2.9799,-2.9853,-2.9904,-2.9899,-2.9916,-2.9932,-3.0046,-3.0121,-3.0178,-3.026,-3.0238,-3.012,-3.0326,-3.0516,-3.053,-3.0589,-3.064,-3.0619,-3.0677,-3.069,-3.0717,-3.0719,-3.0762,-3.0784,-3.0798,-3.0802,-3.0792,-3.0786,-3.0794,-3.0795,-3.0799,-3.0801,-3.0844,-3.087,-3.0913,-3.0915,-3.0917,-3.0917,-3.0917,-3.0918,-3.0918,-3.0918,-3.0917,-3.0916,-3.0916,-3.0914,-3.0911,-3.0889,-3.0887,-3.0864,-3.0801,-3.0796,-3.0795,-3.0795,-3.0785,-3.0501,-3.0108,-3.0364,-3.0392,-2.9956,-3.0175,-3.0564,-3.0614,-3.0684,-3.0672,-3.0642,-3.0586,-3.0552,-3.0487,-3.0416,-3.0346,-3.0254,-3.02,-3.0173,-3.0123,-3.0087,-3.0049,-3.0289,-3.051,-3.0801,-3.1165,-3.1634,-3.197,-3.2098,-3.1788,-3.1271,-3.0829,-3.0244,-3.0022,-2.9634,-2.9671,-2.9427,-2.9368,-2.9334,-2.9294,-2.9243,-2.9134,-2.8987,-2.8893,-2.8767,-2.8632,-3.4197,-3.4201,-3.3383,-3.3135,-3.3036,-3.1458,-3.0816,-3.0715,-3.0077,-2.9701,-2.9692,-2.9692,-2.97,-2.9708,-2.9798,-2.9878,-2.9912,-2.9943,-2.9948,-2.9964,-3.0061,-3.0142,-3.0187,-3.0241,-3.0298,-3.0364,-3.0419,-3.0476,-3.0506,-3.0558,-3.0595,-3.06,-3.0649,-3.0665,-3.0704,-3.0704,-3.0725,-3.0791,-3.0786,-3.0793,-3.0802,-3.0794,-3.0786,-3.0791,-3.0796,-3.08,-3.0848,-3.0893,-3.0896,-3.0916,-3.0917,-3.0917,-3.0917,-3.0918,-3.0918,-3.0918,-3.0918,-3.0917,-3.0917,-3.0916,-3.0914,-3.0913,-3.0912,-3.0889,-3.0845,-3.0822,-3.0782,-3.0312,-3.0325,-2.9853,-2.9281,-2.9437,-2.9406,-2.9063,-2.9314,-2.9756,-3.0087,-3.0471,-3.0656,-3.0672,-3.0665,-3.0603,-3.0563,-3.0501,-3.0403,-3.0317,-3.0254,-3.0226,-3.0171,-3.0123,-3.0121,-3.0315,-3.0369,-3.0529,-3.0584,-3.0932,-3.1126,-3.1369,-3.14,-3.1005,-3.081,-3.002,-2.9969,-2.9851,-2.9597,-2.9399,-2.9368,-2.9355,-2.9312,-2.9251,-2.9163,-2.9067,-2.8964,-2.887,-2.8737,-3.4099,-3.3993,-3.3206,-3.2922,-3.2627,-3.1267,-3.059,-3.0583,-3.0002,-2.9701,-2.9692,-2.969,-2.9717,-2.9726,-2.9842,-2.9912,-2.9937,-2.9975,-2.9988,-3.0019,-3.0079,-3.0164,-3.02,-3.0227,-3.0273,-3.0316,-3.0389,-3.0433,-3.0481,-3.0549,-3.0585,-3.058,-3.0589,-3.0626,-3.068,-3.0704,-3.0733,-3.0781,-3.0796,-3.0786,-3.0737,-3.0628,-3.0501,-3.0495,-3.0522,-3.0551,-3.0618,-3.068,-3.0701,-3.0741,-3.084,-3.0917,-3.0917,-3.0918,-3.0918,-3.0918,-3.0918,-3.0918,-3.0918,-3.0917,-3.0916,-3.0915,-3.0914,-3.0892,-3.0849,-3.0731,-3.0359,-2.9807,-2.9535,-2.9122,-2.8589,-2.8273,-2.813,-2.8087,-2.8109,-2.8517,-2.9055,-2.9893,-3.0447,-3.056,-3.054,-3.0529,-3.0606,-3.0563,-3.0482,-3.0371,-3.0317,-3.0267,-3.0207,-3.0159,-3.0138,-3.0173,-3.0163,-3.0087,-3.0087,-3.0097,-3.017,-3.028,-3.037,-3.0345,-3.0857,-3.0499,-3.0458,-3.0285,-2.9663,-2.9399,-2.9388,-2.9347,-2.9334,-2.9262,-2.9197,-2.9108,-2.9005,-2.8905,-2.8785,-3.3777,-3.3187,-3.2471,-3.177,-3.1125,-3.0242,-2.9907,-2.9945,-2.9777,-2.9692,-2.9701,-2.969,-2.9753,-2.9859,-2.9876,-2.9953,-3.0033,-3.0022,-3.0019,-3.0079,-3.015,-3.0192,-3.0214,-3.0241,-3.0286,-3.0329,-3.0369,-3.0406,-3.0428,-3.0486,-3.0516,-3.055,-3.0582,-3.0617,-3.0622,-3.0671,-3.0704,-3.0728,-3.0769,-3.0784,-3.0555,-3.0135,-2.9872,-2.9865,-2.9935,-2.9909,-2.9876,-2.9876,-2.9879,-3.0019,-3.0429,-3.0721,-3.0878,-3.0917,-3.0917,-3.0918,-3.0918,-3.0917,-3.0917,-3.0917,-3.0915,-3.0912,-3.0836,-3.0874,-3.0785,-3.0187,-2.9854,-2.9459,-2.9009,-2.848,-2.8101,-2.7555,-2.726,-2.7255,-2.7607,-2.7783,-2.7639,-2.8177,-2.9011,-2.9563,-2.9761,-2.9908,-3.0509,-3.0595,-3.0521,-3.0428,-3.0371,-3.031,-3.0267,-3.0194,-3.0185,-3.0164,-3.0142,-3.0087,-3.0034,-2.9988,-2.9932,-2.991,-2.9876,-2.9853,-3.0367,-3.0443,-3.0215,-2.992,-2.9549,-2.9417,-2.9388,-2.9378,-2.9365,-2.9283,-2.9229,-2.9152,-2.9044,-2.8952,-2.8858,-3.3272,-3.2843,-3.179,-3.1102,-3.0613,-2.9934,-2.9636,-2.9683,-2.9692,-2.9701,-2.9719,-2.9763,-2.9842,-2.9904,-2.9926,-2.9991,-3.0038,-3.0061,-3.0072,-3.015,-3.0192,-3.0219,-3.0221,-3.0248,-3.0305,-3.0298,-3.0328,-3.0352,-3.0406,-3.0474,-3.052,-3.0559,-3.0583,-3.061,-3.0617,-3.0676,-3.0698,-3.0725,-3.0755,-3.0635,-3.0135,-2.977,-2.9503,-2.9647,-2.9857,-3.0025,-2.9677,-2.962,-2.9389,-2.9217,-2.9431,-3.0115,-3.0761,-3.0898,-3.0898,-3.0918,-3.0917,-3.0916,-3.0916,-3.0916,-3.0914,-3.0853,-3.0543,-3.0327,-3.0069,-2.9484,-2.88,-2.8406,-2.7935,-2.7562,-2.7126,-2.6744,-2.6353,-2.6349,-2.6668,-2.6698,-2.6557,-2.731,-2.8433,-2.9136,-2.9438,-2.9893,-3.03,-3.0492,-3.0568,-3.0471,-3.0377,-3.031,-3.0292,-3.0226,-3.0199,-3.0197,-3.0164,-3.0135,-3.0072,-3.0011,-2.9921,-2.9907,-2.9893,-2.9851,-3.0008,-2.9889,-2.9673,-2.952,-2.9429,-2.9409,-2.9399,-2.9388,-2.9396,-2.9355,-2.9283,-2.9207,-2.9112,-2.9062,-2.897,-3.2606,-3.2455,-3.1202,-3.0626,-3.0445,-2.9859,-2.9636,-2.9692,-2.969,-2.9708,-2.9735,-2.9851,-2.9885,-2.991,-2.9983,-3.0014,-3.0026,-3.0079,-3.015,-3.0197,-3.0213,-3.0207,-3.0208,-3.0254,-3.017,-3.0171,-3.0278,-3.0333,-3.0411,-3.0465,-3.052,-3.0583,-3.0617,-3.0616,-3.0628,-3.0653,-3.0694,-3.0704,-3.0742,-3.0531,-2.9918,-2.965,-2.9519,-2.9626,-2.9985,-3.0094,-2.9629,-2.9379,-2.9032,-2.8355,-2.8175,-2.898,-2.9999,-3.0508,-3.0508,-3.0449,-3.0292,-3.0232,-3.0174,-3.0309,-3.0327,-3.0484,-2.9859,-2.9448,-2.9232,-2.8645,-2.7922,-2.7373,-2.694,-2.6567,-2.5824,-2.5815,-2.5782,-2.5707,-2.5648,-2.56,-2.5849,-2.6913,-2.7812,-2.8616,-2.8888,-2.9326,-2.9994,-3.0423,-3.0481,-3.0506,-3.0417,-3.0336,-3.0299,-3.0157,-3.008,-2.9963,-2.9884,-3.0035,-3.003,-3.0068,-2.9972,-2.9916,-2.991,-2.9851,-2.978,-2.9729,-2.9626,-2.9511,-2.9433,-2.9411,-2.939,-2.9388,-2.9378,-2.9386,-2.9344,-2.924,-2.9186,-2.9141,-2.9051,-3.1483,-3.0965,-3.0778,-3.0319,-2.9735,-2.9616,-2.9636,-2.969,-2.9708,-2.9745,-2.9789,-2.9847,-2.9907,-2.9932,-3.0022,-3.0076,-3.0087,-3.015,-3.0197,-3.0218,-3.02,-3.0195,-3.0107,-3.0088,-2.987,-2.9656,-2.9838,-3.0163,-3.0329,-3.0474,-3.0414,-3.0506,-3.0564,-3.0592,-3.0615,-3.0629,-3.0657,-3.069,-3.0707,-3.0536,-3.0219,-2.9783,-2.9505,-2.9537,-2.9856,-2.9728,-2.9404,-2.8856,-2.8433,-2.8249,-2.7599,-2.784,-2.8473,-2.8728,-2.8787,-2.8945,-2.8984,-2.906,-2.9021,-2.8863,-2.8781,-2.87,-2.8606,-2.8528,-2.833,-2.7765,-2.7141,-2.6902,-2.6392,-2.5923,-2.5746,-2.5819,-2.5754,-2.5702,-2.5642,-2.5615,-2.5695,-2.6021,-2.6615,-2.7472,-2.8027,-2.8834,-2.9734,-3.0404,-3.0509,-3.055,-3.0519,-3.0389,-3.0317,-3.0049,-2.9736,-2.9633,-2.9509,-2.9737,-2.9956,-3.0034,-3.0057,-2.9959,-2.991,-2.9834,-2.9773,-2.9738,-2.9655,-2.954,-2.9453,-2.9412,-2.9411,-2.938,-2.9378,-2.9376,-2.9323,-2.928,-2.9197,-2.9141,-2.9062,-3.0846,-3.0524,-3.0172,-2.9834,-2.9558,-2.9617,-2.9673,-2.9717,-2.978,-2.9834,-2.9859,-2.9891,-2.9932,-2.9964,-3.0046,-3.0106,-3.0157,-3.0197,-3.0218,-3.0213,-3.0227,-2.9973,-2.973,-2.9703,-2.9162,-2.8783,-2.8925,-2.9436,-2.9778,-2.9808,-3.0138,-3.0492,-3.054,-3.055,-3.0577,-3.0613,-3.0633,-3.0645,-3.0665,-3.0499,-3.0144,-2.9654,-2.9557,-2.9587,-2.9825,-2.9694,-2.8844,-2.8595,-2.7819,-2.7069,-2.6541,-2.6608,-2.6849,-2.7086,-2.738,-2.8045,-2.8222,-2.826,-2.8279,-2.8297,-2.835,-2.8288,-2.7921,-2.7647,-2.7411,-2.6904,-2.6514,-2.6373,-2.6665,-2.6372,-2.6411,-2.631,-2.6363,-2.623,-2.59,-2.5622,-2.5612,-2.5607,-2.6052,-2.6715,-2.7643,-2.8737,-2.9954,-3.0425,-3.0567,-3.0602,-3.0579,-3.0488,-3.0359,-2.9984,-2.9608,-2.964,-2.9598,-2.9792,-2.9991,-3.0019,-3.0057,-2.9975,-2.9901,-2.9806,-2.9764,-2.9729,-2.9664,-2.9598,-2.9521,-2.9443,-2.9402,-2.939,-2.9368,-2.9355,-2.9323,-2.9272,-2.9197,-2.9112,-2.9044,-3.0265,-3.0202,-2.9659,-2.9443,-2.9512,-2.9645,-2.971,-2.9745,-2.9851,-2.9904,-2.9901,-2.9916,-2.9956,-2.9996,-3.0068,-3.0128,-3.0211,-3.0218,-3.0213,-3.0246,-3.0248,-2.9889,-2.9304,-2.8997,-2.8673,-2.7759,-2.7735,-2.8237,-2.9226,-2.9371,-2.9815,-3.0347,-3.053,-3.054,-3.0592,-3.0615,-3.0606,-3.0618,-3.0616,-3.0299,-2.9894,-2.9732,-2.9628,-2.9522,-3.0165,-2.9715,-2.8491,-2.8012,-2.7358,-2.6489,-2.5948,-2.5761,-2.5715,-2.5699,-2.6363,-2.7498,-2.7773,-2.7773,-2.7714,-2.7654,-2.7493,-2.745,-2.7077,-2.6902,-2.7039,-2.6842,-2.645,-2.6332,-2.6528,-2.6939,-2.6841,-2.6761,-2.6637,-2.6448,-2.5962,-2.5609,-2.5595,-2.5704,-2.6029,-2.6734,-2.7569,-2.8559,-2.9717,-3.0455,-3.0592,-3.0607,-3.0603,-3.0549,-3.0378,-2.9954,-2.9696,-2.978,-2.9839,-2.9968,-3.0064,-3.0007,-3.0007,-2.994,-2.9866,-2.9789,-2.9736,-2.9701,-2.9645,-2.9617,-2.954,-2.9463,-2.9423,-2.9401,-2.9388,-2.9376,-2.9344,-2.9283,-2.9207,-2.9134,-2.9078,-2.945,-2.9442,-2.9417,-2.9443,-2.9512,-2.9645,-2.9738,-2.9799,-2.9878,-2.9901,-2.9907,-2.9956,-2.998,-3.0019,-3.0072,-3.0138,-3.0206,-3.0226,-3.0227,-3.0286,-3.019,-2.9728,-2.9131,-2.9176,-2.8058,-2.7046,-2.6838,-2.7812,-2.8719,-2.9062,-2.9675,-3.0322,-3.0516,-3.0588,-3.0601,-3.0616,-3.0621,-3.0608,-3.0614,-3.0556,-3.0442,-3.0393,-3.0036,-2.9616,-2.9441,-2.9132,-2.8116,-2.7563,-2.6909,-2.6663,-2.5987,-2.5725,-2.5701,-2.5691,-2.5733,-2.5951,-2.6014,-2.6016,-2.6191,-2.6424,-2.6499,-2.6573,-2.6239,-2.6356,-2.692,-2.7485,-2.7542,-2.7951,-2.7503,-2.7152,-2.7054,-2.6485,-2.607,-2.6118,-2.6256,-2.5907,-2.5766,-2.5961,-2.6269,-2.674,-2.757,-2.8388,-2.9352,-3.0036,-3.0602,-3.0617,-3.0608,-3.0535,-3.0416,-3.004,-2.9765,-2.9851,-2.9942,-3.0063,-3.0076,-3.0057,-2.9983,-2.9916,-2.9849,-2.979,-2.9737,-2.9692,-2.9664,-2.9636,-2.956,-2.9482,-2.9423,-2.9382,-2.9399,-2.9368,-2.9347,-2.9294,-2.9211,-2.9156,-2.9082,-2.9302,-2.9294,-2.9351,-2.9453,-2.956,-2.9654,-2.9764,-2.9861,-2.9874,-2.9916,-2.9948,-2.998,-3.0046,-3.0106,-3.0145,-3.0194,-3.0234,-3.0228,-3.0299,-3.0125,-2.9842,-2.9192,-2.8442,-2.7947,-2.7046,-2.6365,-2.6084,-2.6537,-2.7632,-2.8424,-2.8965,-2.9824,-3.0332,-3.0564,-3.0597,-3.0607,-3.0616,-3.0623,-3.061,-3.0412,-3.0088,-2.9907,-2.9587,-2.8835,-2.8749,-2.8249,-2.7561,-2.7186,-2.6632,-2.633,-2.5813,-2.5708,-2.5703,-2.5732,-2.5874,-2.646,-2.6465,-2.625,-2.5898,-2.6189,-2.6382,-2.6613,-2.6824,-2.7446,-2.7699,-2.7621,-2.7621,-2.7523,-2.7718,-2.7679,-2.7775,-2.7829,-2.7884,-2.7698,-2.6917,-2.6619,-2.6417,-2.633,-2.6578,-2.7051,-2.7567,-2.8427,-2.9246,-3.0012,-3.054,-3.0578,-3.053,-3.0434,-3.0402,-3.0279,-3.0035,-2.9915,-3.002,-3.0135,-3.0102,-3.0057,-2.9986,-2.9918,-2.9841,-2.979,-2.9719,-2.9692,-2.9673,-2.9645,-2.9569,-2.9501,-2.9423,-2.9382,-2.9399,-2.9378,-2.9368,-2.9304,-2.924,-2.9108,-2.8993,-2.9286,-2.9296,-2.9382,-2.9399,-2.9345,-2.9597,-2.9638,-2.9555,-2.955,-2.9731,-2.9969,-3.0011,-3.0098,-3.0197,-3.0194,-3.0215,-3.0267,-3.0107,-3.0221,-2.9982,-2.9352,-2.8532,-2.7928,-2.7181,-2.635,-2.5401,-2.556,-2.5936,-2.6554,-2.7482,-2.8515,-2.9306,-3.0187,-3.0511,-3.0598,-3.0573,-3.0509,-3.0191,-3.0254,-2.9853,-2.9249,-2.9078,-2.8611,-2.814,-2.7799,-2.747,-2.6724,-2.6543,-2.6167,-2.5874,-2.5731,-2.5782,-2.6048,-2.6195,-2.6555,-2.7105,-2.7304,-2.7109,-2.6874,-2.7009,-2.7259,-2.7511,-2.7762,-2.8072,-2.8127,-2.762,-2.7348,-2.7543,-2.754,-2.7832,-2.8028,-2.8198,-2.7977,-2.7867,-2.7885,-2.7603,-2.7296,-2.7061,-2.7062,-2.7509,-2.8039,-2.8593,-2.9393,-3.0099,-3.0462,-3.054,-3.0472,-3.0308,-3.02,-3.0078,-3.0194,-2.9992,-3.0001,-3.0116,-3.011,-3.0049,-2.9986,-2.9901,-2.9842,-2.979,-2.9709,-2.9682,-2.9673,-2.9636,-2.9504,-2.955,-2.9501,-2.9441,-2.938,-2.938,-2.9359,-2.9344,-2.9262,-2.9045,-2.8754,-2.9293,-2.9304,-2.9434,-2.9092,-2.8566,-2.9416,-2.9343,-2.8834,-2.879,-2.9235,-2.984,-3.0026,-3.0035,-3.0192,-3.0214,-3.0203,-3.0227,-2.9511,-2.9656,-2.9525,-2.8874,-2.8028,-2.748,-2.689,-2.6217,-2.5545,-2.5464,-2.553,-2.596,-2.7214,-2.829,-2.9306,-3.0098,-3.0457,-3.0543,-3.0464,-3.0128,-2.9745,-2.959,-2.9054,-2.8447,-2.8123,-2.7783,-2.7176,-2.6926,-2.6576,-2.5782,-2.5809,-2.594,-2.576,-2.5874,-2.6297,-2.6778,-2.689,-2.7349,-2.7982,-2.8202,-2.8144,-2.8222,-2.8103,-2.816,-2.8237,-2.8254,-2.8288,-2.8264,-2.8263,-2.8166,-2.7874,-2.7559,-2.7285,-2.6992,-2.6695,-2.7369,-2.7633,-2.7946,-2.7856,-2.7629,-2.7595,-2.7655,-2.8032,-2.8263,-2.8414,-2.8793,-2.9349,-3.0308,-3.0443,-2.9921,-2.9737,-2.9579,-2.9524,-2.999,-3.0068,-3.0008,-3.0044,-3.0083,-3.0049,-2.9975,-2.991,-2.9851,-2.978,-2.9708,-2.9672,-2.9363,-2.9317,-2.9167,-2.9373,-2.94,-2.8959,-2.8798,-2.9206,-2.9306,-2.8994,-2.8624,-2.8281,-2.8058,-2.9052,-2.8696,-2.8783,-2.8699,-2.8431,-2.8355,-2.8474,-2.8605,-2.8211,-2.8486,-2.9301,-2.9414,-2.9755,-3.01,-3.0222,-2.9965,-2.9604,-2.9357,-2.9124,-2.8539,-2.7779,-2.7253,-2.6884,-2.6462,-2.5778,-2.5515,-2.5491,-2.551,-2.5707,-2.6904,-2.7683,-2.8671,-2.9885,-3.0485,-3.0567,-3.0191,-2.9679,-2.9307,-2.8798,-2.8171,-2.7505,-2.7304,-2.6964,-2.6173,-2.6101,-2.5967,-2.5664,-2.5663,-2.5942,-2.6275,-2.6441,-2.7016,-2.7629,-2.7764,-2.8244,-2.8917,-2.9042,-2.9238,-2.9511,-2.9332,-2.9113,-2.8973,-2.8658,-2.8247,-2.8147,-2.7835,-2.7564,-2.735,-2.7211,-2.6897,-2.692,-2.7206,-2.772,-2.7734,-2.7755,-2.7783,-2.7868,-2.7832,-2.7697,-2.7815,-2.7571,-2.745,-2.7887,-2.8386,-2.9465,-3.0293,-2.9693,-2.9128,-2.8892,-2.8888,-2.9296,-2.9569,-2.9487,-2.9648,-2.9701,-2.9813,-2.9915,-2.9775,-2.967,-2.9487,-2.9236,-2.8967,-2.8743,-2.8754,-2.8595,-2.838,-2.8213,-2.8045,-2.8156,-2.85,-2.8497,-2.828,-2.7913,-2.7553,-2.7427,-2.8572,-2.7951,-2.7762,-2.772,-2.7713,-2.7466,-2.7752,-2.8188,-2.75,-2.7468,-2.8186,-2.8466,-2.8913,-2.9428,-2.9504,-2.9277,-2.8747,-2.8471,-2.8246,-2.7696,-2.7028,-2.6601,-2.637,-2.6022,-2.5594,-2.5522,-2.5513,-2.5511,-2.557,-2.6641,-2.7533,-2.8461,-2.9435,-3.0176,-3.049,-2.9864,-2.92,-2.8576,-2.809,-2.7304,-2.6576,-2.645,-2.637,-2.5713,-2.5698,-2.5921,-2.6028,-2.6219,-2.6593,-2.7043,-2.742,-2.784,-2.8319,-2.8759,-2.9142,-2.9562,-2.9802,-2.9941,-3.0117,-3.0035,-2.9462,-2.8972,-2.8248,-2.7934,-2.7699,-2.7133,-2.6665,-2.6611,-2.6589,-2.6627,-2.667,-2.6818,-2.7259,-2.7252,-2.7424,-2.7508,-2.7829,-2.7913,-2.7639,-2.7501,-2.7342,-2.7412,-2.7578,-2.8034,-2.8146,-2.9012,-2.8881,-2.8296,-2.7896,-2.8009,-2.842,-2.8634,-2.8722,-2.8957,-2.9216,-2.9013,-2.8806,-2.87,-2.8636,-2.8711,-2.851,-2.825,-2.8057,-2.7993,-2.7741,-2.7284,-2.7267,-2.7465,-2.7597,-2.7764,-2.7633,-2.7464,-2.7434,-2.7123,-2.698,-2.7792,-2.7054,-2.6397,-2.6134,-2.6244,-2.6943,-2.7369,-2.7573,-2.6899,-2.6606,-2.6848,-2.7408,-2.7859,-2.8071,-2.8291,-2.8126,-2.783,-2.7306,-2.7156,-2.7217,-2.6377,-2.6177,-2.6177,-2.5947,-2.5522,-2.5518,-2.5522,-2.5522,-2.5538,-2.6702,-2.7598,-2.8139,-2.889,-2.9713,-3.048,-2.9777,-2.856,-2.7251,-2.7067,-2.6442,-2.597,-2.5815,-2.5715,-2.567,-2.5783,-2.6123,-2.6483,-2.6679,-2.7151,-2.7998,-2.8008,-2.8505,-2.9347,-2.9335,-2.9698,-3.0355,-2.9798,-2.9567,-2.955,-2.953,-2.9018,-2.831,-2.7527,-2.7058,-2.6861,-2.6352,-2.5904,-2.6044,-2.5944,-2.5866,-2.5828,-2.5904,-2.6465,-2.6749,-2.6901,-2.7167,-2.747,-2.7436,-2.7071,-2.7032,-2.754,-2.7876,-2.7845,-2.7759,-2.731,-2.7464,-2.772,-2.7503,-2.7031,-2.7033,-2.7407,-2.7778,-2.7915,-2.8188,-2.8313,-2.7942,-2.7733,-2.763,-2.774,-2.7962,-2.7829,-2.7478,-2.7332,-2.7242,-2.685,-2.6383,-2.6677,-2.7045,-2.7027,-2.6981,-2.6786,-2.6674,-2.6702,-2.6681,-2.6493,-2.6898,-2.6224,-2.602,-2.5635,-2.5295,-2.554,-2.6392,-2.7395,-2.7305,-2.6918,-2.6566,-2.6832,-2.7319,-2.7676,-2.7727,-2.7503,-2.7055,-2.6939,-2.6889,-2.6257,-2.5708,-2.5723,-2.5799,-2.578,-2.5541,-2.5557,-2.558,-2.5564,-2.5567,-2.6521,-2.6892,-2.7357,-2.809,-2.8702,-2.8732,-2.8221,-2.7317,-2.6862,-2.6409,-2.5862,-2.5635,-2.5596,-2.5621,-2.5651,-2.6138,-2.6617,-2.705,-2.7192,-2.7821,-2.8766,-2.8757,-2.8959,-2.978,-2.9843,-2.9599,-2.9788,-2.9211,-2.8453,-2.8085,-2.7812,-2.7751,-2.724,-2.6749,-2.6259,-2.606,-2.5923,-2.5729,-2.5692,-2.569,-2.5691,-2.5731,-2.575,-2.6041,-2.6037,-2.6215,-2.6564,-2.6773,-2.6448,-2.6197,-2.6456,-2.6881,-2.6664,-2.6571,-2.6854,-2.6598,-2.6513,-2.6822,-2.6648,-2.6199,-2.6067,-2.6234,-2.679,-2.7118,-2.7382,-2.7443,-2.7154,-2.7102,-2.7169,-2.7319,-2.7539,-2.7277,-2.6731,-2.6532,-2.6395,-2.5946,-2.5536,-2.5833,-2.609,-2.6195,-2.6141,-2.5947,-2.5902,-2.5968,-2.5977,-2.5873,-2.632,-2.5429,-2.5444,-2.5225,-2.484,-2.4861,-2.5622,-2.6688,-2.7065,-2.6809,-2.618,-2.6031,-2.6348,-2.6862,-2.6974,-2.6887,-2.6277,-2.6241,-2.6196,-2.5541,-2.555,-2.5586,-2.5602,-2.5576,-2.5582,-2.5601,-2.5598,-2.5601,-2.5623,-2.5915,-2.6435,-2.6943,-2.7162,-2.7218,-2.7213,-2.7004,-2.6809,-2.6432,-2.5907,-2.5688,-2.56,-2.5637,-2.5773,-2.6133,-2.6632,-2.7171,-2.7626,-2.8049,-2.8455,-2.9267,-2.9425,-2.9218,-2.9806,-2.9634,-2.9153,-2.8909,-2.8332,-2.7477,-2.6855,-2.6621,-2.662,-2.65,-2.5951,-2.5754,-2.5693,-2.5711,-2.5713,-2.5694,-2.5692,-2.5692,-2.5693,-2.5694,-2.5711,-2.5726,-2.5835,-2.6206,-2.6194,-2.5892,-2.5829,-2.607,-2.6091,-2.5735,-2.5522,-2.5604,-2.577,-2.584,-2.5944,-2.5731,-2.5572,-2.5552,-2.553,-2.5971,-2.627,-2.6422,-2.6521,-2.6456,-2.6479,-2.6676,-2.6749,-2.6808,-2.6386,-2.5786,-2.5676,-2.5584,-2.5297,-2.5086,-2.4979,-2.5088,-2.5446,-2.542,-2.5125,-2.5137,-2.5232,-2.5634,-2.5984,-2.6049,-2.4738,-2.4693,-2.4779,-2.4787,-2.483,-2.5015,-2.5266,-2.6072,-2.6023,-2.525,-2.5332,-2.5538,-2.5505,-2.5517,-2.5605,-2.5658,-2.5623,-2.5617,-2.5602,-2.5577,-2.5595,-2.5587,-2.5593,-2.5601,-2.5607,-2.5604,-2.561,-2.5676,-2.6046,-2.6501,-2.6476,-2.6164,-2.6057,-2.6063,-2.6123,-2.6082,-2.5673,-2.5697,-2.5477,-2.5373,-2.5706,-2.6137,-2.6649,-2.7205,-2.8028,-2.8657,-2.9193,-2.9663,-2.9954,-2.9819,-2.9533,-2.9226,-2.8681,-2.8413,-2.7971,-2.7296,-2.6599,-2.6054,-2.5937,-2.5879,-2.5955,-2.5799,-2.57,-2.5698,-2.5694,-2.5694,-2.5694,-2.5694,-2.5693,-2.5693,-2.5693,-2.5692,-2.5707,-2.5701,-2.5809,-2.5803,-2.5691,-2.5654,-2.5717,-2.5729,-2.5571,-2.5531,-2.5505,-2.5337,-2.5538,-2.5642,-2.559,-2.5466,-2.5468,-2.5427,-2.5423,-2.5582,-2.5431,-2.5524,-2.5803,-2.5826,-2.6002,-2.573,-2.5663,-2.5231,-2.5156,-2.5193,-2.5133,-2.4862,-2.4711,-2.4762,-2.484,-2.5019,-2.4912,-2.5149,-2.5349,-2.577,-2.6599,-2.7103,-2.5853,-2.5429,-2.4965,-2.4802,-2.4884,-2.5031,-2.5113,-2.5296,-2.6063,-2.6014,-2.5257,-2.5259,-2.5322,-2.5402,-2.5455,-2.5484,-2.5488,-2.5513,-2.5564,-2.5583,-2.5595,-2.5596,-2.559,-2.5556,-2.5583,-2.5561,-2.5554,-2.5463,-2.5526,-2.5937,-2.5576,-2.5043,-2.5353,-2.5194,-2.5069,-2.5033,-2.4934,-2.5012,-2.5251,-2.521,-2.5363,-2.5813,-2.6419,-2.6989,-2.7878,-2.8696,-2.9179,-2.9445,-2.9718,-2.9647,-2.9071,-2.8667,-2.8582,-2.7843,-2.7242,-2.6488,-2.6164,-2.5935,-2.5741,-2.5703,-2.5703,-2.5703,-2.5703,-2.5701,-2.5698,-2.5694,-2.5693,-2.5693,-2.5693,-2.5691,-2.5691,-2.5691,-2.569,-2.5687,-2.5703,-2.5701,-2.5694,-2.5684,-2.5632,-2.5611,-2.5605,-2.5359,-2.5349,-2.5176,-2.5048,-2.5275,-2.5397,-2.5346,-2.5382,-2.5384,-2.538,-2.5337,-2.5317,-2.5287,-2.5247,-2.5475,-2.5346,-2.5268,-2.5132,-2.5095,-2.5081,-2.5028,-2.4908,-2.4805,-2.4742,-2.4704,-2.47,-2.4826,-2.5035,-2.5691,-2.5993,-2.6102,-2.6357,-2.6952,-2.7567,-2.5824,-2.5735,-2.5056,-2.4827,-2.4947,-2.5119,-2.5208,-2.5332,-2.5809,-2.5713,-2.536,-2.5356,-2.5379,-2.5432,-2.548,-2.5503,-2.5513,-2.5544,-2.557,-2.5604,-2.5596,-2.5595,-2.5571,-2.5279,-2.5068,-2.5104,-2.5041,-2.4776,-2.4861,-2.5007,-2.478,-2.452,-2.4806,-2.4568,-2.4404,-2.4177,-2.3904,-2.4197,-2.4509,-2.4704,-2.5172,-2.5796,-2.6421,-2.7165,-2.8227,-2.8614,-2.9035,-2.9104,-2.908,-2.8913,-2.8241,-2.7791,-2.7631,-2.697,-2.6426,-2.5847,-2.5795,-2.5779,-2.5702,-2.5703,-2.5703,-2.5722,-2.5742,-2.5702,-2.57,-2.5698,-2.5695,-2.5693,-2.569,-2.5688,-2.5688,-2.5688,-2.5688,-2.5687,-2.5687,-2.5687,-2.5702,-2.5693,-2.5669,-2.5609,-2.5418,-2.5115,-2.4924,-2.4735,-2.4655,-2.4722,-2.4895,-2.5029,-2.5181,-2.5351,-2.5346,-2.5341,-2.5321,-2.5301,-2.5266,-2.5236,-2.5215,-2.5206,-2.5178,-2.5125,-2.5063,-2.5005,-2.4952,-2.4856,-2.4783,-2.4746,-2.47,-2.4947,-2.5249,-2.5756,-2.5926,-2.5774,-2.5928,-2.6637,-2.7237,-2.5953,-2.5955,-2.5083,-2.4865,-2.5038,-2.516,-2.5253,-2.5316,-2.5384,-2.5356,-2.5398,-2.5412,-2.5432,-2.548,-2.5515,-2.5513,-2.5541,-2.5567,-2.5587,-2.5601,-2.5595,-2.5554,-2.515,-2.4758,-2.4514,-2.4341,-2.4181,-2.4014,-2.3618,-2.384,-2.4239,-2.4253,-2.3674,-2.3568,-2.3949,-2.3567,-2.3373,-2.3528,-2.4094,-2.4523,-2.4776,-2.5341,-2.6161,-2.6881,-2.7333,-2.7607,-2.8148,-2.8323,-2.8244,-2.7949,-2.7617,-2.7108,-2.6641,-2.6507,-2.606,-2.6083,-2.6185,-2.6325,-2.6346,-2.6367,-2.625,-2.6133,-2.5879,-2.5956,-2.6052,-2.5776,-2.5715,-2.5693,-2.569,-2.5688,-2.5688,-2.5688,-2.5688,-2.5687,-2.5687,-2.5687,-2.5705,-2.5641,-2.5521,-2.5381,-2.4979,-2.466,-2.4219,-2.405,-2.4377,-2.4307,-2.4386,-2.4632,-2.4868,-2.5149,-2.5202,-2.5216,-2.5316,-2.5287,-2.5252,-2.5241,-2.5212,-2.5195,-2.5187,-2.5178,-2.5119,-2.5082,-2.5031,-2.4924,-2.4813,-2.4746,-2.4764,-2.4955,-2.4968,-2.4936,-2.5061,-2.5039,-2.5435,-2.6005,-2.6673,-2.6782,-2.6754,-2.5478,-2.5019,-2.5168,-2.5231,-2.5326,-2.5384,-2.5382,-2.5391,-2.5412,-2.5461,-2.5494,-2.5511,-2.5544,-2.556,-2.557,-2.5579,-2.5599,-2.5595,-2.561,-2.5371,-2.4855,-2.4583,-2.4099,-2.355,-2.3332,-2.3373,-2.3267,-2.3373,-2.3458,-2.3431,-2.3106,-2.3348,-2.3608,-2.3222,-2.3144,-2.332,-2.4062,-2.453,-2.4684,-2.5837,-2.6892,-2.7166,-2.7381,-2.7712,-2.8101,-2.8159,-2.7801,-2.7382,-2.7169,-2.666,-2.6033,-2.6409,-2.6625,-2.6765,-2.7062,-2.7241,-2.74,-2.7363,-2.7324,-2.7187,-2.7031,-2.6796,-2.6502,-2.6011,-2.5715,-2.5713,-2.5691,-2.5689,-2.5687,-2.5687,-2.5687,-2.5687,-2.5707,-2.5707,-2.5687,-2.5529,-2.5371,-2.4994,-2.4557,-2.403,-2.3532,-2.3536,-2.3982,-2.4138,-2.4203,-2.4366,-2.4572,-2.4792,-2.4831,-2.4899,-2.5244,-2.5287,-2.5257,-2.5228,-2.5222,-2.5215,-2.5201,-2.5197,-2.5174,-2.5114,-2.5044,-2.4938,-2.4853,-2.4768,-2.4715,-2.4737,-2.4695,-2.4583,-2.4457,-2.4574,-2.4466,-2.4861,-2.5699,-2.6573,-2.6521,-2.5498,-2.5116,-2.5222,-2.5273,-2.5337,-2.54,-2.5433,-2.5437,-2.5441,-2.5492,-2.5515,-2.5528,-2.5598,-2.5607,-2.5607,-2.5607,-2.5604,-2.5603,-2.5583,-2.542,-2.5021,-2.4562,-2.4256,-2.3709,-2.3242,-2.3128,-2.3195,-2.3548,-2.3692,-2.3233,-2.314,-2.328,-2.3457,-2.3398,-2.334,-2.373,-2.4531,-2.4863,-2.4921,-2.5898,-2.6425,-2.664,-2.6855,-2.7207,-2.7148,-2.7147,-2.687,-2.6531,-2.6392,-2.6248,-2.5915,-2.6075,-2.6547,-2.6921,-2.7355,-2.7905,-2.8162,-2.8261,-2.8144,-2.7773,-2.7422,-2.6894,-2.621,-2.574,-2.5717,-2.5696,-2.569,-2.5687,-2.5706,-2.5705,-2.5706,-2.5706,-2.5702,-2.5699,-2.5467,-2.5196,-2.498,-2.4665,-2.3932,-2.2854,-2.2358,-2.1881,-2.2347,-2.2792,-2.3035,-2.3508,-2.3817,-2.4131,-2.4244,-2.4476,-2.4764,-2.5163,-2.5287,-2.5257,-2.5233,-2.522,-2.5086,-2.5109,-2.5041,-2.5075,-2.505,-2.4952,-2.4856,-2.4768,-2.473,-2.47,-2.4645,-2.4561,-2.435,-2.4174,-2.4058,-2.407,-2.478,-2.5893,-2.5786,-2.531,-2.5178,-2.5282,-2.5322,-2.5355,-2.5401,-2.5468,-2.5511,-2.5508,-2.5534,-2.5562,-2.559,-2.5613,-2.5615,-2.5601,-2.5609,-2.5603,-2.5624,-2.5656,-2.5342,-2.5041,-2.4734,-2.4273,-2.3849,-2.3383,-2.3351,-2.3433,-2.3687,-2.3611,-2.3262,-2.3339,-2.3534,-2.3923,-2.3884,-2.3709,-2.4491,-2.5155,-2.5546,-2.5664,-2.5703,-2.5781,-2.5762,-2.5703,-2.5703,-2.5723,-2.5722,-2.5721,-2.5756,-2.5845,-2.5799,-2.5913,-2.6053,-2.6467,-2.694,-2.7375,-2.7808,-2.8123,-2.8281,-2.791,-2.748,-2.7168,-2.6699,-2.6055,-2.5761,-2.5739,-2.5697,-2.5692,-2.5687,-2.5705,-2.5703,-2.5704,-2.5703,-2.5697,-2.5693,-2.5366,-2.5038,-2.4764,-2.447,-2.34,-2.2222,-2.1576,-2.1041,-2.1125,-2.153,-2.1833,-2.2248,-2.2655,-2.296,-2.3186,-2.3632,-2.4076,-2.45,-2.511,-2.4965,-2.4826,-2.4675,-2.4523,-2.4746,-2.4934,-2.498,-2.4994,-2.4953,-2.4851,-2.4798,-2.473,-2.4684,-2.4621,-2.4564,-2.4091,-2.3859,-2.4188,-2.4192,-2.4232,-2.5565,-2.5168,-2.5108,-2.5147,-2.5228,-2.5317,-2.5397,-2.541,-2.5482,-2.5537,-2.5573,-2.5637,-2.5684,-2.5667,-2.5687,-2.5669,-2.5656,-2.5628,-2.5646,-2.5687,-2.5678,-2.5262,-2.4944,-2.4831,-2.4054,-2.3725,-2.3591,-2.3613,-2.3828,-2.3671,-2.369,-2.4021,-2.3332,-2.3586,-2.4235,-2.4214,-2.4389,-2.5055,-2.5387,-2.5699,-2.5702,-2.5703,-2.5703,-2.5703,-2.5703,-2.5703,-2.5703,-2.5703,-2.5702,-2.5696,-2.5705,-2.5699,-2.5835,-2.6148,-2.6582,-2.6958,-2.7394,-2.7846,-2.8161,-2.828,-2.7929,-2.7714,-2.7382,-2.6894,-2.6328,-2.5878,-2.5818,-2.5699,-2.5695,-2.5688,-2.5705,-2.5701,-2.5699,-2.5697,-2.5692,-2.5694,-2.5542,-2.5307,-2.507,-2.4439,-2.3566,-2.2649,-2.1928,-2.1573,-2.1451,-2.1673,-2.1536,-2.1907,-2.2183,-2.2222,-2.2165,-2.2728,-2.3294,-2.4211,-2.4937,-2.4346,-2.412,-2.3976,-2.3907,-2.4055,-2.4347,-2.4852,-2.4911,-2.4923,-2.4893,-2.4834,-2.4768,-2.4718,-2.4698,-2.4546,-2.3836,-2.358,-2.4021,-2.4285,-2.4288]},{"header":{"parameterUnit":"m.s-1","parameterCategory":1,"la1":31.0,"la2":29.5877,"lo1":-88.7671,"lo2":-86.6584,"dy":0.0162,"dx":0.0185,"nx":115,"ny":88,"refTime":"2023-05-04T12:00:00:Z","depth":0,"parameterNumber":3,"parameterNumberName":"V-component_of_WINDS"},"data":[0.0,0.0,0.0,0.0,0.0,0.0,0.0,0.0,0.0,0.0,0.0,0.0,0.0,0.0,0.0,0.0,0.0,0.0,0.0,0.0,0.0,0.0,0.0,0.0,0.0,0.0,0.0,0.0,0.0,0.0,0.0,0.0,0.0,0.0,0.0,0.0,0.0,0.0,0.0,0.0,0.0,0.0,0.0,0.0,0.0,0.0,0.0,0.0,0.0,0.0,0.0,0.0,0.0,0.0,0.0,0.0,0.0,0.0,0.0,0.0,0.0,0.0,0.0,0.0,0.0,0.0,0.0,0.0,0.0,0.0,0.0,0.0,0.0,0.0,0.0,0.0,0.0,0.0,0.0,0.0,0.0,0.0,0.0,0.0,0.0,0.0,0.0,0.0,0.0,0.0,0.0,0.0,0.0,0.0,0.0,0.0,0.0,0.0,0.0,0.0,0.0,0.0,0.0,0.0,0.0,0.0,0.0,0.0,0.0,0.0,0.0,0.0,0.0,0.0,0.0,0.0,0.0,0.0,0.0,0.0,0.0,0.0,0.0,0.0,0.0,0.0,0.0,0.0,0.0,0.0,0.0,0.0,0.0,0.0,0.0,0.0,0.0,0.0,0.0,0.0,0.0,0.0,0.0,0.0,0.0,0.0,0.0,0.0,0.0,0.0,0.0,0.0,0.0,0.0,0.0,0.0,0.0,0.0,0.0,0.0,0.0,0.0,0.0,0.0,0.0,0.0,0.0,0.0,0.0,0.0,0.0,0.0,0.0,0.0,0.0,0.0,0.0,0.0,0.0,0.0,0.0,0.0,0.0,0.0,0.0,0.0,0.0,0.0,0.0,0.0,0.0,0.0,0.0,0.0,0.0,0.0,0.0,0.0,0.0,0.0,0.0,0.0,0.0,0.0,0.0,0.0,0.0,0.0,0.0,0.0,0.0,0.0,0.0,0.0,0.0,0.0,0.0,0.0,0.0,0.0,0.0,0.0,0.0,0.0,0.0,0.0,0.0,0.0,0.0,0.0,0.0,0.0,0.0,0.0,0.0,0.0,0.0,0.0,0.0,0.0,0.0,0.0,0.0,0.0,0.0,0.0,0.0,0.0,0.0,0.0,0.0,0.0,0.0,0.0,0.0,0.0,0.0,0.0,0.0,0.0,0.0,0.0,0.0,0.0,0.0,0.0,0.0,0.0,0.0,0.0,0.0,0.0,0.0,0.0,0.0,0.0,0.0,0.0,0.0,0.0,0.0,0.0,0.0,0.0,0.0,0.0,0.0,0.0,0.0,0.0,0.0,0.0,0.0,0.0,0.0,0.0,0.0,0.0,0.0,0.0,0.0,0.0,0.0,0.0,0.0,0.0,0.0,0.0,0.0,0.0,0.0,0.0,0.0,0.0,0.0,0.0,0.0,0.0,0.0,0.0,0.0,0.0,0.0,0.0,0.0,0.0,0.0,0.0,0.0,0.0,0.0,0.0,0.0,0.0,0.0,0.0,0.0,0.0,0.0,0.0,0.0,0.0,0.0,0.0,0.0,0.0,0.0,0.0,0.0,0.0,0.0,0.0,0.0,0.0,0.0,0.0,0.0,0.0,0.0,0.0,0.0,0.0,0.0,0.0,0.0,0.0,0.0,0.0,0.0,0.0,0.0,0.0,0.0,0.0,0.0,0.0,0.0,0.0,0.0,0.0,0.0,0.0,0.0,0.0,0.0,0.0,0.0,0.0,0.0,0.0,0.0,0.0,0.0,0.0,0.0,0.0,0.0,0.0,0.0,0.0,0.0,0.0,0.0,0.0,0.0,0.0,0.0,0.0,0.0,0.0,0.0,0.0,0.0,0.0,0.0,0.0,0.0,0.0,0.0,0.0,0.0,0.0,0.0,0.0,0.0,0.0,0.0,0.0,0.0,0.0,0.0,0.0,0.0,0.0,0.0,0.0,0.0,0.0,0.0,0.0,0.0,0.0,0.0,0.0,0.0,0.0,0.0,0.0,0.0,0.0,0.0,0.0,0.0,0.0,0.0,0.0,0.0,0.0,0.0,0.0,0.0,0.0,0.0,0.0,0.0,0.0,0.0,0.0,0.0,0.0,0.0,0.0,0.0,0.0,0.0,0.0,0.0,0.0,0.0,0.0,0.0,0.0,0.0,0.0,0.0,0.0,0.0,0.0,0.0,0.0,0.0,0.0,0.0,0.0,0.0,0.0,0.0,0.0,0.0,0.0,0.0,0.0,0.0,0.0,0.0,0.0,0.0,0.0,0.0,0.0,0.0,0.0,0.0,0.0,0.0,0.0,0.0,0.0,0.0,0.0,0.0,0.0,0.0,0.0,0.0,0.0,0.0,0.0,0.0,0.0,0.0,0.0,0.0,0.0,0.0,0.0,0.0,0.0,0.0,0.0,0.0,0.0,0.0,0.0,0.0,0.0,0.0,0.0,0.0,0.0,0.0,0.0,0.0,0.0,0.0,0.0,0.0,0.0,0.0,0.0,0.0,0.0,0.0,0.0,0.0,0.0,0.0,0.0,0.0,0.0,0.0,0.0,0.0,0.0,0.0,0.0,0.0,0.0,0.0,0.0,0.0,0.0,0.0,0.0,0.0,0.0,0.0,0.0,0.0,0.0,0.0,0.0,0.0,0.0,0.0,0.0,0.0,0.0,0.0,0.0,0.0,0.0,0.0,0.0,0.0,0.0,0.0,0.0,0.0,0.0,0.0,0.0,0.0,0.0,0.0,0.0,0.0,0.0,0.0,0.0,0.0,0.0,0.0,0.0,0.0,0.0,0.0,0.0,0.0,0.0,0.0,0.0,0.0,0.0,0.0,0.0,0.0,0.0,0.0,0.0,0.0,0.0,0.0,0.0,0.0,0.0,0.0,0.0,0.0,0.0,0.0,0.0,0.0,0.0,0.0,0.0,0.0,0.0,0.0,0.0,0.0,0.0,0.0,0.0,0.0,0.0,0.0,0.0,0.0,0.0,0.0,0.0,0.0,0.0,0.0,0.0,0.0,0.0,0.0,0.0,0.0,0.0,0.0,0.0,0.0,0.0,0.0,0.0,0.0,0.0,0.0,0.0,0.0,0.0,0.0,0.0,0.0,0.0,0.0,0.0,0.0,0.0,0.0,0.0,0.0,0.0,0.0,0.0,0.0,0.0,0.0,0.0,0.0,0.0,0.0,0.0,0.0,0.0,0.0,0.0,0.0,0.0,0.0,0.0,0.0,0.0,0.0,0.0,0.0,0.0,0.0,0.0,0.0,0.0,0.0,0.0,0.0,0.0,0.0,0.0,0.0,0.0,0.0,0.0,0.0,0.0,0.0,0.0,0.0,0.0,0.0,0.0,0.0,0.0,0.0,0.0,0.0,0.0,0.0,0.0,0.0,0.0,0.0,0.0,0.0,0.0,0.0,0.0,0.0,0.0,0.0,0.0,0.0,0.0,0.0,0.0,0.0,0.0,0.0,0.0,0.0,0.0,0.0,0.0,0.0,0.0,0.0,0.0,0.0,0.0,0.0,0.0,0.0,0.0,0.0,0.0,0.0,0.0,0.0,0.0,0.0,0.0,0.0,0.0,0.0,0.0,0.0,0.0,0.0,0.0,0.0,0.0,0.0,0.0,0.0,0.0,0.0,0.0,0.0,0.0,0.0,0.0,0.0,0.0,0.0,0.0,0.0,0.0,0.0,0.0,0.0,0.0,0.0,0.0,0.0,0.0,0.0,0.0,0.0,0.0,0.0,0.0,0.0,0.0,0.0,0.0,0.0,0.0,0.0,0.0,0.0,0.0,0.0,0.0,0.0,0.0,0.0,0.0,0.0,0.0,0.0,0.0,0.0,0.0,0.0,0.0,0.0,0.0,0.0,0.0,0.0,0.0,0.0,0.0,0.0,0.0,0.0,0.0,0.0,0.0,0.0,0.0,0.0,0.0,0.0,0.0,0.0,0.0,0.0,0.0,0.0,0.0,0.0,0.0,0.0,0.0,0.0,0.0,0.0,0.0,0.0,0.0,0.0,0.0,0.0,0.0,0.0,0.0,0.0,0.0,0.0,0.0,0.0,0.0,0.0,0.0,0.0,0.0,0.0,0.0,0.0,0.0,0.0,0.0,0.0,0.0,0.0,0.0,0.0,0.0,0.0,0.0,0.0,0.0,0.0,0.0,0.0,0.0,0.0,0.0,0.0,0.0,0.0,0.0,0.0,0.0,0.0,0.0,0.0,0.0,0.0,0.0,0.0,0.0,0.0,0.0,0.0,0.0,0.0,0.0,0.0,0.0,0.0,0.0,0.0,0.0,-0.6601,0.0,0.0,0.0,0.0,0.0,0.0,0.0,0.0,0.0,0.0,0.0,0.0,0.0,0.0,0.0,0.0,0.0,0.0,0.0,0.0,0.0,0.0,0.0,0.0,0.0,0.0,0.0,0.0,0.0,0.0,0.0,0.0,0.0,0.0,0.0,0.0,0.0,0.0,0.0,0.0,0.0,0.0,0.0,0.0,0.0,0.0,0.0,0.0,0.0,0.0,0.0,0.0,0.0,0.0,0.0,0.0,0.0,0.0,0.0,0.0,0.0,0.0,0.0,0.0,0.0,0.0,0.0,0.0,0.0,0.0,0.0,0.0,0.0,0.0,0.0,0.0,0.0,0.0,0.0,0.0,0.0,0.0,0.0,0.0,0.0,0.0,0.0,0.0,0.0,0.0,0.0,0.0,0.0,0.0,0.0,0.0,0.0,0.0,0.0,0.0,0.0,0.0,0.0,0.0,0.0,0.0,0.0,0.0,0.0,0.0,-0.4913,-0.541,-0.6111,-0.66,-0.6878,0.0,0.0,0.0,0.0,0.0,0.0,0.0,0.0,0.0,0.0,0.0,0.0,0.0,0.0,0.0,0.0,0.0,0.0,0.0,0.0,0.0,0.0,0.0,0.0,0.0,0.0,0.0,0.0,0.0,0.0,0.0,0.0,0.0,0.0,0.0,0.0,0.0,0.0,0.0,0.0,0.0,0.0,0.0,0.0,0.0,0.0,0.0,0.0,0.0,0.0,0.0,0.0,0.0,0.0,0.0,0.0,0.0,0.0,0.0,0.0,0.0,0.0,0.0,0.0,0.0,0.0,0.0,0.0,0.0,0.0,0.0,0.0,0.0,0.0,0.0,0.0,0.0,0.0,0.0,0.0,0.0,0.0,0.0,0.0,0.0,0.0,0.0,0.0,0.0,0.0,0.0,0.0,0.0,0.0,0.0,0.0,0.0,0.0,0.0,0.0,0.0,0.0,0.0,0.0,0.0,0.0,0.0,0.0,0.0,0.0,0.0,0.0,-0.6268,-0.6887,-0.7441,0.0,0.0,0.0,0.0,0.0,0.0,0.0,0.0,0.0,0.0,0.0,0.0,0.0,0.0,0.0,0.0,0.0,0.0,0.0,0.0,0.0,0.0,0.0,0.0,0.0,0.0,0.0,0.0,0.0,0.0,0.0,0.0,0.0,0.0,0.0,0.0,0.0,0.0,0.0,0.0,0.0,0.0,0.0,0.0,0.0,0.0,0.0,0.0,0.0,0.0,0.0,0.0,0.0,0.0,0.0,0.0,0.0,0.0,0.0,0.0,0.0,0.0,0.0,0.0,0.0,0.0,0.0,0.0,0.0,0.0,0.0,0.0,0.0,0.0,0.0,0.0,0.0,0.0,0.0,0.0,0.0,0.0,0.0,0.0,0.0,0.0,0.0,0.0,0.0,0.0,0.0,0.0,0.0,0.0,0.0,0.0,0.0,0.0,0.0,0.0,0.0,0.0,0.0,0.0,0.0,0.0,0.0,0.0,0.0,0.0,-0.4736,-0.5152,-0.6,0.0,-0.8364,0.0,0.0,0.0,0.0,0.0,0.0,0.0,0.0,0.0,0.0,0.0,0.0,0.0,0.0,0.0,0.0,0.0,0.0,0.0,0.0,0.0,0.0,0.0,0.0,0.0,0.0,0.0,0.0,0.0,0.0,0.0,0.0,0.0,0.0,0.0,0.0,0.0,0.0,0.0,0.0,0.0,0.0,0.0,0.0,0.0,0.0,0.0,0.0,0.0,0.0,0.0,0.0,0.0,0.0,0.0,0.0,0.0,0.0,0.0,0.0,0.0,0.0,0.0,0.0,0.0,0.0,0.0,0.0,0.0,0.0,0.0,0.0,0.0,0.0,0.0,0.0,0.0,0.0,0.0,0.0,0.0,0.0,0.0,0.0,0.0,0.0,0.0,0.0,0.0,0.0,0.0,0.0,0.0,0.0,0.0,0.0,0.0,0.0,0.0,0.0,0.0,0.0,0.0,0.0,0.0,0.0,0.0,0.0,0.0,0.0,-0.4763,-0.5272,-0.6482,-0.7636,0.0,0.0,0.0,0.0,0.0,0.0,0.0,0.0,0.0,0.0,0.0,0.0,0.0,0.0,0.0,0.0,0.0,0.0,0.0,0.0,0.0,0.0,0.0,0.0,0.0,0.0,0.0,0.0,0.0,0.0,0.0,0.0,0.0,0.0,0.0,0.0,0.0,0.0,0.0,0.0,0.0,0.0,0.0,0.0,0.0,0.0,0.0,0.0,0.0,0.0,0.0,0.0,0.0,0.0,0.0,0.0,0.0,0.0,0.0,0.0,0.0,0.0,0.0,0.0,0.0,0.0,0.0,0.0,0.0,0.0,0.0,0.0,0.0,0.0,0.0,0.0,0.0,0.0,0.0,0.0,0.0,0.0,0.0,0.0,0.0,0.0,0.0,0.0,0.0,0.0,0.0,0.0,0.0,0.0,0.0,0.0,0.0,0.0,0.0,0.0,0.0,0.0,0.0,0.0,0.0,0.0,0.0,0.0,0.0,0.0,-0.4171,-0.4904,-0.5785,-0.7006,-0.8045,-0.8824,0.0,0.0,0.0,0.0,0.0,0.0,0.0,0.0,0.0,0.0,0.0,0.0,0.0,0.0,0.0,0.0,0.0,0.0,0.0,0.0,0.0,0.0,0.0,0.0,0.0,0.0,0.0,0.0,0.0,0.0,0.0,0.0,0.0,0.0,0.0,0.0,0.0,0.0,0.0,0.0,0.0,0.0,0.0,0.0,0.0,0.0,0.0,0.0,0.0,0.0,0.0,0.0,0.0,0.0,0.0,0.0,0.0,0.0,0.0,0.0,0.0,0.0,0.0,0.0,0.0,0.0,0.0,0.0,0.0,0.0,0.0,0.0,0.0,0.0,0.0,0.0,0.0,0.0,0.0,0.0,0.0,0.0,0.0,0.0,0.0,0.0,0.0,0.0,0.0,0.0,0.0,0.0,0.0,0.0,0.0,0.0,0.0,0.0,0.0,0.0,0.0,0.0,0.0,0.0,0.0,0.0,0.0,0.0,-0.3336,-0.4103,-0.5221,-0.666,-0.7404,-0.8155,0.0,0.0,0.0,0.0,0.0,0.0,0.0,0.0,0.0,0.0,0.0,0.0,0.0,0.0,0.0,0.0,0.0,0.0,0.0,0.0,0.0,0.0,0.0,0.0,0.0,0.0,0.0,0.0,0.0,0.0,0.0,0.0,0.0,0.0,0.0,0.0,0.0,0.0,0.0,0.0,0.0,0.0,0.0,0.0,0.0,0.0,0.0,0.0,0.0,0.0,0.0,0.0,0.0,0.0,0.0,0.0,0.0,0.0,0.0,0.0,0.0,0.0,0.0,0.0,0.0,0.0,0.0,0.0,0.0,0.0,0.0,0.0,0.0,0.0,0.0,0.0,0.0,0.0,0.0,0.0,0.0,0.0,0.0,0.0,0.0,0.0,0.0,0.0,0.0,0.0,0.0,0.0,0.0,0.0,0.0,0.0,0.0,0.0,0.0,0.0,0.0,0.0,0.0,0.0,0.0,0.0,0.0,0.0,0.0,-0.3637,-0.4833,-0.5881,-0.6771,-0.7478,-0.8212,0.0,0.0,0.0,0.0,0.0,0.0,0.0,0.0,0.0,0.0,0.0,0.0,0.0,0.0,0.0,0.0,0.0,0.0,0.0,0.0,0.0,0.0,0.0,0.0,0.0,0.0,0.0,0.0,0.0,0.0,0.0,0.0,0.0,0.0,0.0,0.0,0.0,0.0,0.0,0.0,0.0,0.0,0.0,0.0,0.0,0.0,0.0,0.0,0.0,0.0,0.0,0.0,0.0,0.0,0.0,0.0,0.0,0.0,0.0,0.0,0.0,0.0,0.0,0.0,0.0,0.0,0.0,0.0,0.0,0.0,0.0,0.0,0.0,0.0,0.0,0.0,0.0,0.0,0.0,0.0,0.0,0.0,0.0,0.0,0.0,0.0,0.0,0.0,0.0,0.0,0.0,0.0,0.0,0.0,0.0,0.0,0.0,0.0,0.0,0.0,0.0,0.0,0.0,0.0,0.0,0.0,0.0,0.0,0.0,-0.4171,0.0,-0.6353,-0.7008,-0.7608,-0.8317,0.0,0.0,0.0,0.0,0.0,0.0,0.0,0.0,0.0,0.0,0.0,0.0,0.0,0.0,0.0,0.0,0.0,0.0,0.0,0.0,0.0,0.0,0.0,0.0,0.0,0.0,0.0,0.0,0.0,0.0,0.0,0.0,0.0,0.0,0.0,0.0,0.0,0.0,0.0,0.0,0.0,0.0,0.0,0.0,0.0,0.0,0.0,0.0,0.0,0.0,0.0,0.0,0.0,0.0,0.0,0.0,0.0,0.0,0.0,0.0,0.0,0.0,0.0,0.0,0.0,0.0,0.0,0.0,0.0,0.0,0.0,0.0,0.0,0.0,0.0,0.0,0.0,0.0,0.0,0.0,0.0,0.0,0.0,0.0,0.0,0.0,0.0,0.0,0.0,0.0,0.0,0.0,0.0,0.0,0.0,0.0,0.0,0.0,0.0,0.0,0.0,0.0,0.0,0.0,0.0,0.0,0.0,0.0,-0.3942,-0.4874,-0.5701,-0.6539,-0.7451,-0.7906,-0.854,0.0,0.0,0.0,0.0,0.0,0.0,0.0,0.0,0.0,0.0,0.0,0.0,0.0,0.0,0.0,0.0,0.0,0.0,0.0,0.0,0.0,0.0,0.0,0.0,0.0,0.0,0.0,0.0,0.0,0.0,0.0,0.0,0.0,0.0,0.0,0.0,0.0,0.0,0.0,0.0,0.0,0.0,0.0,0.0,0.0,0.0,0.0,0.0,0.0,0.0,0.0,0.0,0.0,0.0,0.0,0.0,0.0,0.0,0.0,0.0,0.0,0.0,0.0,0.0,0.0,0.0,0.0,0.0,0.0,0.0,0.0,0.0,0.0,0.0,0.0,0.0,0.0,0.0,0.0,0.0,0.0,0.0,0.0,0.0,0.0,0.0,0.0,0.0,0.0,0.0,0.0,0.0,0.0,0.0,0.0,0.0,0.0,0.0,0.0,0.0,0.0,0.0,0.0,0.0,0.0,0.0,0.0,0.0,0.0,-0.4901,-0.5873,-0.6666,-0.7261,-0.8055,-0.8684,0.0,0.0,0.0,0.0,0.0,0.0,0.0,0.0,0.0,0.0,0.0,0.0,0.0,0.0,0.0,0.0,0.0,0.0,0.0,0.0,0.0,0.0,0.0,0.0,0.0,0.0,0.0,0.0,0.0,0.0,0.0,0.0,0.0,0.0,0.0,0.0,0.0,0.0,0.0,0.0,0.0,0.0,0.0,0.0,0.0,0.0,0.0,0.0,0.0,0.0,0.0,0.0,0.0,0.0,0.0,0.0,0.0,0.0,0.0,0.0,0.0,0.0,0.0,0.0,0.0,0.0,0.0,0.0,0.0,0.0,0.0,0.0,0.0,0.0,0.0,0.0,0.0,0.0,0.0,0.0,0.0,0.0,0.0,0.0,0.0,0.0,0.0,0.0,0.0,0.0,0.0,0.0,0.0,0.0,0.0,0.0,0.0,0.0,0.0,0.0,0.0,0.0,0.0,0.0,0.0,0.0,0.0,0.0,0.0,-0.4984,-0.5983,-0.6773,-0.7328,-0.8154,-0.8813,-0.926,0.0,0.0,0.0,0.0,0.0,0.0,0.0,0.0,0.0,0.0,0.0,0.0,0.0,0.0,0.0,0.0,0.0,0.0,0.0,0.0,0.0,0.0,0.0,0.0,0.0,0.0,0.0,0.0,0.0,0.0,0.0,0.0,0.0,0.0,0.0,0.0,0.0,0.0,0.0,0.0,0.0,0.0,0.0,0.0,0.0,0.0,0.0,0.0,0.0,0.0,0.0,0.0,0.0,0.0,0.0,0.0,0.0,0.0,0.0,0.0,0.0,0.0,0.0,0.0,0.0,0.0,0.0,0.0,0.0,0.0,0.0,0.0,0.0,0.0,0.0,0.0,0.0,0.0,0.0,0.0,0.0,0.0,0.0,0.0,0.0,0.0,0.0,0.0,0.0,0.0,0.0,0.0,0.0,0.0,0.0,0.0,0.0,0.0,0.0,0.0,0.0,0.0,0.0,0.0,0.0,0.0,0.0,0.0,-0.5107,-0.6105,-0.6925,-0.7577,-0.8249,-0.8914,0.0,0.0,0.0,0.0,0.0,0.0,0.0,0.0,0.0,0.0,0.0,0.0,0.0,0.0,0.0,0.0,0.0,0.0,0.0,0.0,0.0,0.0,0.0,0.0,0.0,0.0,0.0,0.0,0.0,0.0,0.0,0.0,0.0,0.0,0.0,0.0,0.0,0.0,0.0,0.0,0.0,0.0,0.0,0.0,0.0,0.0,0.0,0.0,0.0,0.0,0.0,0.0,0.0,0.0,0.0,0.0,0.0,0.0,0.0,0.0,0.0,0.0,0.0,0.0,0.0,0.0,0.0,0.0,0.0,0.0,0.0,0.0,0.0,0.0,0.0,0.0,0.0,0.0,0.0,0.0,0.0,0.0,0.0,0.0,0.0,0.0,0.0,0.0,0.0,0.0,0.0,0.0,0.0,0.0,0.0,0.0,0.0,0.0,0.0,0.0,0.0,0.0,0.0,0.0,0.0,0.0,0.0,0.0,0.0,-0.5165,-0.6084,-0.6848,-0.7381,-0.8395,-0.9106,0.0,0.0,0.0,0.0,0.0,0.0,0.0,0.0,0.0,0.0,0.0,0.0,0.0,0.0,0.0,0.0,0.0,0.0,0.0,0.0,0.0,0.0,0.0,0.0,0.0,0.0,0.0,0.0,0.0,0.0,0.0,0.0,0.0,0.0,0.0,0.0,0.0,0.0,0.0,0.0,0.0,0.0,0.0,0.0,0.0,0.0,0.0,0.0,0.0,0.0,0.0,0.0,0.0,0.0,0.0,0.0,0.0,0.0,0.0,0.0,0.0,0.0,0.0,0.0,0.0,0.0,0.0,0.0,0.0,0.0,0.0,0.0,0.0,0.0,0.0,0.0,0.0,0.0,0.0,0.0,0.0,0.0,0.0,0.0,0.0,0.0,0.0,0.0,0.0,0.0,0.0,0.0,0.0,0.0,0.0,0.0,0.0,0.0,0.0,0.0,0.0,0.0,0.0,0.0,0.0,0.0,0.0,0.0,-0.4763,-0.5068,-0.6105,-0.6893,-0.7379,-0.8571,-0.9347,0.0,0.0,0.0,0.0,0.0,0.0,0.0,0.0,0.0,0.0,0.0,0.0,0.0,0.0,0.0,0.0,0.0,0.0,0.0,0.0,0.0,0.0,0.0,0.0,0.0,0.0,0.0,0.0,0.0,0.0,0.0,0.0,0.0,0.0,0.0,0.0,0.0,0.0,0.0,0.0,0.0,0.0,0.0,0.0,0.0,0.0,0.0,0.0,0.0,0.0,0.0,0.0,0.0,0.0,0.0,0.0,0.0,0.0,0.0,0.0,0.0,0.0,0.0,0.0,0.0,0.0,0.0,0.0,0.0,0.0,0.0,0.0,0.0,0.0,0.0,0.0,0.0,0.0,0.0,0.0,0.0,0.0,0.0,0.0,0.0,0.0,0.0,0.0,0.0,0.0,0.0,0.0,0.0,0.0,0.0,0.0,0.0,0.0,0.0,0.0,0.0,0.0,0.0,0.0,0.0,0.0,0.0,0.0,-0.4772,-0.493,-0.6098,-0.694,-0.7532,-0.8743,-0.9597,0.0,0.0,0.0,0.0,0.0,0.0,0.0,0.0,0.0,0.0,0.0,0.0,0.0,0.0,0.0,0.0,0.0,0.0,0.0,0.0,0.0,0.0,0.0,0.0,0.0,0.0,0.0,0.0,0.0,0.0,0.0,0.0,0.0,0.0,0.0,0.0,0.0,0.0,0.0,0.0,0.0,0.0,0.0,0.0,0.0,0.0,0.0,0.0,0.0,0.0,0.0,0.0,0.0,0.0,0.0,0.0,0.0,0.0,0.0,0.0,0.0,0.0,0.0,0.0,0.0,0.0,0.0,0.0,0.0,0.0,0.0,0.0,0.0,0.0,0.0,0.0,0.0,0.0,0.0,0.0,0.0,0.0,0.0,0.0,0.0,0.0,0.0,0.0,0.0,0.0,0.0,0.0,0.0,0.0,0.0,0.0,0.0,0.0,0.0,0.0,0.0,0.0,0.0,0.0,0.0,0.0,0.0,0.0,-0.472,-0.5038,-0.5627,-0.6498,-0.7694,-0.8814,-0.955,0.0,0.0,0.0,0.0,0.0,0.0,0.0,0.0,0.0,0.0,0.0,0.0,0.0,0.0,0.0,0.0,0.0,0.0,0.0,0.0,0.0,0.0,0.0,0.0,0.0,0.0,0.0,0.0,0.0,0.0,0.0,0.0,0.0,0.0,0.0,0.0,0.0,0.0,0.0,0.0,0.0,0.0,0.0,0.0,0.0,0.0,0.0,0.0,-1.0211,0.0,0.0,0.0,0.0,0.0,0.0,0.0,0.0,0.0,0.0,0.0,0.0,0.0,0.0,0.0,0.0,0.0,0.0,0.0,0.0,0.0,0.0,0.0,0.0,0.0,0.0,0.0,0.0,0.0,0.0,0.0,0.0,0.0,0.0,0.0,0.0,0.0,0.0,0.0,0.0,0.0,0.0,0.0,0.0,0.0,0.0,0.0,0.0,0.0,0.0,0.0,0.0,0.0,0.0,0.0,0.0,0.0,0.0,0.0,-0.4681,-0.4874,-0.5598,-0.6433,-0.7389,-0.8664,-0.954,0.0,0.0,0.0,0.0,0.0,0.0,0.0,0.0,0.0,0.0,0.0,0.0,0.0,0.0,0.0,0.0,0.0,0.0,0.0,0.0,0.0,0.0,0.0,0.0,0.0,0.0,0.0,0.0,0.0,0.0,0.0,0.0,0.0,0.0,0.0,0.0,0.0,0.0,0.0,0.0,0.0,0.0,0.0,0.0,0.0,0.0,0.0,0.0,0.0,0.0,0.0,0.0,0.0,0.0,0.0,0.0,0.0,0.0,0.0,0.0,0.0,0.0,0.0,0.0,0.0,0.0,0.0,0.0,0.0,0.0,0.0,0.0,0.0,0.0,0.0,0.0,0.0,0.0,0.0,0.0,0.0,0.0,0.0,0.0,0.0,0.0,0.0,0.0,0.0,0.0,0.0,0.0,0.0,0.0,0.0,0.0,0.0,0.0,0.0,0.0,0.0,0.0,0.0,0.0,0.0,0.0,0.0,-0.4321,-0.4634,-0.4627,-0.5524,-0.6353,-0.6947,-0.8225,-0.9315,-1.0061,0.0,0.0,0.0,0.0,0.0,0.0,0.0,0.0,0.0,0.0,0.0,0.0,0.0,0.0,0.0,0.0,0.0,0.0,0.0,0.0,0.0,0.0,0.0,0.0,0.0,0.0,0.0,0.0,0.0,0.0,0.0,0.0,0.0,0.0,0.0,0.0,0.0,0.0,-0.8194,-0.7711,0.0,0.0,0.0,0.0,0.0,0.0,0.0,0.0,-1.072,0.0,0.0,0.0,0.0,0.0,0.0,0.0,0.0,0.0,0.0,0.0,0.0,0.0,0.0,0.0,0.0,0.0,0.0,0.0,0.0,0.0,0.0,0.0,0.0,0.0,0.0,0.0,0.0,0.0,0.0,0.0,0.0,0.0,0.0,0.0,0.0,0.0,0.0,0.0,0.0,0.0,0.0,0.0,0.0,0.0,0.0,0.0,0.0,0.0,0.0,0.0,0.0,0.0,0.0,0.0,0.0,-0.3692,-0.4133,-0.4437,-0.4582,-0.4831,-0.5555,-0.6695,-0.73,-0.8151,-0.9249,0.0,0.0,0.0,0.0,0.0,0.0,0.0,0.0,0.0,0.0,0.0,0.0,0.0,0.0,0.0,0.0,0.0,0.0,0.0,0.0,0.0,0.0,0.0,0.0,0.0,0.0,0.0,0.0,0.0,0.0,0.0,0.0,0.0,0.0,0.0,0.0,0.0,0.0,0.0,-0.8258,-0.8245,0.0,0.0,0.0,0.0,0.0,0.0,0.0,0.0,-1.159,0.0,0.0,0.0,0.0,0.0,0.0,0.0,0.0,0.0,0.0,0.0,0.0,0.0,0.0,0.0,0.0,0.0,0.0,0.0,0.0,0.0,0.0,0.0,0.0,0.0,0.0,0.0,0.0,0.0,0.0,0.0,0.0,0.0,0.0,0.0,0.0,0.0,0.0,0.0,0.0,0.0,0.0,0.0,0.0,0.0,0.0,0.0,0.0,0.0,0.0,0.0,0.0,0.0,0.0,0.0,-0.3812,-0.422,-0.4431,-0.4498,-0.4806,-0.5366,-0.6271,-0.7099,-0.7868,0.0,0.0,0.0,0.0,0.0,0.0,0.0,0.0,0.0,0.0,0.0,0.0,0.0,0.0,0.0,0.0,0.0,0.0,0.0,0.0,0.0,0.0,0.0,0.0,0.0,0.0,0.0,0.0,0.0,0.0,0.0,0.0,0.0,0.0,0.0,0.0,0.0,0.0,0.0,0.0,-0.8617,-0.8707,-0.9131,0.0,0.0,0.0,0.0,0.0,0.0,-1.1421,-1.17,0.0,0.0,0.0,0.0,0.0,0.0,0.0,0.0,0.0,0.0,0.0,0.0,0.0,0.0,0.0,0.0,0.0,0.0,0.0,0.0,0.0,0.0,0.0,0.0,0.0,0.0,0.0,0.0,0.0,0.0,0.0,0.0,0.0,0.0,0.0,0.0,0.0,0.0,0.0,0.0,0.0,0.0,0.0,0.0,0.0,0.0,0.0,0.0,0.0,0.0,0.0,0.0,0.0,0.0,0.0,-0.3985,-0.4269,-0.447,-0.4499,-0.4901,-0.5422,-0.5909,-0.6954,-0.7711,0.0,0.0,0.0,0.0,0.0,0.0,0.0,0.0,0.0,0.0,0.0,0.0,0.0,0.0,0.0,0.0,0.0,0.0,0.0,0.0,0.0,0.0,0.0,0.0,0.0,0.0,0.0,0.0,0.0,0.0,0.0,0.0,0.0,0.0,0.0,0.0,0.0,0.0,0.0,0.0,0.0,-0.9169,-0.988,-0.9689,0.0,0.0,0.0,0.0,-1.1274,-1.1658,0.0,0.0,0.0,0.0,0.0,0.0,0.0,0.0,0.0,0.0,0.0,0.0,0.0,0.0,0.0,0.0,0.0,0.0,0.0,0.0,0.0,0.0,0.0,0.0,0.0,0.0,0.0,0.0,0.0,0.0,0.0,0.0,0.0,0.0,0.0,0.0,0.0,0.0,0.0,0.0,0.0,0.0,0.0,0.0,0.0,0.0,0.0,0.0,0.0,0.0,0.0,0.0,0.0,0.0,0.0,0.0,-0.4161,-0.4201,-0.4358,-0.4654,-0.4904,-0.529,-0.5899,-0.659,-0.7278,0.0,0.0,0.0,0.0,0.0,0.0,0.0,0.0,0.0,0.0,0.0,0.0,0.0,0.0,0.0,0.0,0.0,0.0,0.0,0.0,0.0,0.0,0.0,0.0,0.0,0.0,0.0,0.0,0.0,0.0,0.0,0.0,0.0,0.0,0.0,0.0,0.0,0.0,0.0,0.0,0.0,-0.9743,-1.0198,-1.0187,-1.0433,0.0,0.0,-1.1716,-1.2113,-1.2357,0.0,0.0,0.0,0.0,0.0,0.0,0.0,0.0,0.0,0.0,0.0,0.0,0.0,0.0,0.0,0.0,0.0,0.0,0.0,0.0,0.0,0.0,0.0,0.0,0.0,0.0,0.0,0.0,0.0,0.0,0.0,0.0,0.0,0.0,0.0,0.0,0.0,0.0,0.0,0.0,0.0,0.0,0.0,0.0,0.0,0.0,0.0,0.0,0.0,0.0,0.0,0.0,0.0,0.0,0.0,-0.3971,-0.4247,-0.4426,-0.456,-0.4693,-0.5007,-0.5356,-0.5712,-0.6373,-0.7053,0.0,0.0,0.0,0.0,0.0,0.0,0.0,0.0,0.0,0.0,0.0,0.0,0.0,0.0,0.0,0.0,0.0,0.0,0.0,0.0,0.0,0.0,0.0,0.0,0.0,0.0,0.0,0.0,0.0,0.0,0.0,0.0,0.0,0.0,0.0,0.0,0.0,0.0,0.0,0.0,0.0,0.0,-1.1022,-1.0977,0.0,0.0,0.0,-1.2083,-1.2198,0.0,0.0,0.0,0.0,0.0,0.0,0.0,0.0,0.0,0.0,0.0,0.0,0.0,0.0,0.0,0.0,0.0,0.0,0.0,0.0,0.0,0.0,0.0,0.0,0.0,0.0,0.0,0.0,0.0,0.0,0.0,0.0,0.0,0.0,0.0,0.0,0.0,0.0,0.0,0.0,0.0,0.0,0.0,0.0,0.0,0.0,0.0,0.0,0.0,0.0,0.0,0.0,0.0,0.0,0.0,0.0,0.0,-0.4357,-0.4611,-0.4726,-0.473,-0.5129,-0.5443,-0.5598,-0.6184,0.0,0.0,0.0,0.0,0.0,0.0,0.0,0.0,0.0,0.0,0.0,0.0,0.0,0.0,0.0,0.0,0.0,0.0,0.0,0.0,0.0,0.0,0.0,0.0,0.0,0.0,0.0,-1.1295,0.0,0.0,0.0,0.0,0.0,0.0,0.0,0.0,0.0,0.0,0.0,0.0,0.0,0.0,-1.1321,-1.1815,-1.1733,-1.1782,0.0,0.0,-1.2498,-1.2265,-1.226,-1.2119,0.0,0.0,0.0,0.0,0.0,0.0,0.0,0.0,0.0,0.0,0.0,0.0,0.0,0.0,0.0,0.0,0.0,0.0,0.0,0.0,0.0,0.0,0.0,0.0,0.0,0.0,0.0,0.0,0.0,0.0,0.0,0.0,0.0,0.0,0.0,0.0,0.0,0.0,0.0,0.0,0.0,0.0,0.0,0.0,0.0,0.0,0.0,0.0,0.0,0.0,0.0,0.0,0.0,0.0,0.0,-0.4568,-0.4725,-0.4768,-0.4735,-0.5287,-0.5601,-0.5595,-0.608,-0.6563,0.0,0.0,0.0,0.0,0.0,0.0,0.0,0.0,0.0,0.0,0.0,0.0,0.0,0.0,0.0,0.0,0.0,0.0,0.0,0.0,0.0,0.0,0.0,0.0,0.0,0.0,0.0,0.0,0.0,0.0,0.0,0.0,0.0,0.0,0.0,0.0,0.0,0.0,0.0,0.0,0.0,-1.1735,-1.2285,-1.2479,-1.2681,0.0,0.0,-1.3027,-1.2384,-1.246,-1.2248,-1.1287,0.0,0.0,0.0,0.0,0.0,0.0,0.0,0.0,0.0,0.0,0.0,0.0,0.0,0.0,0.0,0.0,0.0,0.0,0.0,0.0,0.0,0.0,0.0,0.0,0.0,0.0,0.0,0.0,0.0,0.0,0.0,0.0,0.0,0.0,0.0,0.0,0.0,0.0,0.0,0.0,0.0,0.0,0.0,0.0,0.0,0.0,0.0,0.0,0.0,0.0,0.0,0.0,0.0,-0.4186,-0.4607,-0.4697,-0.4742,-0.4732,-0.5165,-0.5443,-0.5398,-0.5771,-0.6226,0.0,0.0,0.0,0.0,0.0,0.0,0.0,0.0,0.0,0.0,0.0,0.0,0.0,0.0,0.0,0.0,0.0,0.0,0.0,0.0,0.0,0.0,0.0,0.0,0.0,0.0,0.0,0.0,-1.164,-1.1824,-1.2015,0.0,0.0,0.0,0.0,0.0,0.0,0.0,0.0,0.0,0.0,-1.22,-1.276,-1.2875,0.0,0.0,-1.3429,-1.3328,-1.2761,-1.273,-1.235,-1.1194,-1.1506,0.0,0.0,0.0,0.0,0.0,0.0,0.0,0.0,0.0,0.0,0.0,0.0,0.0,0.0,0.0,0.0,0.0,0.0,0.0,0.0,0.0,0.0,0.0,0.0,0.0,0.0,0.0,0.0,0.0,0.0,0.0,0.0,0.0,0.0,0.0,0.0,0.0,0.0,0.0,0.0,0.0,0.0,0.0,0.0,0.0,0.0,0.0,0.0,0.0,0.0,0.0,0.0,-0.4237,-0.4499,-0.469,-0.4694,-0.4618,-0.501,-0.5204,-0.5237,-0.552,-0.5844,0.0,0.0,0.0,0.0,0.0,0.0,0.0,0.0,0.0,0.0,0.0,0.0,0.0,0.0,0.0,0.0,0.0,0.0,0.0,0.0,0.0,0.0,0.0,0.0,0.0,0.0,0.0,0.0,-1.1654,-1.1893,-1.2074,0.0,0.0,0.0,0.0,0.0,0.0,0.0,0.0,0.0,0.0,-1.2572,-1.3044,-1.3048,-1.3134,-1.3342,-1.3493,-1.3354,-1.2844,-1.2765,-1.2447,-1.1422,0.0,0.0,0.0,0.0,0.0,0.0,0.0,0.0,0.0,0.0,0.0,0.0,0.0,0.0,0.0,0.0,0.0,0.0,0.0,0.0,0.0,0.0,0.0,0.0,0.0,0.0,0.0,0.0,0.0,0.0,0.0,0.0,0.0,0.0,0.0,0.0,0.0,0.0,0.0,0.0,0.0,0.0,0.0,0.0,0.0,0.0,0.0,0.0,0.0,0.0,0.0,0.0,0.0,-0.4396,-0.4313,-0.4654,-0.4733,-0.4416,-0.481,-0.501,-0.5012,-0.5272,-0.551,-0.5721,0.0,0.0,0.0,0.0,0.0,0.0,0.0,0.0,0.0,0.0,0.0,0.0,0.0,0.0,0.0,0.0,0.0,0.0,0.0,0.0,0.0,0.0,0.0,0.0,0.0,0.0,-1.192,-1.1642,-1.1497,0.0,0.0,0.0,0.0,0.0,0.0,0.0,0.0,0.0,0.0,-1.2242,-1.27,-1.3062,-1.2975,-1.3039,-1.3253,-1.3259,-1.3054,-1.2608,-1.2524,-1.2421,0.0,0.0,0.0,0.0,0.0,0.0,0.0,0.0,0.0,0.0,0.0,0.0,0.0,0.0,0.0,0.0,0.0,0.0,0.0,0.0,0.0,0.0,0.0,0.0,0.0,0.0,0.0,0.0,0.0863,0.0,0.0,0.0,0.0,0.0,0.0,0.0,0.0,0.0,0.0,0.0,0.212,0.1822,0.0,0.0,0.0,0.0,0.0,0.0,0.0,0.0,0.0,0.0,0.0,0.0,-0.3881,-0.4087,-0.4256,-0.4326,-0.4226,-0.4582,-0.4815,-0.4776,-0.4969,-0.5227,-0.5644,0.0,0.0,0.0,0.0,0.0,0.0,0.0,0.0,0.0,0.0,0.0,0.0,0.0,0.0,0.0,0.0,0.0,0.0,0.0,0.0,0.0,0.0,0.0,0.0,0.0,-1.1224,0.0,0.0,0.0,0.0,0.0,0.0,0.0,0.0,0.0,0.0,0.0,-1.1977,-1.2655,-1.2791,-1.297,-1.3448,-1.3287,-1.3202,0.0,0.0,0.0,0.0,0.0,0.0,0.0,0.0,0.0,0.0,0.0,0.0,0.0,0.0,-1.3765,-1.401,-1.4435,-1.4979,-1.5662,0.0,0.0,0.0,0.0,0.0,0.0,0.0,0.0,0.0,0.0,0.0,0.0,0.0,0.0,0.0,0.0,0.1597,0.0,0.0,0.0,0.0,0.0,0.0,0.0,0.0,0.2781,0.272,0.2557,0.2282,0.1971,0.0,0.0986,0.0332,0.0,0.0,0.0,0.0,0.0,0.0,0.0,0.0,-0.3607,-0.3864,-0.3986,-0.4047,-0.4058,-0.4296,-0.4488,-0.4637,-0.4753,-0.4994,-0.5344,-0.5679,-0.5949,0.0,0.0,0.0,0.0,0.0,0.0,0.0,0.0,0.0,0.0,0.0,0.0,0.0,0.0,0.0,0.0,0.0,0.0,0.0,0.0,0.0,0.0,0.0,-1.0863,0.0,0.0,0.0,0.0,0.0,0.0,0.0,0.0,0.0,-1.1423,-1.1856,-1.2401,-1.3015,-1.2975,-1.3059,-1.3487,0.0,0.0,0.0,0.0,0.0,0.0,0.0,-1.2698,-1.2387,-1.2456,-1.26,-1.2745,-1.3104,-1.3413,-1.3557,0.0,0.0,-1.4213,-1.4553,-1.5065,-1.5821,-1.6305,-1.6664,-1.7044,-1.7219,-1.7326,0.0,0.0,0.0,0.0,0.0,0.0,0.0,0.0,0.1802,0.192,0.0,0.206,0.0,0.0,0.0,0.0,0.0,0.0,0.0,0.0,0.3112,0.3116,0.2997,0.2662,0.2319,0.2008,0.1422,0.0835,0.0279,-0.0495,0.0,0.0,0.0,0.0,0.0,0.0,-0.3572,-0.3604,-0.3844,-0.3944,-0.3889,-0.3894,-0.4079,-0.448,-0.4597,-0.4742,-0.4883,-0.517,-0.5359,-0.5392,-0.6001,0.0,0.0,0.0,0.0,0.0,0.0,0.0,0.0,0.0,0.0,0.0,0.0,0.0,0.0,0.0,0.0,0.0,0.0,0.0,0.0,-1.062,0.0,0.0,0.0,0.0,0.0,0.0,0.0,0.0,0.0,0.0,-1.145,-1.2432,-1.3107,-1.2909,0.0,0.0,0.0,0.0,-1.2201,-1.2719,-1.2777,-1.267,-1.2351,-1.2576,-1.2746,-1.2603,0.0,0.0,-1.3258,-1.3417,-1.3546,-1.3621,-1.3823,-1.4098,-1.4545,-1.4924,-1.5392,-1.6028,-1.6503,-1.6943,-1.7245,-1.7389,-1.7494,0.0761,0.0,0.0,0.0,0.0,0.1885,0.2193,0.2621,0.2654,0.2711,0.2819,0.2958,0.0,0.0,0.0,0.0,0.0,0.0,0.3028,0.308,0.3115,0.3149,0.3148,0.2952,0.2659,0.2266,0.1739,0.1181,0.0657,0.0033,-0.058,-0.1204,0.0,0.0,0.0,0.0,-0.3011,-0.3299,-0.3411,-0.3538,-0.3699,-0.3854,-0.4082,-0.4408,-0.4235,-0.4211,-0.4388,-0.4543,-0.4622,-0.4622,-0.5153,0.0,0.0,0.0,0.0,0.0,0.0,0.0,0.0,0.0,0.0,0.0,0.0,0.0,0.0,0.0,0.0,0.0,0.0,0.0,-1.0067,-1.0187,-1.0254,0.0,0.0,0.0,0.0,0.0,0.0,0.0,0.0,0.0,-1.1785,-1.2218,-1.2639,0.0,0.0,-1.2915,-1.3214,-1.2842,-1.2645,-1.277,0.0,0.0,0.0,-1.2371,-1.2435,-1.2392,-1.2673,-1.3018,-1.3367,-1.3705,-1.3925,-1.3952,-1.4304,-1.4689,-1.496,-1.5146,-1.554,-1.6249,-1.654,-1.6819,-1.7303,-1.7286,-1.7229,0.1906,0.176,0.1567,0.1815,0.2332,0.2508,0.2804,0.318,0.3199,0.3326,0.3525,0.3694,0.3674,0.3535,0.3497,0.0,0.0,0.0,0.3153,0.3142,0.3209,0.3238,0.3192,0.3125,0.2891,0.2522,0.2119,0.1648,0.1109,0.0572,0.0033,-0.0544,0.0,0.0,-0.2129,-0.2361,-0.269,-0.3102,-0.3068,-0.3195,-0.3536,-0.376,-0.3933,-0.4115,-0.3943,-0.3907,-0.3983,-0.4084,-0.409,-0.3992,-0.4425,-0.4788,0.0,0.0,0.0,0.0,0.0,0.0,0.0,0.0,0.0,0.0,0.0,-0.721,-0.7752,0.0,0.0,0.0,-0.9171,-0.946,-0.9515,-0.9634,0.0,0.0,0.0,0.0,0.0,0.0,0.0,-1.1605,-1.1863,-1.2018,-1.206,-1.2198,-1.2412,-1.2744,-1.2784,-1.2857,-1.2999,0.0,-1.261,-1.261,-1.2418,-1.2305,-1.2305,-1.2305,-1.2342,-1.2526,-1.2636,-1.2936,-1.3419,-1.3783,-1.4029,-1.4209,-1.4533,-1.4892,-1.5248,-1.5347,-1.5575,-1.6289,-1.6429,-1.6568,-1.716,-1.706,-1.7005,0.2829,0.3134,0.2719,0.2652,0.2784,0.3049,0.3262,0.3389,0.354,0.3763,0.4095,0.4256,0.4295,0.4193,0.3737,0.0,0.0,0.3425,0.3311,0.3226,0.3397,0.3395,0.3192,0.3192,0.3025,0.2686,0.2488,0.2119,0.1614,0.1109,0.0571,0.0067,-0.0638,-0.1378,-0.2085,-0.2153,-0.2423,-0.2933,-0.2835,-0.3013,-0.3415,-0.3621,-0.3723,-0.3683,-0.3714,-0.3712,-0.3672,-0.3716,-0.3661,-0.3464,-0.3763,-0.4025,-0.4251,0.0,0.0,0.0,0.0,0.0,0.0,0.0,0.0,0.0,0.0,0.0,0.0,0.0,0.0,0.0,-0.8888,0.0,-0.8937,-0.9051,0.0,0.0,0.0,-0.983,-1.0425,-1.0657,-1.1013,-1.155,0.0,0.0,0.0,0.0,-1.2368,-1.2679,-1.275,-1.275,-1.2788,-1.2516,-1.2305,-1.2325,-1.2311,-1.2305,-1.2305,-1.2268,-1.2342,-1.2673,-1.268,-1.2783,-1.3309,-1.3645,-1.3935,-1.4253,-1.4497,-1.4748,-1.5328,-1.5417,-1.5655,-1.607,-1.6184,-1.6342,-1.6822,-1.6932,-1.6929,0.3704,0.3932,0.3767,0.3576,0.343,0.3692,0.3921,0.4149,0.4276,0.4528,0.4821,0.4625,0.4444,0.4257,0.3893,0.3699,0.369,0.3529,0.3376,0.3226,0.3261,0.3228,0.3192,0.3192,0.3025,0.272,0.2488,0.2188,0.1816,0.1378,0.0974,0.0605,0.0168,-0.0538,-0.1479,-0.1816,-0.2142,-0.2466,-0.2583,-0.2737,-0.2965,-0.2942,-0.3167,-0.3526,-0.334,-0.3265,-0.3381,-0.3378,-0.3192,-0.2922,-0.3226,-0.356,-0.3889,-0.3856,0.0,0.0,0.0,0.0,0.0,0.0,0.0,0.0,0.0,-0.6788,-0.7458,0.0,-0.7866,0.0,-0.8387,-0.8705,-0.9154,-0.919,0.0,0.0,-0.9626,-0.9887,-1.0343,-1.0593,-1.0911,-1.1389,-1.1611,-1.1777,-1.1848,-1.1861,-1.1911,-1.2168,-1.2337,-1.2405,-1.2405,-1.2351,-1.2305,-1.2305,-1.2305,-1.2305,-1.2268,-1.204,-1.1966,-1.2194,-1.2298,-1.2526,-1.2973,-1.3463,-1.3834,-1.3971,-1.4325,-1.4605,-1.4784,-1.5177,-1.5581,-1.5867,-1.6094,-1.6412,-1.6813,-1.6899,-1.695,0.4433,0.4664,0.4567,0.4373,0.4156,0.4133,0.4331,0.4665,0.4613,0.4855,0.5319,0.512,0.499,0.4858,0.4359,0.4095,0.403,0.3797,0.3627,0.346,0.3458,0.3426,0.3328,0.3261,0.3025,0.2686,0.2587,0.2388,0.2018,0.1614,0.1277,0.0941,0.0571,0.0034,-0.0706,-0.1277,-0.1763,-0.2272,-0.2542,-0.2644,-0.2617,-0.2708,-0.2933,-0.3262,-0.3107,-0.2999,-0.3056,-0.3075,-0.2956,-0.2587,-0.2824,-0.309,-0.3288,-0.3344,-0.3501,0.0,0.0,0.0,0.0,0.0,0.0,0.0,0.0,0.0,0.0,0.0,-0.7569,0.0,-0.8314,0.0,-0.9077,-0.9093,-0.919,-0.9526,-0.9628,-0.9829,-1.0253,-1.0491,-1.077,-1.1093,-1.1372,-1.1564,-1.1558,-1.1669,-1.1744,-1.1855,-1.1966,-1.2114,-1.2268,-1.2305,-1.2305,-1.2305,-1.2305,-1.2268,-1.2187,-1.1892,-1.1737,-1.1972,-1.2083,-1.2274,-1.2826,-1.3331,-1.3711,-1.3797,-1.4109,-1.4418,-1.4569,-1.4927,-1.5339,-1.578,-1.6409,-1.683,-1.6917,-1.693,-1.7003,0.4971,0.5318,0.5143,0.5014,0.4965,0.4637,0.4697,0.5024,0.4873,0.509,0.5583,0.5583,0.555,0.5451,0.4891,0.4495,0.4267,0.4131,0.3961,0.3792,0.3777,0.3682,0.3498,0.3316,0.3047,0.272,0.272,0.2554,0.2221,0.1816,0.1479,0.1176,0.0773,0.0403,0.0034,-0.0571,-0.1343,-0.2143,-0.2542,-0.2612,-0.238,-0.2612,-0.2794,-0.2941,-0.293,-0.2861,-0.2701,-0.2861,-0.279,-0.2424,-0.2587,-0.2686,-0.2686,-0.2956,-0.3154,0.0,-0.3485,0.0,0.0,0.0,0.0,0.0,0.0,0.0,0.0,-0.6924,-0.7464,-0.8186,-0.8409,-0.8593,-0.8872,-0.8913,-0.9103,-0.9526,-0.9589,-0.9738,-1.0083,-1.0325,-1.0513,-1.07,-1.1074,-1.1298,-1.126,-1.1453,-1.1558,-1.1595,-1.1626,-1.1781,-1.212,-1.2231,-1.2268,-1.2305,-1.2268,-1.2194,-1.2003,-1.1781,-1.17,-1.1855,-1.1898,-1.2096,-1.2643,-1.3075,-1.3426,-1.3688,-1.3884,-1.4173,-1.4489,-1.4721,-1.506,-1.5503,-1.6422,-1.7045,-1.6928,-1.7062,-1.7204,0.5171,0.5509,0.5401,0.5398,0.5556,0.5544,0.5432,0.5333,0.5572,0.5653,0.5583,0.5488,0.5256,0.496,0.4827,0.4531,0.4064,0.42,0.4064,0.3789,0.3708,0.3586,0.3489,0.3351,0.3154,0.2954,0.2787,0.2587,0.2356,0.2018,0.1748,0.1479,0.1143,0.0806,0.0403,0.0,0.0,0.0,-0.2172,-0.2275,-0.215,-0.2272,-0.2427,-0.2636,-0.2586,0.0,-0.2633,-0.2719,-0.2654,-0.2423,-0.2587,0.0,0.0,0.0,0.0,0.0,0.0,0.0,0.0,0.0,0.0,0.0,-0.4653,-0.5313,-0.6119,-0.6673,-0.7208,-0.7821,-0.7911,-0.8222,-0.8913,-0.8975,-0.9065,-0.9326,-0.9519,-0.9653,-0.9733,-1.003,-1.0293,-1.0331,-1.0513,-1.0663,-1.07,-1.07,-1.085,-1.1143,-1.1217,-1.1372,-1.175,-1.1929,-1.2114,-1.2224,-1.2157,-1.2003,-1.1774,-1.1595,-1.1409,-1.1335,-1.1558,-1.1824,-1.2157,-1.2532,-1.2907,-1.3266,-1.3608,-1.392,-1.4158,-1.4569,-1.4824,-1.4833,-1.5408,-1.6054,-1.6555,-1.7311,-1.7926,0.5634,0.0,0.587,0.587,0.0,0.6111,0.6047,0.5822,0.5888,0.5885,0.5914,0.5818,0.5624,0.5322,0.499,0.4632,0.43,0.4177,0.4022,0.3823,0.3712,0.3622,0.3608,0.3364,0.3143,0.2961,0.277,0.2567,0.2338,0.2045,0.1818,0.158,0.1318,0.1055,0.0758,0.0367,-0.0401,-0.1448,-0.187,-0.2071,-0.2143,-0.2171,-0.227,-0.247,0.0,0.0,0.0,0.0,0.0,0.0,0.0,0.0,0.0,0.0,0.0,-0.2504,-0.2634,-0.2837,-0.3132,-0.3332,-0.3491,-0.3732,-0.4322,-0.5021,-0.586,-0.6441,-0.6916,-0.7327,-0.7625,-0.7988,-0.8508,-0.8713,-0.8941,-0.9127,-0.9316,-0.9473,-0.9473,-0.962,-0.9809,-0.9922,-1.0067,-1.0255,-1.0331,-1.0443,-1.0588,-1.0775,-1.0887,-1.0999,-1.126,-1.1663,-1.2077,-1.2268,-1.212,-1.1935,-1.1737,-1.1521,-1.1335,-1.1186,-1.126,-1.1558,-1.1929,-1.2238,-1.2576,-1.2966,-1.3259,-1.3472,-1.3671,-1.3944,-1.4185,-1.4257,-1.4508,-1.5078,-1.6038,-1.703,-1.7789,0.6135,0.6409,0.6384,0.6289,0.6165,0.6493,0.6475,0.6214,0.0,0.0,0.0,0.615,0.6007,0.5767,0.5165,0.4753,0.4517,0.4137,0.3933,0.3872,0.3737,0.3681,0.3666,0.3336,0.309,0.2954,0.2774,0.2594,0.2334,0.2038,0.1819,0.163,0.1391,0.1202,0.0939,0.0365,-0.0268,-0.0935,-0.1509,-0.1913,-0.2106,-0.2114,-0.2221,-0.2356,-0.2052,-0.1985,-0.2119,-0.1782,-0.1681,-0.1816,-0.1681,-0.1681,-0.1849,-0.1951,-0.2052,-0.2153,-0.2353,-0.2587,-0.2788,-0.2857,-0.303,-0.3452,-0.4122,-0.4862,-0.5613,-0.6184,-0.6583,-0.6824,-0.7357,-0.7748,-0.8063,-0.8403,-0.8661,-0.8884,-0.9127,-0.9251,-0.9208,-0.9284,-0.9397,-0.9549,-0.9733,-0.9916,-1.0067,-1.0223,-1.0363,-1.04,-1.0481,-1.0663,-1.0856,-1.1409,-1.1929,-1.212,-1.1972,-1.1818,-1.1669,-1.1446,-1.1292,-1.1149,-1.1111,-1.1298,-1.1781,-1.209,-1.2355,-1.2753,-1.2935,-1.3083,-1.3192,-1.3374,-1.3471,-1.3763,-1.3887,-1.4311,-1.5427,-1.6409,-1.7198,0.6395,0.6819,0.6644,0.6482,0.6369,0.6607,0.6565,0.6354,0.6214,0.6251,0.6342,0.5892,0.5608,0.5449,0.5047,0.4642,0.4271,0.4192,0.4058,0.0,0.3624,0.3605,0.3661,0.3235,0.309,0.3136,0.2866,0.2628,0.2458,0.2155,0.1902,0.1689,0.1436,0.1156,0.0843,0.0465,0.0033,-0.0423,-0.1064,-0.1528,-0.185,-0.1926,-0.2052,-0.2188,-0.2018,-0.1918,-0.1951,-0.1715,-0.1614,-0.1648,-0.1614,-0.1614,-0.1614,-0.1513,-0.158,-0.1884,-0.1816,-0.1849,-0.2052,-0.2221,-0.2615,-0.3362,-0.3676,-0.4336,-0.5507,-0.5841,-0.6163,-0.6605,-0.6846,-0.7326,-0.7987,-0.8097,-0.8241,-0.8475,-0.8822,-0.898,-0.8813,-0.9051,-0.9279,-0.9306,-0.9506,-0.962,-0.9657,-0.9695,-0.9809,-0.9916,-0.9916,-1.0035,-1.0669,-1.1186,-1.1515,-1.1706,-1.1595,-1.1484,-1.1453,-1.126,-1.1111,-1.1117,-1.1074,-1.1186,-1.1632,-1.1724,-1.1946,-1.2519,-1.2694,-1.2834,-1.2988,-1.3197,-1.3248,-1.3333,-1.3656,-1.4233,-1.4826,-1.553,-1.635,0.6707,0.6892,0.7053,0.6871,0.6504,0.6515,0.656,0.6548,0.6511,0.6445,0.6375,0.6132,0.5857,0.5536,0.5229,0.475,0.4198,0.4036,0.3888,0.3711,0.3545,0.3519,0.3595,0.317,0.3003,0.3101,0.2755,0.2537,0.2431,0.2153,0.1951,0.1767,0.1558,0.1349,0.1057,0.0836,0.0535,0.0132,-0.0735,-0.137,-0.1684,-0.1837,-0.1985,-0.2188,-0.1884,-0.1748,-0.1748,-0.1479,-0.1344,-0.1412,-0.1378,-0.1344,-0.1445,-0.1344,-0.1378,-0.1547,-0.158,-0.1681,-0.1884,-0.2085,-0.2415,-0.2929,-0.3319,-0.389,-0.4723,-0.5156,-0.552,-0.5777,-0.6087,-0.6543,-0.7049,-0.7209,-0.7458,-0.7897,-0.8123,-0.8281,-0.8407,-0.8609,-0.8817,-0.8843,-0.8977,-0.9122,-0.9122,-0.9198,-0.9306,-0.9382,-0.9392,-0.9652,-1.0212,-1.0357,-1.0769,-1.149,-1.1446,-1.1254,-1.1223,-1.0962,-1.0818,-1.0775,-1.0775,-1.0962,-1.1285,-1.1279,-1.1387,-1.1748,-1.1915,-1.1916,-1.2023,-1.2228,-1.2404,-1.2647,-1.2881,-1.3379,-1.3917,-1.4706,-1.5704,0.7288,0.7322,0.7595,0.7352,0.675,0.657,0.6581,0.6704,0.6741,0.6679,0.6515,0.6445,0.6149,0.5722,0.5379,0.4893,0.4342,0.3999,0.3814,0.368,0.3508,0.3496,0.3576,0.3156,0.2973,0.3027,0.2689,0.2474,0.2365,0.2233,0.2039,0.1812,0.1647,0.1466,0.1266,0.1106,0.0838,0.0466,-0.0402,-0.1043,-0.1412,-0.158,-0.1782,-0.1951,-0.1648,-0.1479,-0.1512,-0.1244,-0.1143,-0.1244,-0.1143,-0.1143,-0.1244,-0.1277,-0.1277,-0.1311,-0.1445,-0.1614,-0.1816,-0.1951,-0.2206,-0.2525,-0.2979,-0.3459,-0.3923,-0.4433,-0.4817,-0.5095,-0.5526,-0.588,-0.6204,-0.6428,-0.6704,-0.7169,-0.7438,-0.7654,-0.7764,-0.8092,-0.831,-0.8291,-0.8459,-0.8562,-0.8647,-0.8732,-0.8769,-0.8807,-0.8939,-0.9155,-0.9521,-0.9468,-0.9957,-1.0767,-1.1032,-1.0919,-1.0925,-1.0738,-1.0527,-1.0456,-1.0427,-1.0561,-1.076,-1.0701,-1.0796,-1.1137,-1.1168,-1.1216,-1.1253,-1.1399,-1.1665,-1.1921,-1.2133,-1.25,-1.334,-1.4048,-1.4976,0.836,0.8508,0.836,0.791,0.7243,0.6974,0.6811,0.6741,0.6843,0.6876,0.6835,0.6538,0.6208,0.5844,0.5413,0.5019,0.4613,0.4181,0.3972,0.3917,0.3627,0.3567,0.364,0.3261,0.304,0.3009,0.2722,0.2501,0.2353,0.231,0.2144,0.1865,0.1632,0.1389,0.1139,0.0966,0.0733,0.0487,0.01,-0.037,-0.084,-0.0873,-0.1076,-0.1378,-0.1244,-0.121,-0.1311,-0.1176,-0.1109,-0.1109,-0.1109,-0.1109,-0.1109,-0.1109,-0.1176,-0.1277,-0.1311,-0.1412,-0.1614,-0.1648,-0.1884,-0.2357,-0.2631,-0.2975,-0.3463,-0.3797,-0.4219,-0.4839,-0.5319,-0.559,-0.5917,-0.6088,-0.6228,-0.6383,-0.6984,-0.7323,-0.7054,-0.7601,-0.8055,-0.788,-0.8007,-0.8226,-0.8307,-0.8253,-0.8199,-0.8245,-0.8286,-0.8419,-0.879,-0.8852,-0.9021,-0.9703,-1.002,-1.0346,-1.0475,-1.055,-1.0379,-1.025,-1.0229,-1.0263,-1.0296,-1.0406,-1.0549,-1.0732,-1.0979,-1.1028,-1.1102,-1.123,-1.1274,-1.1462,-1.1731,-1.218,-1.3084,-1.3549,-1.413,0.8627,0.8703,0.8737,0.85,0.8056,0.7377,0.7171,0.7269,0.7138,0.7073,0.7064,0.6923,0.6602,0.6053,0.5759,0.536,0.4975,0.4581,0.4372,0.4252,0.3833,0.3678,0.3775,0.3374,0.3143,0.3155,0.2817,0.2634,0.2539,0.2538,0.236,0.2115,0.2027,0.1885,0.1591,0.1506,0.1305,0.0959,0.0769,0.037,-0.0135,-0.0572,-0.0941,-0.1143,-0.1143,-0.1076,-0.1008,-0.0941,-0.0875,-0.0775,-0.074,-0.074,-0.0741,-0.0876,-0.0943,-0.101,-0.1211,-0.1344,-0.1412,-0.1547,-0.1681,-0.1915,-0.2316,-0.2619,-0.2855,-0.3422,-0.3968,-0.4259,-0.4692,-0.5051,-0.5297,-0.5331,-0.5472,-0.5875,-0.6237,-0.6406,-0.6556,-0.7188,-0.7517,-0.7239,-0.7419,-0.7588,-0.7608,-0.7612,-0.7708,-0.7857,-0.7857,-0.7924,-0.8276,-0.8332,-0.8556,-0.8926,-0.9211,-0.9575,-1.0007,-1.0048,-0.9974,-0.9941,-0.9848,-0.9808,-1.0003,-0.9942,-1.0036,-1.0301,-1.0403,-1.0482,-1.0425,-1.0735,-1.0905,-1.116,-1.1685,-1.2204,-1.2898,-1.3217,-1.3654,0.897,0.9021,0.903,0.8798,0.8399,0.765,0.7433,0.7531,0.7363,0.7265,0.7265,0.7232,0.6928,0.6489,0.6221,0.5903,0.554,0.5098,0.4849,0.4695,0.4168,0.3892,0.3923,0.3582,0.3327,0.3175,0.2915,0.2756,0.2667,0.2687,0.2554,0.2322,0.2322,0.2188,0.1918,0.1849,0.1648,0.1311,0.1176,0.0875,0.0337,-0.0202,-0.0605,-0.0841,-0.0875,-0.0841,-0.074,-0.074,-0.064,-0.0506,-0.0472,-0.0472,-0.0506,-0.0641,-0.0742,-0.0809,-0.1077,-0.1311,-0.1378,-0.1479,-0.1547,-0.1715,-0.2049,-0.2284,-0.2485,-0.3054,-0.3525,-0.3737,-0.4068,-0.4466,-0.4739,-0.4748,-0.493,-0.5332,-0.5421,-0.5661,-0.5922,-0.6571,-0.6865,-0.6577,-0.6797,-0.7025,-0.6995,-0.7132,-0.7353,-0.7642,-0.7557,-0.7588,-0.7894,-0.7964,-0.7994,-0.8392,-0.8545,-0.8912,-0.9548,-0.9584,-0.9497,-0.9499,-0.9416,-0.9478,-0.9662,-0.9528,-0.9561,-0.9867,-0.9794,-0.9925,-1.0238,-1.0461,-1.0726,-1.1192,-1.1654,-1.2151,-1.2692,-1.2978,-1.3177,0.9657,0.9734,0.9222,0.8603,0.7845,0.7725,0.7498,0.733,0.7428,0.7493,0.7461,0.7297,0.7195,0.7111,0.6809,0.6597,0.635,0.5666,0.5382,0.5287,0.4686,0.4272,0.4078,0.3945,0.3582,0.3157,0.306,0.2888,0.2674,0.2682,0.2589,0.2389,0.2288,0.2119,0.1918,0.1748,0.1547,0.1344,0.121,0.0909,0.0539,0.0337,0.0034,-0.0303,-0.0337,-0.0404,-0.0472,-0.0506,-0.0506,-0.0472,-0.0472,-0.0472,-0.0506,-0.0506,-0.0607,-0.0776,-0.1009,-0.1244,-0.1512,-0.1412,-0.1479,-0.1782,-0.1884,-0.1985,-0.2153,-0.2586,-0.2989,-0.3464,-0.3703,-0.3989,-0.4323,-0.4525,-0.4585,-0.4546,-0.497,-0.5153,-0.4966,-0.5779,-0.6058,-0.5997,-0.6277,-0.6557,-0.6694,-0.689,-0.7132,-0.7324,-0.7185,-0.7142,-0.7607,-0.7492,-0.7558,-0.784,-0.8181,-0.8567,-0.916,-0.9246,-0.9088,-0.9073,-0.9173,-0.9125,-0.9046,-0.9072,-0.9303,-0.9534,-0.9656,-0.9868,-1.0149,-1.0466,-1.0751,-1.1153,-1.1529,-1.2027,-1.2428,-1.256,-1.2763,0.9756,0.9669,0.931,0.8869,0.8474,0.8144,0.7949,0.7814,0.7689,0.7629,0.7596,0.7461,0.7396,0.7396,0.726,0.7033,0.6716,0.6124,0.586,0.5795,0.5281,0.4859,0.4561,0.4426,0.4081,0.3619,0.3407,0.3211,0.301,0.2911,0.2788,0.2587,0.2423,0.2255,0.2085,0.2018,0.1884,0.1715,0.1648,0.1379,0.0909,0.0841,0.0572,0.0135,-0.0034,-0.0135,-0.0202,-0.0169,-0.0169,-0.0169,0.0,-0.0169,-0.0202,-0.0304,-0.0506,-0.0742,-0.0876,-0.1043,-0.1345,-0.1344,-0.1344,-0.1479,-0.1648,-0.1748,-0.1883,-0.2217,-0.2653,-0.2956,-0.3393,-0.3727,-0.3971,-0.4243,-0.4461,-0.4535,-0.4707,-0.4828,-0.4937,-0.5393,-0.5731,-0.5689,-0.6017,-0.6413,-0.6512,-0.6676,-0.689,-0.7043,-0.6933,-0.7007,-0.7303,-0.7379,-0.7481,-0.7715,-0.7918,-0.8064,-0.8354,-0.8784,-0.8942,-0.8962,-0.897,-0.903,-0.9002,-0.9189,-0.9426,-0.942,-0.9542,-0.9708,-0.9958,-1.0308,-1.0649,-1.1028,-1.1428,-1.184,-1.2212,-1.2406,-1.256,0.9862,0.9592,0.9308,0.9042,0.8778,0.8368,0.8172,0.8112,0.7824,0.7699,0.7666,0.7596,0.7559,0.7526,0.7526,0.7396,0.7073,0.6535,0.6309,0.628,0.5752,0.5335,0.5094,0.476,0.4399,0.3961,0.3631,0.3416,0.3253,0.3147,0.2956,0.2788,0.2589,0.2423,0.2288,0.2255,0.2085,0.1883,0.1782,0.1548,0.1077,0.1009,0.0808,0.0404,0.0236,0.0101,0.0,0.0,0.0,0.0,0.0,-0.0034,-0.0101,-0.027,-0.0472,-0.0674,-0.0776,-0.0909,-0.1177,-0.1244,-0.1277,-0.1311,-0.1412,-0.1512,-0.1547,-0.195,-0.2316,-0.2653,-0.3058,-0.3429,-0.3694,-0.3966,-0.4197,-0.4361,-0.4392,-0.4428,-0.4564,-0.4974,-0.5315,-0.5506,-0.5847,-0.6139,-0.6362,-0.6497,-0.6699,-0.6911,-0.6798,-0.6861,-0.7209,-0.7345,-0.7481,-0.7678,-0.7731,-0.7793,-0.7976,-0.8302,-0.8564,-0.8634,-0.881,-0.8885,-0.899,-0.9253,-0.9382,-0.9338,-0.9408,-0.9574,-0.9804,-1.0149,-1.0523,-1.0902,-1.1341,-1.1747,-1.2034,-1.2282,-1.2406,0.9968,0.9598,0.9314,0.9029,0.868,0.8372,0.8155,0.8045,0.7829,0.7764,0.7727,0.7699,0.7661,0.7559,0.7629,0.7596,0.7396,0.6905,0.6745,0.6778,0.605,0.5676,0.5627,0.5022,0.4547,0.4187,0.3668,0.3427,0.3411,0.3255,0.3092,0.2989,0.2755,0.2554,0.2389,0.2255,0.2018,0.1748,0.1681,0.138,0.0876,0.0876,0.0741,0.0539,0.0506,0.0337,0.0,0.0,0.0,0.0,0.0,0.0,-0.0202,-0.0371,-0.0506,-0.054,-0.0674,-0.0876,-0.1042,-0.1109,-0.1176,-0.1244,-0.1311,-0.1311,-0.1378,-0.1681,-0.2017,-0.2318,-0.272,-0.3125,-0.3393,-0.3627,-0.3861,-0.3961,-0.4061,-0.4061,-0.4128,-0.4361,-0.4858,-0.5359,-0.5622,-0.583,-0.623,-0.6414,-0.6546,-0.6827,-0.6835,-0.6854,-0.7263,-0.7289,-0.7325,-0.7484,-0.7626,-0.766,-0.7744,-0.7862,-0.8077,-0.8283,-0.8554,-0.8705,-0.8867,-0.906,-0.9247,-0.9274,-0.9414,-0.9548,-0.9772,-1.0085,-1.0364,-1.0776,-1.1185,-1.1529,-1.1778,-1.1996,-1.2212,1.0153,0.9796,0.9744,0.9425,0.9013,0.8778,0.8582,0.8394,0.8156,0.8014,0.7922,0.7922,0.7884,0.7819,0.7759,0.7666,0.7596,0.7237,0.7073,0.7007,0.6576,0.6183,0.594,0.5643,0.5133,0.4519,0.4022,0.3779,0.3617,0.338,0.3192,0.3092,0.2855,0.2587,0.2423,0.2356,0.2221,0.2018,0.1884,0.1648,0.1346,0.1212,0.101,0.0741,0.0708,0.0573,0.0371,0.0337,0.0337,0.0337,0.0337,0.027,0.0101,-0.0067,-0.0202,-0.0337,-0.0506,-0.0674,-0.0876,-0.1009,-0.1109,-0.1143,-0.1176,-0.121,-0.1311,-0.1513,-0.1748,-0.1915,-0.2285,-0.269,-0.2924,-0.3125,-0.3426,-0.3928,-0.3928,-0.3894,-0.3961,-0.4128,-0.4392,-0.4837,-0.5241,-0.5607,-0.5984,-0.6184,-0.6459,-0.6733,-0.6718,-0.6821,-0.7003,-0.716,-0.7269,-0.7461,-0.7522,-0.7593,-0.7716,-0.7854,-0.8041,-0.8292,-0.852,-0.8728,-0.8827,-0.9077,-0.9211,-0.9271,-0.9406,-0.9548,-0.9772,-1.0021,-1.0276,-1.0523,-1.0902,-1.1185,-1.1435,-1.1709,-1.1988,1.0427,1.0101,1.0047,0.9816,0.945,0.9144,0.8895,0.8661,0.8336,0.8172,0.8079,0.8084,0.8047,0.7982,0.7857,0.7764,0.7666,0.7428,0.733,0.7232,0.6868,0.6576,0.6346,0.6017,0.5417,0.4671,0.427,0.3992,0.3792,0.3426,0.3192,0.3159,0.2956,0.2721,0.2522,0.2423,0.2322,0.2085,0.1951,0.1748,0.1513,0.1344,0.1177,0.0943,0.0909,0.0809,0.0641,0.0607,0.0573,0.0438,0.0304,0.0202,0.0169,0.0,-0.0169,-0.0304,-0.0405,-0.0472,-0.0607,-0.0841,-0.0976,-0.0976,-0.1076,-0.1143,-0.1244,-0.1378,-0.1479,-0.1547,-0.1918,-0.2255,-0.2386,-0.2589,-0.2956,-0.356,-0.3661,-0.3761,-0.3894,-0.3928,-0.4095,-0.4473,-0.4791,-0.5182,-0.5637,-0.5841,-0.618,-0.6423,-0.6552,-0.6675,-0.6811,-0.704,-0.7232,-0.7372,-0.7461,-0.7555,-0.7674,-0.7841,-0.804,-0.8326,-0.8622,-0.876,-0.8911,-0.9299,-0.9556,-0.9414,-0.9447,-0.9432,-0.9638,-0.9894,-1.0149,-1.0396,-1.0586,-1.0965,-1.1272,-1.1615,-1.1895,1.07,1.0484,1.0292,1.0075,0.9816,0.9376,0.9063,0.8824,0.8439,0.8236,0.8236,0.8236,0.8139,0.8014,0.7987,0.7889,0.7694,0.7559,0.7489,0.733,0.697,0.6708,0.6651,0.6119,0.5432,0.4735,0.4443,0.4187,0.3925,0.3527,0.3259,0.3326,0.3159,0.2922,0.2721,0.2522,0.2288,0.2018,0.1918,0.1715,0.1412,0.1311,0.1244,0.111,0.1076,0.0976,0.0843,0.0742,0.0607,0.0304,0.0034,-0.0034,-0.0034,-0.0169,-0.0236,-0.027,-0.0304,-0.0304,-0.0371,-0.0607,-0.0775,-0.0843,-0.0976,-0.1109,-0.1143,-0.1244,-0.1311,-0.1311,-0.1648,-0.1914,-0.1944,-0.2151,-0.2517,-0.2947,-0.3353,-0.3594,-0.3758,-0.3758,-0.3859,-0.409,-0.4289,-0.4525,-0.5183,-0.5312,-0.5675,-0.6102,-0.6358,-0.6482,-0.6708,-0.6937,-0.7134,-0.7227,-0.7338,-0.7479,-0.7582,-0.7767,-0.7994,-0.8295,-0.8548,-0.867,-0.8897,-0.927,-0.9603,-0.9489,-0.9438,-0.9435,-0.951,-0.9798,-0.9926,-1.0079,-1.0364,-1.0776,-1.1115,-1.1397,-1.174,1.0925,1.0714,1.0469,1.0189,0.9868,0.9336,0.9024,0.8868,0.8581,0.8409,0.8409,0.8409,0.8312,0.8139,0.8019,0.7894,0.7699,0.7559,0.7493,0.7428,0.704,0.6712,0.6449,0.5951,0.5434,0.4973,0.4668,0.4459,0.4359,0.3925,0.383,0.3997,0.3529,0.3226,0.2958,0.2721,0.2455,0.2153,0.1951,0.1884,0.1715,0.1445,0.1277,0.1244,0.1143,0.1076,0.0976,0.0741,0.054,0.0438,0.027,0.0169,0.0169,0.0,0.0,-0.0101,-0.0236,-0.0304,-0.0337,-0.0472,-0.0641,-0.0775,-0.0843,-0.0943,-0.1076,-0.121,-0.1244,-0.1244,-0.1479,-0.1665,-0.171,-0.199,-0.2425,-0.2917,-0.3271,-0.3482,-0.3556,-0.3462,-0.3393,-0.3491,-0.3789,-0.4056,-0.4386,-0.4851,-0.5385,-0.5984,-0.6247,-0.6379,-0.6609,-0.6773,-0.6937,-0.7028,-0.7114,-0.7324,-0.7482,-0.7704,-0.7971,-0.8264,-0.8443,-0.8489,-0.8695,-0.8959,-0.9286,-0.9415,-0.9427,-0.942,-0.9542,-0.9708,-0.9766,-0.9856,-1.0174,-1.0586,-1.0839,-1.1115,-1.1459,1.1111,1.0907,1.0646,1.0328,0.9982,0.9468,0.9091,0.888,0.8624,0.8517,0.8479,0.8409,0.8306,0.8204,0.7949,0.7797,0.7666,0.7466,0.7363,0.7297,0.6975,0.6613,0.6313,0.5947,0.565,0.5286,0.4954,0.4725,0.4525,0.4159,0.4028,0.3995,0.3763,0.346,0.3092,0.2889,0.2654,0.2322,0.2119,0.2018,0.1884,0.1681,0.1445,0.1344,0.121,0.1109,0.0841,0.0573,0.0404,0.0371,0.027,0.0202,0.027,0.0101,0.0,0.0,-0.0101,-0.0169,-0.0202,-0.0337,-0.0472,-0.0573,-0.0607,-0.0775,-0.0942,-0.1043,-0.1075,-0.1092,-0.1258,-0.1336,-0.1438,-0.18,-0.225,-0.2607,-0.3049,-0.3325,-0.3528,-0.3438,-0.3357,-0.3393,-0.346,-0.3656,-0.382,-0.4422,-0.5054,-0.5653,-0.5984,-0.6218,-0.6482,-0.6609,-0.6712,-0.6825,-0.6941,-0.7118,-0.7307,-0.7533,-0.7725,-0.804,-0.823,-0.8272,-0.8617,-0.8821,-0.9127,-0.9376,-0.9403,-0.9446,-0.9542,-0.9644,-0.9772,-0.9894,-1.0149,-1.0364,-1.0649,-1.0902,-1.1247,1.1285,1.1045,1.0749,1.042,1.0053,0.9559,0.9097,0.8842,0.8603,0.8517,0.8479,0.8269,0.8172,0.8139,0.7857,0.7666,0.7568,0.7335,0.7199,0.7068,0.6806,0.6515,0.6247,0.6115,0.5885,0.555,0.5256,0.499,0.4691,0.4225,0.3959,0.3992,0.3925,0.3625,0.3326,0.3092,0.279,0.2456,0.2255,0.2119,0.1981,0.184,0.1665,0.1398,0.1233,0.0967,0.0635,0.0435,0.0368,0.0268,0.0101,0.0169,0.027,0.0135,0.0,0.0,-0.0034,-0.0101,-0.0067,-0.0236,-0.0337,-0.0405,-0.0472,-0.0607,-0.0808,-0.0838,-0.0861,-0.1008,-0.0967,-0.1049,-0.1186,-0.1636,-0.2029,-0.2334,-0.2738,-0.3155,-0.3439,-0.3505,-0.3469,-0.3516,-0.3345,-0.3445,-0.3792,-0.4125,-0.4556,-0.5355,-0.5653,-0.5918,-0.6214,-0.6445,-0.6544,-0.6655,-0.6791,-0.6946,-0.7119,-0.733,-0.7522,-0.7725,-0.7925,-0.8095,-0.8594,-0.8853,-0.9131,-0.9295,-0.9388,-0.9446,-0.9478,-0.9606,-0.9708,-0.9862,-1.0053,-1.0308,-1.0593,-1.0807,-1.1122,1.1138,1.0743,1.0355,0.9979,0.9553,0.9102,0.8788,0.8587,0.8538,0.8479,0.8447,0.8269,0.8042,0.7792,0.7727,0.7503,0.7176,0.7138,0.7068,0.6806,0.6581,0.6383,0.6181,0.605,0.5818,0.5587,0.5253,0.5156,0.5024,0.4658,0.4459,0.4498,0.4128,0.3861,0.3658,0.3224,0.2889,0.2621,0.2354,0.2153,0.207,0.1909,0.1729,0.15,0.1242,0.0881,0.0619,0.0619,0.0489,0.0229,0.0166,0.0268,0.0269,0.0236,0.0202,0.0135,-0.0101,-0.0236,-0.0236,-0.027,-0.0405,-0.0607,-0.0505,-0.0539,-0.0974,-0.0725,-0.0749,-0.09,-0.0918,-0.0963,-0.1165,-0.1535,-0.1876,-0.2205,-0.2658,-0.3043,-0.3271,-0.321,-0.3305,-0.3466,-0.3457,-0.354,-0.4084,-0.4028,-0.4425,-0.5024,-0.5355,-0.5583,-0.5918,-0.628,-0.6416,-0.6515,-0.6613,-0.6773,-0.7003,-0.7199,-0.7428,-0.7596,-0.7727,-0.7894,-0.8386,-0.8765,-0.8986,-0.9219,-0.9423,-0.9452,-0.9478,-0.951,-0.9612,-0.9798,-0.9958,-1.018,-1.0428,-1.0681,-1.0933,1.1173,1.079,1.0176,0.9695,0.9359,0.8973,0.8673,0.8511,0.8409,0.8376,0.8312,0.8079,0.7857,0.7699,0.7531,0.7269,0.7073,0.6975,0.6839,0.6581,0.6383,0.6251,0.6148,0.5914,0.5719,0.565,0.5484,0.5352,0.5156,0.4861,0.4561,0.4567,0.4264,0.4064,0.3861,0.336,0.2956,0.2654,0.2285,0.2041,0.1909,0.1788,0.1675,0.1554,0.1238,0.0917,0.0777,0.0743,0.0577,0.0351,0.0353,0.0361,0.0201,0.0169,0.0169,0.0101,-0.0169,-0.0337,-0.0337,-0.0371,-0.0472,-0.064,-0.05,-0.0562,-0.0755,-0.0676,-0.0691,-0.0806,-0.0884,-0.0932,-0.1095,-0.1343,-0.167,-0.2016,-0.2421,-0.2718,-0.2938,-0.3051,-0.3208,-0.3416,-0.3354,-0.3505,-0.372,-0.3913,-0.4228,-0.4758,-0.5322,-0.5583,-0.5888,-0.6218,-0.635,-0.6453,-0.6515,-0.6646,-0.6839,-0.7101,-0.7391,-0.7526,-0.7661,-0.7824,-0.8146,-0.85,-0.8825,-0.906,-0.935,-0.9414,-0.9446,-0.9478,-0.9516,-0.9644,-0.9798,-1.0021,-1.0238,-1.0434,-1.0688,1.1068,1.0781,1.0025,0.9583,0.9308,0.8951,0.8673,0.8409,0.8269,0.8204,0.8107,0.7824,0.7694,0.7596,0.7302,0.7171,0.7036,0.6806,0.6581,0.6453,0.6284,0.6214,0.6112,0.5881,0.5694,0.5796,0.5543,0.5348,0.5123,0.4791,0.4561,0.44,0.4303,0.4167,0.393,0.356,0.3192,0.2889,0.2453,0.2135,0.1928,0.1846,0.1741,0.1585,0.144,0.1182,0.1067,0.0962,0.0792,0.0495,0.0676,0.0506,0.0196,0.0067,0.0033,0.0033,-0.0231,-0.0396,-0.0362,-0.043,-0.0529,-0.0532,-0.0489,-0.0546,-0.0606,-0.0656,-0.067,-0.0747,-0.0852,-0.0899,-0.0902,-0.1127,-0.1408,-0.1685,-0.1962,-0.2296,-0.2574,-0.2918,-0.3138,-0.3324,-0.3355,-0.3471,-0.365,-0.3837,-0.4148,-0.4525,-0.509,-0.5554,-0.5855,-0.6067,-0.6154,-0.6335,-0.642,-0.6556,-0.6761,-0.6942,-0.7265,-0.7493,-0.7596,-0.7824,-0.8014,-0.8349,-0.8705,-0.9022,-0.921,-0.9344,-0.9408,-0.9478,-0.951,-0.9548,-0.9676,-0.9926,-1.0085,-1.0212,-1.0466,1.061,1.0061,0.9815,0.9451,0.9091,0.8878,0.8603,0.8269,0.8204,0.8144,0.7982,0.7684,0.7526,0.7428,0.7138,0.6909,0.6773,0.6581,0.6453,0.6354,0.6247,0.6178,0.6023,0.5814,0.5603,0.5363,0.5228,0.5183,0.5143,0.4861,0.4613,0.4525,0.4398,0.4197,0.403,0.3761,0.3527,0.3226,0.2855,0.2571,0.2378,0.2181,0.1966,0.1774,0.1663,0.1493,0.1316,0.1323,0.1179,0.0832,0.0994,0.079,0.0435,0.0345,0.0314,0.0158,-0.0158,-0.038,-0.038,-0.0472,-0.0659,-0.0783,-0.0655,-0.0622,-0.0742,-0.0666,-0.0651,-0.0793,-0.0864,-0.0877,-0.0899,-0.1043,-0.1181,-0.1431,-0.1765,-0.2128,-0.2333,-0.262,-0.2944,-0.3191,-0.3317,-0.3477,-0.3684,-0.3834,-0.4084,-0.4361,-0.4697,-0.5256,-0.5653,-0.5807,-0.5881,-0.6096,-0.6306,-0.6456,-0.6641,-0.683,-0.7077,-0.74,-0.7596,-0.7889,-0.8117,-0.8317,-0.8608,-0.8926,-0.9145,-0.9274,-0.9344,-0.944,-0.951,-0.958,-0.974,-0.9868,-1.0053,-1.0212,-1.0434,1.0358,1.0028,0.9658,0.9299,0.9002,0.8738,0.8474,0.8172,0.8014,0.7889,0.7792,0.7591,0.7428,0.7297,0.704,0.6778,0.6548,0.6453,0.6354,0.6284,0.6115,0.5894,0.5712,0.5539,0.524,0.4913,0.4775,0.4794,0.4883,0.4821,0.4605,0.4489,0.4428,0.4361,0.4161,0.3894,0.3727,0.3458,0.3088,0.2769,0.2571,0.2334,0.2067,0.1907,0.1857,0.1751,0.1575,0.1467,0.1336,0.1064,0.1072,0.0842,0.0586,0.0443,0.0418,0.0275,-0.0092,-0.0339,-0.0339,-0.0463,-0.0742,-0.0833,-0.0701,-0.0694,-0.0778,-0.0734,-0.0723,-0.0835,-0.0873,-0.0892,-0.0893,-0.0976,-0.1122,-0.1432,-0.1726,-0.2045,-0.2382,-0.2635,-0.2882,-0.3103,-0.3241,-0.3465,-0.3811,-0.3972,-0.4092,-0.4267,-0.4434,-0.4897,-0.5422,-0.5523,-0.5621,-0.6064,-0.6359,-0.6571,-0.6752,-0.6896,-0.7077,-0.7335,-0.7629,-0.7917,-0.8149,-0.8349,-0.8576,-0.8802,-0.899,-0.9177,-0.9306,-0.9408,-0.9542,-0.9644,-0.974,-0.983,-1.0053,-1.0238,-1.0428,1.0126,1.0069,0.953,0.9177,0.8952,0.8641,0.8344,0.8144,0.7824,0.7699,0.7629,0.7493,0.733,0.7167,0.6942,0.6679,0.6387,0.6354,0.6284,0.6119,0.5914,0.5607,0.5332,0.5048,0.4862,0.4521,0.4424,0.4378,0.4498,0.4586,0.4522,0.44,0.4495,0.4428,0.4197,0.403,0.3792,0.3522,0.3184,0.2817,0.2517,0.234,0.2169,0.2,0.2043,0.2045,0.1899,0.1744,0.1554,0.1359,0.1218,0.1012,0.0617,0.0477,0.046,0.036,-0.0091,-0.0182,-0.0212,-0.0362,-0.063,-0.0779,-0.0827,-0.0793,-0.0797,-0.0849,-0.0895,-0.092,-0.0897,-0.0882,-0.0879,-0.0935,-0.1105,-0.1386,-0.1673,-0.1959,-0.2352,-0.2645,-0.2908,-0.3105,-0.3202,-0.3475,-0.3813,-0.4043,-0.4197,-0.4233,-0.4403,-0.4634,-0.5084,-0.5248,-0.547,-0.6059,-0.6445,-0.6678,-0.6872,-0.7031,-0.7204,-0.7396,-0.7689,-0.7982,-0.8177,-0.8376,-0.8571,-0.8738,-0.8926,-0.9113,-0.9242,-0.9376,-0.9478,-0.958,-0.9676,-0.9798,-1.0021,-1.0174,-1.0333,0.9854,0.9815,0.9452,0.9177,0.8952,0.8641,0.8317,0.8019,0.7797,0.7629,0.7526,0.733,0.7232,0.7068,0.6839,0.6544,0.6317,0.6218,0.6115,0.5921,0.5698,0.551,0.5301,0.5046,0.4632,0.4284,0.4221,0.4312,0.4324,0.4278,0.427,0.4295,0.4323,0.4231,0.4131,0.4167,0.4133,0.3928,0.3725,0.338,0.2965,0.286,0.2694,0.2559,0.2543,0.2485,0.2213,0.2018,0.1852,0.1718,0.1589,0.1376,0.1066,0.0785,0.0702,0.0538,0.0255,-0.0028,-0.0057,-0.0259,-0.0491,-0.0696,-0.0744,-0.0776,-0.0852,-0.09,-0.0962,-0.1007,-0.096,-0.0919,-0.0945,-0.1012,-0.111,-0.134,-0.1663,-0.1897,-0.2198,-0.2815,-0.3051,-0.3224,-0.3355,-0.358,-0.3897,-0.4088,-0.4267,-0.4303,-0.437,-0.4597,-0.4851,-0.5094,-0.5416,-0.6005,-0.6433,-0.6699,-0.6909,-0.7077,-0.7302,-0.7493,-0.7754,-0.8052,-0.8247,-0.8409,-0.8506,-0.8673,-0.8861,-0.9049,-0.9242,-0.937,-0.9446,-0.9542,-0.9606,-0.9766,-0.9951,-1.011,-1.0263,0.9804,0.9766,0.9466,0.9145,0.8861,0.8468,0.8149,0.7862,0.7657,0.7493,0.7363,0.7232,0.704,0.6778,0.6511,0.628,0.6083,0.6013,0.5855,0.5617,0.543,0.518,0.4823,0.4583,0.4284,0.4087,0.3986,0.3996,0.4068,0.4185,0.4264,0.4191,0.4364,0.4398,0.4164,0.4233,0.4167,0.3964,0.3758,0.3431,0.3162,0.3012,0.2881,0.2523,0.261,0.2502,0.229,0.208,0.1891,0.1726,0.1551,0.1319,0.101,0.073,0.0508,0.0491,0.0087,-0.0115,-0.0057,-0.0314,-0.0518,-0.0668,-0.079,-0.0898,-0.0937,-0.0934,-0.0934,-0.0931,-0.0938,-0.0936,-0.1,-0.1124,-0.1217,-0.1421,-0.1735,-0.2066,-0.2369,-0.2855,-0.3263,-0.3411,-0.3538,-0.3742,-0.3948,-0.4118,-0.4292,-0.4298,-0.4359,-0.448,-0.4815,-0.5203,-0.5567,-0.5984,-0.6347,-0.6646,-0.6881,-0.7077,-0.7372,-0.7563,-0.7787,-0.8052,-0.8312,-0.8479,-0.8544,-0.8641,-0.8829,-0.9055,-0.9242,-0.937,-0.9446,-0.951,-0.9542,-0.9734,-0.9926,-1.0129,-1.0338,0.9728,0.9696,0.937,0.8988,0.8623,0.8312,0.7941,0.7643,0.7505,0.7344,0.7195,0.7101,0.6811,0.6453,0.628,0.6079,0.5815,0.5818,0.5635,0.5422,0.5176,0.4871,0.458,0.4305,0.4056,0.3796,0.3791,0.3789,0.388,0.4015,0.4103,0.4086,0.4276,0.4356,0.43,0.4195,0.4084,0.3807,0.3614,0.3335,0.3107,0.3056,0.2818,0.2617,0.2493,0.2434,0.2221,0.2031,0.183,0.1809,0.1602,0.1408,0.1166,0.0915,0.0637,0.0503,0.0119,-0.0148,-0.0176,-0.0354,-0.0595,-0.069,-0.0788,-0.0888,-0.0982,-0.0965,-0.0925,-0.0932,-0.1022,-0.1033,-0.104,-0.117,-0.1313,-0.1552,-0.1889,-0.2263,-0.2628,-0.2994,-0.3323,-0.353,-0.3691,-0.3828,-0.4033,-0.4197,-0.4281,-0.4292,-0.435,-0.4394,-0.4716,-0.5101,-0.546,-0.5796,-0.6343,-0.6642,-0.6848,-0.711,-0.7372,-0.7629,-0.7857,-0.8052,-0.8274,-0.8441,-0.8544,-0.8673,-0.8775,-0.8894,-0.9055,-0.9247,-0.944,-0.944,-0.9504,-0.9676,-0.9862,-1.0072,-1.0253,0.9518,0.9486,0.9139,0.8721,0.8225,0.8089,0.776,0.739,0.7245,0.7154,0.7061,0.6863,0.6556,0.6383,0.6181,0.5939,0.5602,0.5503,0.5363,0.5206,0.4961,0.469,0.4414,0.4139,0.3889,0.3761,0.3635,0.3588,0.362,0.3673,0.3881,0.4086,0.4063,0.4179,0.4123,0.3977,0.3833,0.3586,0.3404,0.3278,0.3084,0.2987,0.2859,0.2647,0.2593,0.2559,0.2454,0.2145,0.1985,0.2027,0.1809,0.1637,0.1433,0.1145,0.0895,0.0611,0.0215,-0.0061,-0.0216,-0.0399,-0.0492,-0.0554,-0.0678,-0.0864,-0.0987,-0.1018,-0.0984,-0.0973,-0.1023,-0.1042,-0.1031,-0.1136,-0.1345,-0.1539,-0.1862,-0.2284,-0.263,-0.2961,-0.3304,-0.3597,-0.3784,-0.3835,-0.3951,-0.406,-0.4259,-0.4278,-0.4205,-0.4246,-0.4388,-0.4742,-0.5153,-0.5607,-0.631,-0.6695,-0.6876,-0.711,-0.7335,-0.7596,-0.7824,-0.8014,-0.8204,-0.8333,-0.842,-0.851,-0.8605,-0.8736,-0.8849,-0.8957,-0.908,-0.9279,-0.9416,-0.9491,-0.9612,-0.9772,-0.9936,0.9439,0.9013,0.8731,0.8399,0.7985,0.7598,0.7298,0.7099,0.6903,0.6675,0.6529,0.6286,0.6087,0.5953,0.584,0.5621,0.532,0.5143,0.5004,0.4712,0.44,0.4225,0.4048,0.3837,0.3508,0.3557,0.3441,0.3302,0.3299,0.3333,0.3399,0.352,0.3736,0.3811,0.3787,0.364,0.348,0.3469,0.3281,0.3085,0.3073,0.293,0.2804,0.2664,0.2398,0.2358,0.2245,0.202,0.1956,0.1953,0.182,0.1712,0.1599,0.1273,0.0986,0.0694,0.0253,0.0,-0.0258,-0.048,-0.0699,-0.0822,-0.0876,-0.0925,-0.0983,-0.0972,-0.0872,-0.0865,-0.0921,-0.0969,-0.0852,-0.1069,-0.1362,-0.1484,-0.1789,-0.2217,-0.2591,-0.2956,-0.3278,-0.36,-0.366,-0.3675,-0.3795,-0.3895,-0.4076,-0.4224,-0.414,-0.4094,-0.4221,-0.4382,-0.4804,-0.5181,-0.5832,-0.6403,-0.6619,-0.6917,-0.7251,-0.7493,-0.7742,-0.7901,-0.8005,-0.8101,-0.8174,-0.8279,-0.8335,-0.8373,-0.8457,-0.8608,-0.8776,-0.8986,-0.9122,-0.9223,-0.9339,-0.9487,-0.9612,0.9146,0.8579,0.8191,0.7916,0.7653,0.7295,0.7048,0.6832,0.6602,0.631,0.5959,0.5856,0.5718,0.5521,0.5435,0.5261,0.5004,0.4764,0.4569,0.4294,0.4009,0.3827,0.3647,0.3455,0.3256,0.336,0.3274,0.3132,0.314,0.3065,0.3167,0.3306,0.3386,0.3438,0.344,0.3238,0.3198,0.3161,0.3107,0.293,0.294,0.2838,0.2655,0.2561,0.2305,0.2211,0.2106,0.192,0.1889,0.1891,0.1827,0.1672,0.1515,0.1319,0.1018,0.0677,0.0358,0.0065,-0.0164,-0.0491,-0.0772,-0.0854,-0.0863,-0.0914,-0.0937,-0.0918,-0.0873,-0.0726,-0.0812,-0.0843,-0.0727,-0.0966,-0.119,-0.1339,-0.1767,-0.2225,-0.2588,-0.2934,-0.3271,-0.359,-0.36,-0.367,-0.3753,-0.3878,-0.3924,-0.4077,-0.4027,-0.3977,-0.4014,-0.4186,-0.447,-0.4856,-0.5258,-0.5793,-0.6277,-0.6565,-0.6849,-0.7122,-0.7373,-0.7626,-0.7773,-0.7834,-0.7946,-0.8027,-0.8053,-0.8017,-0.8142,-0.8364,-0.8536,-0.8721,-0.8812,-0.889,-0.9046,-0.9174,-0.929,0.8696,0.8239,0.7569,0.7278,0.7247,0.7282,0.7046,0.6715,0.6427,0.6051,0.5676,0.567,0.551,0.5234,0.5116,0.4928,0.4688,0.4386,0.421,0.4068,0.3736,0.3621,0.3475,0.3272,0.3049,0.3077,0.3049,0.3049,0.3079,0.3042,0.3114,0.302,0.2973,0.2992,0.317,0.313,0.2939,0.2684,0.2755,0.2721,0.273,0.2713,0.2533,0.2387,0.2227,0.2142,0.2055,0.1778,0.175,0.1958,0.1805,0.1681,0.1666,0.1537,0.1297,0.0994,0.065,0.0419,0.0226,-0.0225,-0.057,-0.0772,-0.0811,-0.0827,-0.0879,-0.0891,-0.0848,-0.0739,-0.0821,-0.0819,-0.0789,-0.0848,-0.1011,-0.1226,-0.1675,-0.2078,-0.2434,-0.2793,-0.3084,-0.3409,-0.3595,-0.3732,-0.382,-0.387,-0.3838,-0.386,-0.3865,-0.3865,-0.3859,-0.398,-0.4249,-0.4524,-0.4891,-0.5352,-0.5825,-0.6163,-0.6466,-0.6729,-0.7013,-0.7329,-0.7522,-0.762,-0.7708,-0.7812,-0.7762,-0.769,-0.7934,-0.8204,-0.8328,-0.841,-0.8446,-0.8539,-0.8708,-0.8895,-0.9025,0.8481,0.8017,0.7677,0.7321,0.7015,0.6784,0.6611,0.6451,0.6147,0.5814,0.5496,0.5368,0.5217,0.5005,0.4827,0.4633,0.4346,0.4207,0.4019,0.3749,0.3442,0.3329,0.3196,0.3023,0.2882,0.2912,0.2886,0.2856,0.2828,0.2905,0.2738,0.2604,0.2519,0.248,0.2577,0.2593,0.239,0.2439,0.2456,0.2433,0.2553,0.2549,0.2495,0.2385,0.2201,0.2095,0.2069,0.1723,0.1671,0.1885,0.1727,0.1613,0.1626,0.1531,0.1325,0.1008,0.0669,0.0466,0.0184,-0.0182,-0.0424,-0.0594,-0.07,-0.0745,-0.0853,-0.0877,-0.0814,-0.0757,-0.0813,-0.0785,-0.0758,-0.0759,-0.0852,-0.0966,-0.1345,-0.1741,-0.2107,-0.2459,-0.2811,-0.3131,-0.336,-0.351,-0.3616,-0.3714,-0.3709,-0.3756,-0.3799,-0.3775,-0.374,-0.3838,-0.4038,-0.4273,-0.4568,-0.4982,-0.5397,-0.5741,-0.607,-0.6304,-0.6685,-0.709,-0.7245,-0.7319,-0.7452,-0.7506,-0.744,-0.7383,-0.7621,-0.7852,-0.7977,-0.8086,-0.8119,-0.8198,-0.8375,-0.8598,-0.8846,0.8299,0.7744,0.7627,0.7263,0.683,0.6603,0.6388,0.6131,0.5876,0.5576,0.5237,0.5089,0.4883,0.4676,0.4484,0.4288,0.4015,0.3863,0.3623,0.3363,0.3137,0.3,0.286,0.2745,0.2689,0.2691,0.2719,0.2691,0.2665,0.2695,0.2604,0.2416,0.2138,0.2172,0.2231,0.2155,0.2139,0.2196,0.2153,0.2191,0.2296,0.2327,0.234,0.2258,0.2154,0.2019,0.1962,0.1777,0.1522,0.1694,0.1671,0.1531,0.1497,0.1423,0.1241,0.0978,0.068,0.042,0.0088,-0.0058,-0.0261,-0.0463,-0.0566,-0.0618,-0.0729,-0.0757,-0.0701,-0.0701,-0.0757,-0.0757,-0.0729,-0.0701,-0.0757,-0.0898,-0.1128,-0.1517,-0.1717,-0.2095,-0.2373,-0.2711,-0.2886,-0.3074,-0.336,-0.3485,-0.3564,-0.3632,-0.3733,-0.3702,-0.3708,-0.3847,-0.3987,-0.4201,-0.4426,-0.4808,-0.5125,-0.5353,-0.5628,-0.5914,-0.6299,-0.6715,-0.6793,-0.6849,-0.703,-0.7215,-0.7224,-0.7253,-0.734,-0.7521,-0.7689,-0.7772,-0.7802,-0.7895,-0.8047,-0.8453,-0.8884,0.812,0.7534,0.7344,0.7047,0.6729,0.6566,0.6237,0.5775,0.5661,0.5324,0.4908,0.4895,0.4647,0.4268,0.407,0.3884,0.3663,0.3487,0.3231,0.303,0.2914,0.2747,0.2633,0.2577,0.2493,0.2437,0.2465,0.2607,0.2529,0.2565,0.2523,0.2375,0.2117,0.1994,0.1908,0.1884,0.191,0.188,0.1825,0.1893,0.1969,0.1967,0.1971,0.1922,0.1813,0.1806,0.1753,0.1626,0.1619,0.1668,0.1628,0.1483,0.1372,0.1315,0.1178,0.0977,0.0685,0.0348,0.0114,0.0028,-0.0085,-0.0283,-0.031,-0.0364,-0.0505,-0.0673,-0.0701,-0.0673,-0.0701,-0.0729,-0.0729,-0.0729,-0.0757,-0.0898,-0.1066,-0.1268,-0.138,-0.1628,-0.1878,-0.208,-0.2166,-0.2406,-0.2965,-0.3188,-0.342,-0.3674,-0.3775,-0.3853,-0.3891,-0.4005,-0.4141,-0.4283,-0.4511,-0.4685,-0.4932,-0.5133,-0.5313,-0.5616,-0.5852,-0.622,-0.6261,-0.6477,-0.6721,-0.6941,-0.7041,-0.7144,-0.7247,-0.7328,-0.7411,-0.7498,-0.7659,-0.7871,-0.8094,-0.8771,-0.9233,0.8027,0.7744,0.7247,0.682,0.6436,0.5923,0.5567,0.5463,0.5421,0.5174,0.4767,0.4653,0.4408,0.4052,0.3833,0.3638,0.3469,0.3274,0.3026,0.2858,0.2747,0.2549,0.2408,0.2348,0.2266,0.2293,0.2376,0.2508,0.2458,0.2469,0.235,0.2163,0.1968,0.1734,0.1561,0.1504,0.1525,0.153,0.1461,0.1487,0.1551,0.1551,0.1558,0.1503,0.1339,0.141,0.1529,0.1286,0.1298,0.1554,0.1333,0.1189,0.1342,0.1246,0.113,0.0925,0.0628,0.034,0.0197,0.014,0.0056,-0.0112,-0.0168,-0.0336,-0.0505,-0.0673,-0.0729,-0.0729,-0.0729,-0.0785,-0.0785,-0.0785,-0.0813,-0.0897,-0.101,-0.1066,-0.1206,-0.1402,-0.1624,-0.1651,-0.1734,-0.2135,-0.2664,-0.298,-0.3214,-0.358,-0.3824,-0.3901,-0.4049,-0.4162,-0.4304,-0.4439,-0.455,-0.4715,-0.4822,-0.4981,-0.5128,-0.5313,-0.5572,-0.5822,-0.605,-0.6269,-0.65,-0.6734,-0.6891,-0.7025,-0.7112,-0.7236,-0.7356,-0.7549,-0.7699,-0.7949,-0.8247,-0.8822,-0.9324,0.7988,0.7745,0.7214,0.6652,0.6105,0.554,0.5215,0.5096,0.5104,0.4882,0.4529,0.4442,0.419,0.3858,0.3666,0.3499,0.3274,0.3023,0.28,0.2663,0.2549,0.2352,0.2181,0.2156,0.211,0.2141,0.2191,0.2304,0.223,0.2133,0.2032,0.1849,0.168,0.1422,0.1199,0.1029,0.1018,0.103,0.1043,0.1052,0.1072,0.1126,0.1125,0.1097,0.0924,0.103,0.1268,0.0985,0.1111,0.1357,0.1079,0.1092,0.1176,0.1089,0.1009,0.079,0.0563,0.0337,0.0196,0.014,0.0028,-0.0084,-0.0112,-0.0224,-0.0393,-0.0533,-0.0645,-0.0729,-0.0813,-0.0869,-0.0869,-0.0869,-0.0869,-0.0897,-0.0897,-0.0897,-0.1038,-0.1234,-0.1317,-0.1342,-0.161,-0.2004,-0.24,-0.2709,-0.3055,-0.3447,-0.3748,-0.3908,-0.4073,-0.4242,-0.4384,-0.4525,-0.4636,-0.4746,-0.4825,-0.4877,-0.4987,-0.5128,-0.5266,-0.5513,-0.5786,-0.6032,-0.625,-0.6544,-0.6815,-0.695,-0.7112,-0.7242,-0.7389,-0.7538,-0.7649,-0.7818,-0.8113,-0.8591,-0.908,0.7966,0.7688,0.7192,0.6431,0.5723,0.5348,0.4994,0.4664,0.4619,0.4442,0.4193,0.411,0.3858,0.3524,0.3416,0.3274,0.3051,0.2828,0.2633,0.2493,0.2352,0.2151,0.2062,0.2057,0.1929,0.1889,0.193,0.2048,0.1859,0.1772,0.1668,0.1457,0.1318,0.1106,0.0862,0.0566,0.051,0.0565,0.0605,0.0615,0.0676,0.0719,0.0742,0.0851,0.0775,0.0753,0.0952,0.0989,0.0986,0.1037,0.1055,0.1065,0.1018,0.0926,0.0853,0.074,0.0571,0.0431,0.0259,0.0173,0.0057,-0.0057,-0.0113,-0.0198,-0.0341,-0.0506,-0.0645,-0.0729,-0.0813,-0.0869,-0.0869,-0.0869,-0.0869,-0.0897,-0.0897,-0.0897,-0.0954,-0.1091,-0.1142,-0.1219,-0.1418,-0.1806,-0.2172,-0.2501,-0.2912,-0.3308,-0.359,-0.3791,-0.405,-0.4265,-0.4415,-0.456,-0.4664,-0.4715,-0.4794,-0.4849,-0.4901,-0.4983,-0.5124,-0.5266,-0.554,-0.5791,-0.6009,-0.6359,-0.6707,-0.695,-0.7101,-0.7215,-0.7307,-0.7416,-0.7543,-0.7685,-0.7989,-0.8387,-0.8795,0.806,0.7672,0.6559,0.5719,0.512,0.4904,0.4608,0.4162,0.4049,0.3993,0.3855,0.3522,0.3272,0.3132,0.3023,0.2884,0.28,0.2717,0.2521,0.2352,0.2184,0.1997,0.182,0.18,0.1712,0.1724,0.1759,0.1737,0.1576,0.1455,0.1332,0.11,0.0933,0.0713,0.0489,0.0203,0.0151,0.0178,0.0157,0.0268,0.0431,0.0366,0.0352,0.0356,0.0299,0.0393,0.0521,0.0553,0.0789,0.1046,0.1008,0.1018,0.1051,0.0951,0.0901,0.0818,0.0679,0.0505,0.0359,0.0179,0.006,-0.003,-0.0118,-0.0205,-0.0318,-0.0511,-0.0645,-0.0701,-0.0785,-0.0841,-0.0897,-0.0897,-0.0897,-0.0897,-0.0898,-0.0898,-0.0897,-0.0947,-0.0997,-0.1119,-0.126,-0.1575,-0.1955,-0.2344,-0.2759,-0.3097,-0.3348,-0.3587,-0.3919,-0.4149,-0.4267,-0.4446,-0.4622,-0.4715,-0.4767,-0.4818,-0.4846,-0.4987,-0.5156,-0.527,-0.538,-0.5654,-0.5955,-0.6305,-0.663,-0.6869,-0.7058,-0.7122,-0.7198,-0.7369,-0.7448,-0.7601,-0.7685,-0.7988,-0.8443,0.7871,0.7417,0.6239,0.5367,0.4846,0.4684,0.4325,0.3938,0.3716,0.3547,0.3378,0.313,0.2935,0.2824,0.2719,0.2635,0.2635,0.2635,0.2465,0.2268,0.2041,0.1861,0.1695,0.1529,0.1404,0.1398,0.1345,0.1288,0.1139,0.1105,0.0957,0.0634,0.0429,0.0279,0.0077,-0.0077,-0.0102,-0.0078,-0.0161,-0.0054,0.019,0.0141,0.0115,0.0087,0.0,0.0,0.0178,0.0237,0.0498,0.0811,0.0864,0.106,0.1075,0.0996,0.0898,0.0823,0.0686,0.0518,0.0369,0.0216,0.0061,-0.003,-0.006,-0.0117,-0.0143,-0.0309,-0.0533,-0.0617,-0.0813,-0.0897,-0.0926,-0.0954,-0.0926,-0.0926,-0.1038,-0.1094,-0.1028,-0.0962,-0.1009,-0.105,-0.1254,-0.1598,-0.1932,-0.2203,-0.262,-0.3001,-0.3237,-0.3382,-0.3692,-0.3957,-0.4111,-0.4261,-0.4422,-0.4635,-0.4715,-0.4767,-0.4791,-0.4959,-0.5132,-0.5308,-0.5437,-0.5645,-0.5927,-0.625,-0.6544,-0.6869,-0.7004,-0.7112,-0.73,-0.7509,-0.7532,-0.7506,-0.7614,-0.7705,-0.8111,0.7486,0.7,0.6018,0.5266,0.4743,0.4522,0.4215,0.3796,0.3466,0.3132,0.2822,0.2768,0.2687,0.2605,0.2579,0.2551,0.2493,0.241,0.2268,0.2017,0.185,0.1578,0.1367,0.1242,0.1086,0.0937,0.0842,0.0637,0.0435,0.0439,0.0335,0.0,-0.0127,-0.0205,-0.0339,-0.0365,-0.031,-0.024,-0.0247,-0.0195,-0.0112,-0.0028,0.0,0.0,0.0,0.0,0.0,0.0112,0.0253,0.0562,0.0846,0.1042,0.1131,0.1052,0.0953,0.0852,0.0657,0.0485,0.0337,0.0185,0.0091,0.003,0.0,0.0,-0.0028,-0.0197,-0.0393,-0.0561,-0.0757,-0.0897,-0.0954,-0.101,-0.0982,-0.101,-0.115,-0.1234,-0.1108,-0.1011,-0.1027,-0.1042,-0.1329,-0.1676,-0.1911,-0.2165,-0.2477,-0.2858,-0.3093,-0.3226,-0.3411,-0.3611,-0.3802,-0.3981,-0.4164,-0.4348,-0.4597,-0.4627,-0.4629,-0.4796,-0.4961,-0.5232,-0.5471,-0.5624,-0.5828,-0.6164,-0.6485,-0.6761,-0.7004,-0.7166,-0.7381,-0.7568,-0.7509,-0.7466,-0.7656,-0.7773,-0.7903,0.721,0.6188,0.5768,0.5317,0.4818,0.4436,0.4079,0.3741,0.3213,0.274,0.2378,0.2102,0.1993,0.1964,0.1965,0.1936,0.185,0.1961,0.1709,0.1346,0.1514,0.1241,0.0926,0.0786,0.063,0.0492,0.0335,0.0155,-0.0026,-0.0155,-0.0258,-0.0341,-0.0611,-0.0618,-0.0423,-0.0476,-0.0532,-0.041,-0.0415,-0.0449,-0.0224,-0.014,-0.0084,0.0,0.0,0.0,0.0,0.0,0.028,0.0617,0.0954,0.1094,0.1128,0.1113,0.1015,0.0883,0.0687,0.0577,0.043,0.0278,0.0183,0.0151,0.0119,0.0029,-0.0057,-0.0198,-0.0366,-0.0449,-0.0645,-0.0869,-0.0954,-0.1066,-0.1094,-0.115,-0.1262,-0.1206,-0.1115,-0.1133,-0.1177,-0.1281,-0.1493,-0.1733,-0.1918,-0.2149,-0.2373,-0.2661,-0.2811,-0.2981,-0.3266,-0.3396,-0.3511,-0.3701,-0.3872,-0.4187,-0.4453,-0.443,-0.447,-0.4606,-0.4755,-0.5004,-0.5231,-0.5481,-0.5751,-0.6041,-0.6322,-0.6625,-0.6869,-0.7117,-0.7257,-0.7358,-0.7344,-0.7378,-0.7603,-0.7803,-0.7921]}]]